GFSCGP_925_thetae_000.txt.gz
Theta_e
330 331 330 329 330 330 330 332 337 338 342 345 347 354 349 348 349 347 347 352 352 352 351 353 355 355 356 356 357 358 358 358 357 357 356 355 355 354 353 353 353 353 353 353
327 329 329 329 330 329 329 330 332 340 344 346 353 354 353 349 345 348 347 351 351 352 352 353 353 355 355 356 357 358 358 359 358 356 356 355 353 350 351 353 352 351 349 349
326 327 329 329 329 330 331 331 332 337 348 347 353 356 360 353 352 349 351 350 352 353 353 353 353 353 354 355 357 358 358 358 360 358 353 348 343 346 342 343 342 345 346 345
329 328 328 329 330 331 332 333 333 335 350 344 349 343 361 357 357 354 351 354 353 354 354 353 351 353 353 354 357 361 361 359 354 348 345 345 337 339 340 340 339 341 341 342
330 328 329 330 330 331 334 338 339 341 348 347 355 348 342 354 358 355 353 351 351 352 353 352 349 350 351 356 358 357 353 349 345 345 341 337 338 336 338 337 337 339 339 340
330 330 330 330 330 330 338 343 343 343 339 342 337 343 335 342 352 351 352 353 353 352 352 352 349 351 355 354 351 346 346 345 343 340 340 340 340 338 336 337 337 335 336 337
330 329 330 331 332 334 335 335 335 336 336 335 337 339 336 336 348 347 350 353 353 351 351 352 354 354 352 352 346 342 344 344 342 337 336 337 337 337 337 338 333 336 334 334
331 332 330 331 331 332 332 331 331 333 332 330 340 334 337 343 343 342 347 350 352 351 350 351 354 352 352 349 343 342 344 343 338 337 339 339 338 333 334 335 336 333 333 332
330 330 330 330 331 332 332 332 331 332 330 330 331 336 339 342 343 344 348 351 354 349 349 351 352 351 349 343 343 343 343 341 338 338 340 339 338 338 335 336 336 333 334 332
330 331 330 330 331 331 333 332 332 331 334 335 332 331 332 337 337 344 346 351 354 349 349 350 350 349 344 342 342 342 342 341 339 338 338 334 335 336 335 335 335 335 334 334
329 330 333 332 332 331 332 333 334 333 334 334 334 332 335 334 335 338 346 350 353 348 346 349 349 348 342 341 340 340 341 340 338 338 336 335 334 335 334 333 334 335 334 334
329 330 332 331 332 333 332 332 334 336 341 335 334 332 335 334 336 337 340 349 350 351 343 342 347 347 341 341 338 338 338 337 336 336 335 334 334 335 333 333 333 333 333 333
330 329 331 333 334 333 334 334 334 334 335 336 335 334 338 337 340 341 341 346 351 352 346 342 345 344 341 340 338 337 337 333 333 334 333 333 334 334 333 332 331 331 332 332
332 330 331 330 332 331 334 334 334 334 336 336 336 335 334 337 338 338 342 346 348 351 348 345 344 343 341 340 339 339 336 332 332 332 332 333 334 334 333 332 332 332 333 333
332 335 333 331 330 331 332 334 334 335 334 336 334 336 337 336 336 338 337 339 346 347 348 347 345 343 342 341 340 338 336 334 334 333 333 333 334 334 332 333 334 333 333 332
336 338 337 333 332 331 331 332 334 334 334 336 335 334 331 331 332 332 333 337 342 346 346 346 345 343 342 341 339 336 335 333 335 335 334 333 334 336 336 334 334 333 331 330
338 339 341 336 335 334 336 335 335 335 336 334 333 333 331 331 332 333 337 338 339 342 345 344 344 343 341 339 334 333 333 332 335 336 334 334 336 336 335 332 332 331 332 331
341 341 338 337 339 340 335 335 334 335 334 333 332 331 330 332 335 338 338 338 338 339 343 343 342 341 339 334 331 332 331 333 335 335 335 334 335 335 334 332 330 330 331 330
338 340 337 339 339 335 336 335 334 334 335 334 334 330 329 333 338 338 337 337 339 340 342 342 340 339 335 332 331 332 333 333 333 333 334 333 334 334 334 332 331 331 330 327
336 340 339 337 336 337 334 334 334 334 336 331 331 330 331 335 335 339 341 338 339 339 340 340 338 335 334 333 332 333 334 334 333 332 332 331 333 334 333 332 331 330 329 327
337 339 336 335 337 333 336 333 333 335 334 332 330 330 332 337 336 342 340 339 338 338 339 338 336 334 333 335 334 333 334 334 333 332 330 330 334 335 335 331 331 329 330 328
338 338 335 335 337 338 333 332 334 340 334 333 333 333 335 338 341 340 340 340 339 339 337 336 335 334 335 337 338 337 337 335 334 332 333 335 335 334 330 334 331 329 329 326
335 337 338 336 338 337 333 335 333 334 336 337 338 338 338 339 339 339 340 340 339 337 336 335 335 337 338 338 340 339 338 338 336 339 336 334 330 331 334 333 332 329 328 326
331 331 332 334 335 333 330 331 332 333 335 335 335 335 337 340 337 338 339 339 338 337 336 336 336 336 336 336 337 338 339 340 336 334 334 331 333 333 333 330 329 328 325 326
331 330 331 332 333 330 330 331 330 331 331 332 332 334 337 337 336 335 334 334 334 334 333 333 334 334 335 336 337 336 335 333 333 333 332 332 331 331 330 331 327 326 323 323
329 330 331 330 327 329 329 325 327 329 331 331 334 334 334 333 332 330 332 332 333 334 334 334 334 333 334 333 333 333 333 333 333 332 330 329 328 327 326 326 324 319 319 320

GFSCGP_925_thetae_003.txt.gz
Theta_e
331 331 332 332 333 334 336 335 338 337 340 341 342 346 350 349 347 347 349 351 350 350 348 349 350 352 353 355 357 357 358 358 358 357 357 356 357 355 354 352 354 353 353 353
332 332 331 331 331 332 331 332 336 337 339 339 341 348 346 347 348 346 346 348 348 348 348 350 351 352 353 354 355 357 357 359 360 358 358 358 355 350 347 349 351 351 349 347
330 331 332 331 331 331 331 331 332 335 337 337 344 345 350 345 346 346 344 345 346 347 347 349 350 350 350 353 356 357 358 359 361 361 356 353 349 349 343 341 343 344 345 343
328 329 329 329 330 330 331 331 331 332 337 340 338 342 352 351 346 344 346 345 345 345 344 345 345 347 347 350 354 358 360 361 357 352 346 347 340 337 341 338 337 340 339 341
328 329 330 330 330 331 334 332 332 332 334 337 341 342 351 344 354 349 344 346 347 347 346 346 342 344 345 350 353 357 359 351 348 345 341 337 335 334 334 335 336 338 340 340
330 331 331 331 331 331 335 335 335 335 335 339 341 345 341 353 356 353 349 344 345 347 347 347 344 345 347 350 353 355 351 348 345 341 340 339 338 337 334 336 336 335 334 336
331 331 331 331 331 332 333 334 337 337 339 340 337 336 340 336 341 339 346 347 345 345 346 348 348 348 350 350 352 348 348 347 344 339 336 334 337 337 338 339 335 336 334 334
333 331 331 331 331 332 332 334 335 338 337 336 335 336 334 332 337 341 342 345 347 348 347 348 349 350 352 350 349 343 347 347 343 338 340 340 340 334 335 335 337 335 334 333
333 332 331 331 332 332 333 332 333 332 334 335 334 335 334 339 338 340 341 343 349 349 350 349 349 352 350 350 346 343 344 345 341 338 343 342 340 339 337 338 337 335 335 334
333 334 332 331 331 332 334 332 332 332 334 337 335 334 333 339 336 336 338 341 345 350 351 349 348 352 349 349 344 341 342 343 341 339 340 335 335 336 338 337 337 337 336 336
331 332 332 332 331 332 332 334 335 335 337 338 336 336 336 335 334 335 336 338 344 349 352 348 349 349 349 347 343 339 341 341 341 340 339 337 335 335 336 335 334 335 336 336
330 331 332 332 332 331 332 333 333 336 338 336 336 336 334 333 333 335 336 338 342 350 353 349 349 348 348 344 342 339 338 339 339 338 338 336 336 336 335 335 334 334 334 334
330 330 332 332 333 331 331 332 333 334 335 342 341 338 337 335 336 337 338 337 343 349 353 349 349 350 349 344 343 338 336 336 336 336 337 336 336 336 336 336 334 333 333 334
331 330 330 331 332 334 333 331 332 333 337 337 339 337 339 337 338 338 337 339 340 347 351 350 348 351 351 345 343 338 336 335 335 334 333 334 335 337 337 336 335 335 334 334
330 333 332 331 330 332 332 332 331 334 335 336 336 337 337 336 335 336 334 335 338 344 349 352 347 349 352 346 345 339 336 335 334 334 334 335 335 337 337 336 335 334 334 333
333 334 333 333 332 330 331 332 332 333 333 333 333 335 335 334 334 333 333 333 335 338 346 350 349 347 349 345 343 340 336 336 336 336 336 335 335 336 336 336 335 334 333 331
337 335 336 336 333 332 333 332 332 333 334 334 335 335 336 335 334 334 335 335 336 336 341 346 349 351 348 344 343 339 336 336 335 337 337 336 336 337 337 334 334 333 333 332
340 341 338 338 336 337 334 333 333 333 334 335 336 335 335 333 332 334 335 337 339 338 337 344 347 347 345 344 342 335 335 336 335 337 337 336 336 336 336 335 334 333 332 333
334 341 339 339 337 337 336 336 334 335 336 335 335 335 335 332 333 334 335 338 341 341 341 342 344 345 344 343 338 334 334 334 336 337 337 337 336 336 336 335 334 332 333 332
334 337 339 338 339 339 337 336 335 335 337 335 335 335 333 333 335 342 340 339 341 342 343 343 343 344 344 340 333 333 335 335 335 337 336 336 335 334 335 334 334 333 332 331
337 336 335 333 336 336 334 336 336 340 341 336 333 333 332 334 335 341 339 340 341 342 344 344 343 343 342 336 333 336 336 336 337 336 335 335 334 334 334 336 334 331 333 332
340 337 334 334 335 338 335 335 336 343 337 336 335 334 333 333 334 335 339 341 341 343 343 343 342 340 337 335 336 337 341 339 337 337 335 334 334 335 331 332 335 335 332 332
338 341 342 342 342 342 337 339 336 335 336 335 335 334 334 334 333 334 338 342 342 342 341 340 340 338 336 336 339 341 342 342 341 339 337 336 337 333 332 332 336 334 331 330
336 335 334 337 338 336 333 333 334 334 334 334 334 335 335 335 336 337 340 342 342 341 340 338 338 338 339 341 343 344 343 342 342 341 341 340 337 336 335 335 332 330 329 328
333 334 333 333 335 334 334 331 331 332 333 334 334 335 336 337 336 339 342 343 342 341 340 339 339 338 338 340 341 341 342 343 341 338 336 334 332 333 331 333 330 327 324 323
330 330 332 335 332 332 333 328 329 331 332 333 334 337 338 339 340 339 340 338 338 338 337 337 335 335 339 338 339 338 338 337 336 335 333 331 330 328 327 328 325 321 321 320

GFSCGP_925_thetae_009.txt.gz
Theta_e
323 330 331 330 328 329 337 337 343 343 341 343 343 350 351 348 347 347 348 349 350 351 351 352 351 349 350 349 351 352 354 353 356 355 352 353 352 351 351 349 350 352 349 348
325 331 332 332 331 332 332 342 343 342 343 343 343 347 346 348 346 347 348 347 347 346 354 354 353 351 352 352 353 354 355 357 356 356 354 355 356 354 353 349 349 352 349 349
325 332 333 332 330 331 331 332 337 343 346 344 347 350 352 348 346 347 348 346 345 349 352 353 354 353 355 356 355 355 354 353 355 353 355 357 349 352 348 347 351 346 343 338
327 330 331 330 329 330 329 331 331 333 345 346 346 354 351 347 344 347 348 347 346 347 346 347 347 349 358 355 355 356 354 352 354 357 358 356 351 341 343 342 337 335 333 335
328 329 329 330 330 329 328 330 329 329 330 334 339 335 348 344 344 344 344 348 346 346 346 347 347 348 354 356 354 354 356 355 357 357 342 342 336 334 336 337 336 331 336 337
327 328 328 329 330 330 331 329 331 327 326 328 330 333 349 348 345 343 344 345 345 346 346 346 348 349 353 355 355 353 357 360 355 347 337 335 332 335 334 335 333 335 336 335
327 327 326 327 327 328 329 327 333 332 331 330 328 330 342 345 344 342 344 343 340 344 346 346 347 348 353 356 358 357 360 352 347 340 337 336 335 335 333 336 337 337 334 337
327 326 326 327 325 325 326 328 335 339 337 335 333 336 339 345 344 343 343 341 340 339 344 345 344 346 352 355 359 360 357 350 344 342 339 334 335 334 337 341 340 336 331 335
325 327 327 328 329 327 328 330 329 331 335 332 336 337 340 342 342 344 345 341 339 338 342 344 344 345 351 354 359 358 356 347 345 340 336 334 336 337 340 339 338 333 339 336
325 328 327 329 328 328 328 330 330 328 334 337 334 342 340 337 337 336 346 342 340 339 344 344 344 346 350 355 357 356 353 346 344 343 337 339 341 340 337 338 337 335 334 333
325 325 329 328 327 327 330 330 329 329 330 332 338 340 342 340 336 334 331 337 339 341 342 346 347 348 351 355 354 353 350 347 345 342 339 341 342 339 337 338 337 336 335 337
326 327 331 328 329 329 328 328 331 335 334 335 337 340 337 338 335 334 336 336 335 336 340 344 344 347 352 354 353 352 351 348 344 342 341 342 336 335 336 337 336 335 335 335
327 328 329 335 329 328 328 328 328 333 329 331 340 339 338 334 333 335 334 337 337 337 345 343 339 342 352 353 350 350 350 349 345 340 342 341 339 337 336 336 336 336 335 335
332 328 332 330 334 330 329 330 330 327 328 329 335 340 339 337 341 339 337 334 341 340 351 347 351 352 352 352 348 347 347 347 344 341 341 340 338 336 336 336 336 337 335 335
329 331 331 330 330 329 332 332 330 328 327 333 336 342 337 335 336 335 334 334 335 340 344 351 349 353 351 351 348 345 344 345 343 342 342 340 338 336 337 337 337 338 336 335
329 335 334 333 331 329 329 330 332 332 330 329 330 338 336 336 336 336 334 333 335 336 334 343 352 351 351 351 348 345 342 341 342 342 341 339 338 336 336 337 337 337 336 335
332 336 333 332 331 331 332 333 332 331 331 331 331 336 338 339 338 337 334 333 335 336 337 337 339 349 352 352 349 345 341 339 341 341 339 338 336 336 336 337 337 339 338 337
343 344 334 331 334 334 332 333 334 337 338 336 336 338 336 336 333 332 331 332 333 334 335 336 337 352 353 351 348 344 342 340 337 337 337 336 336 336 336 337 338 337 337 335
340 340 344 340 333 333 335 333 338 339 339 337 337 339 336 334 339 339 338 334 334 338 339 339 340 354 353 349 346 344 342 338 337 336 336 336 336 336 336 338 338 338 337 335
341 341 343 342 344 348 335 338 337 339 342 337 335 337 340 333 345 342 338 338 338 338 340 340 341 350 350 348 345 343 341 340 341 336 338 337 338 338 339 339 338 338 337 335
342 340 340 341 344 341 338 340 336 341 339 337 335 333 336 338 340 340 337 338 337 337 341 343 343 352 350 348 346 342 341 340 338 338 339 339 339 339 338 338 338 339 336 336
343 342 339 340 341 343 339 340 346 341 339 339 339 337 335 334 333 334 332 340 338 337 343 344 351 352 350 347 345 341 341 340 339 340 340 340 340 340 339 339 339 338 337 334
348 344 349 350 348 340 338 336 334 333 335 335 334 333 334 333 334 333 333 331 337 338 344 346 351 346 343 343 342 336 327 334 337 343 342 342 341 340 341 340 338 335 331 330
341 338 342 344 341 339 338 334 332 333 335 334 333 332 332 334 333 332 334 334 341 343 341 338 335 332 330 330 334 332 330 331 327 327 332 328 326 341 340 337 334 333 332 331
338 339 339 340 338 339 334 332 334 334 331 331 333 332 332 333 337 339 336 342 341 341 340 339 336 336 338 333 332 331 329 328 327 326 325 323 339 338 337 335 332 330 324 324
336 338 342 337 337 336 334 330 327 327 327 326 326 330 332 333 339 342 345 340 338 337 339 337 333 332 332 335 331 329 326 324 327 326 327 337 337 337 334 329 326 322 322 320

GFSCGP_925_thetae_012.txt.gz
Theta_e
319 320 321 324 326 327 332 340 341 341 339 350 352 353 353 350 349 349 348 348 349 348 345 346 347 347 347 347 347 347 350 352 355 354 353 353 356 354 352 351 351 352 351 349
319 321 323 329 330 329 328 337 342 341 339 339 351 354 351 351 351 351 351 351 350 350 348 348 349 349 348 347 346 348 352 353 355 355 353 351 352 352 352 352 350 350 348 347
319 322 327 331 331 332 329 339 341 340 341 341 350 351 350 350 350 345 349 351 351 352 351 349 350 351 349 349 349 351 353 354 356 354 354 354 354 354 353 348 348 351 346 339
320 322 327 331 332 330 326 330 339 343 344 347 343 354 349 347 346 343 346 348 349 352 351 351 350 349 352 351 350 353 354 355 355 356 353 355 351 350 344 347 339 335 332 334
321 323 324 327 331 329 327 327 327 342 343 339 347 348 350 344 344 343 342 346 345 352 352 353 351 350 352 353 351 353 353 352 351 352 353 357 353 340 342 337 335 332 336 336
320 325 325 327 328 327 328 327 325 324 325 335 342 343 337 349 344 341 340 346 345 350 352 352 352 350 353 354 354 353 354 352 352 355 355 350 337 335 336 336 335 335 336 333
322 322 325 327 325 325 326 322 324 327 327 326 321 346 344 344 344 341 340 347 345 347 348 351 349 350 355 355 356 356 354 353 354 357 343 338 333 333 332 331 332 337 336 338
322 323 324 324 324 324 322 321 325 330 332 329 327 330 329 339 342 340 340 346 345 346 345 346 344 348 354 355 355 357 355 354 358 351 338 332 333 334 332 335 336 336 334 335
320 323 324 324 325 323 324 325 324 327 329 329 330 331 336 338 341 340 340 345 344 346 345 345 345 346 352 354 355 356 356 355 355 349 335 336 334 334 334 337 340 336 332 336
319 321 322 324 324 323 323 323 327 323 330 331 330 334 336 343 342 341 340 340 338 344 345 345 345 346 350 353 355 356 354 353 351 341 339 335 333 331 337 339 338 335 336 335
318 320 322 326 323 324 327 326 324 324 325 328 329 335 332 336 341 342 342 340 337 337 343 345 344 345 350 352 355 356 353 351 348 336 338 335 335 337 336 336 336 333 333 334
318 317 321 322 323 324 323 325 324 327 327 328 329 334 333 334 336 339 340 341 337 336 339 342 343 343 349 351 356 355 352 349 345 331 338 336 338 340 339 338 337 335 334 334
320 318 322 322 322 324 325 325 325 323 323 328 330 331 333 331 330 331 332 332 335 337 342 343 342 342 348 351 355 353 351 349 343 334 339 338 340 342 339 336 336 336 335 334
326 318 320 324 323 325 326 326 325 326 325 326 329 336 336 333 333 332 332 332 334 338 341 343 342 343 348 351 353 352 351 349 343 340 340 339 341 337 335 335 336 335 335 335
321 320 324 324 326 328 327 327 325 325 324 328 326 335 334 335 334 333 331 333 336 335 342 339 341 339 347 351 351 351 350 348 343 342 342 340 341 337 337 334 334 335 335 336
319 322 323 325 326 327 327 327 328 328 327 329 331 333 332 333 332 331 332 331 331 333 340 343 343 340 338 350 350 349 349 347 344 341 342 342 341 339 337 335 335 335 336 337
320 324 324 325 327 328 330 329 329 330 334 330 332 331 333 334 333 331 329 329 330 330 332 331 346 347 347 349 350 347 346 345 344 342 341 341 340 339 337 336 336 336 336 336
328 323 324 327 325 329 325 329 334 337 336 334 333 334 335 334 332 332 328 328 328 329 330 329 329 341 350 351 349 347 342 343 344 341 341 341 340 339 337 336 336 336 336 337
333 335 336 327 325 326 331 334 336 333 336 336 334 336 335 333 334 336 330 328 328 328 329 331 334 337 348 350 349 344 340 343 341 340 340 340 340 339 337 336 336 336 337 338
331 331 336 338 335 331 336 338 337 333 339 334 336 336 335 334 336 335 334 333 333 333 334 335 336 339 351 349 346 342 340 339 338 339 340 340 339 337 337 336 336 336 337 337
336 335 336 338 337 332 338 337 335 337 335 335 331 334 336 336 333 333 334 335 332 334 336 338 341 346 349 347 344 341 339 339 338 338 338 336 337 337 336 336 336 336 338 338
343 346 341 337 337 340 334 335 341 337 330 333 333 334 335 333 333 334 331 334 335 335 336 340 346 345 345 342 341 337 338 339 338 337 338 339 339 338 338 337 338 338 337 334
342 341 346 343 341 335 335 332 332 331 329 331 329 330 330 331 332 331 331 331 330 335 344 342 337 337 341 341 340 338 337 339 338 337 338 338 335 329 334 339 340 337 334 330
338 336 341 341 339 339 337 335 334 332 331 330 330 331 331 332 333 334 332 332 341 338 334 334 334 334 333 336 336 332 331 334 333 332 328 329 328 325 326 330 337 335 332 331
337 336 337 339 338 335 332 330 330 330 328 328 328 328 330 331 337 344 341 339 338 338 336 335 334 332 330 331 331 331 331 331 327 327 328 329 325 330 335 334 333 332 330 327
334 334 336 336 334 333 331 329 325 324 325 322 321 322 323 326 329 342 341 338 337 337 334 334 333 333 333 331 330 328 327 326 326 326 324 325 326 333 330 326 324 322 320 320

GFSCGP_925_thetae_018.txt.gz
Theta_e
315 317 318 321 321 332 337 346 347 346 346 348 349 350 351 348 348 349 348 349 352 349 346 347 347 349 350 350 351 350 351 351 352 351 352 352 352 352 352 351 351 350 349 349
316 317 317 320 323 329 338 342 347 342 343 348 350 352 348 349 348 347 346 346 346 345 342 343 346 346 347 350 350 350 352 352 351 351 352 351 352 351 352 352 351 350 350 350
315 317 318 322 325 326 330 340 338 346 346 346 350 352 349 348 347 346 345 344 344 344 342 342 344 345 345 348 349 350 351 351 351 351 351 352 351 349 350 350 350 349 349 349
315 317 320 323 326 326 327 326 336 342 347 351 346 349 349 348 349 347 346 345 345 344 343 341 343 345 345 346 348 350 349 350 350 349 351 353 352 351 350 348 347 347 349 348
317 317 320 324 325 326 328 326 331 339 344 346 350 346 344 348 351 348 346 344 344 343 343 343 343 344 345 346 346 348 349 348 349 350 352 353 352 350 348 346 345 347 344 335
318 318 318 319 325 327 324 322 322 325 335 345 347 348 343 349 352 349 347 346 345 344 344 344 343 344 345 346 346 346 346 346 347 350 351 352 353 351 348 344 343 342 336 334
317 317 320 321 323 324 320 321 324 333 339 342 336 348 346 338 345 347 346 346 346 345 345 345 344 345 346 346 346 347 346 346 347 349 351 353 353 352 350 345 340 334 333 334
314 317 317 319 321 322 321 321 323 327 331 338 333 349 346 341 338 341 343 343 344 344 346 346 345 345 346 346 347 347 347 347 348 349 352 352 353 351 351 344 338 335 333 333
316 316 318 318 321 321 320 321 320 320 321 324 326 327 329 329 331 335 338 341 341 342 347 347 346 346 346 346 347 347 348 348 349 349 351 352 351 351 348 336 336 334 332 334
316 318 317 319 320 320 320 318 323 317 324 328 325 327 329 330 332 332 334 341 341 340 345 346 347 347 347 346 347 348 348 349 349 349 351 351 350 351 338 332 329 329 333 334
313 315 318 318 318 319 320 320 317 318 319 323 324 325 323 326 327 331 332 338 339 339 342 345 348 348 348 347 347 349 350 350 350 349 350 350 351 344 332 330 329 332 334 334
314 316 318 317 318 318 319 318 319 323 320 320 321 323 325 325 327 332 335 337 335 337 340 343 347 348 348 348 348 349 350 351 351 350 349 349 350 340 330 331 331 334 336 336
315 313 318 317 316 318 319 318 316 315 316 322 325 325 324 327 329 331 335 335 335 337 339 341 343 346 347 347 348 349 350 351 351 349 348 347 348 333 332 331 330 334 336 335
327 312 317 320 319 318 321 321 319 318 320 320 324 324 324 331 330 331 335 334 335 338 339 340 340 343 344 344 347 350 350 351 351 348 347 344 343 334 333 333 334 335 334 333
315 316 314 320 317 319 320 322 321 321 320 323 324 326 326 327 330 330 334 335 335 335 336 340 341 341 341 342 343 347 350 351 350 347 344 339 335 334 333 332 332 332 337 335
316 317 314 320 319 319 321 320 322 323 323 322 323 324 323 326 328 330 333 335 337 335 335 337 339 340 339 340 341 346 349 351 350 344 341 339 336 334 327 333 334 328 334 338
319 316 315 321 318 317 319 320 320 322 322 324 325 326 326 329 329 330 330 333 336 336 335 334 336 337 336 339 341 346 349 351 349 344 340 337 335 331 331 336 331 329 336 338
330 317 314 319 319 322 321 327 321 323 330 329 330 327 328 330 330 329 326 330 332 333 335 335 334 335 336 340 342 344 348 350 348 344 339 336 332 331 334 332 331 331 333 335
325 317 319 321 318 322 335 337 339 332 334 332 333 332 333 330 330 330 326 326 327 329 330 334 335 337 338 339 340 345 348 348 346 342 339 336 333 333 334 335 335 334 333 334
331 324 324 322 322 328 332 333 334 335 334 332 332 332 332 330 332 330 328 327 326 326 326 326 331 336 339 341 341 341 345 345 343 341 340 338 336 334 336 337 336 335 334 334
338 337 335 333 334 334 333 334 333 335 334 330 331 331 331 334 329 330 331 331 329 331 333 334 335 338 339 342 344 343 342 342 342 342 341 339 337 336 337 337 336 335 335 335
341 342 342 337 337 338 331 333 334 332 329 330 333 332 330 329 329 330 331 335 337 337 339 340 340 340 342 343 345 341 340 341 342 340 339 339 339 339 338 337 336 336 337 335
339 339 342 337 333 330 330 331 329 328 328 329 329 328 337 338 338 337 337 338 338 336 335 337 337 336 337 339 342 339 337 338 339 339 338 338 337 337 337 337 337 335 331 326
337 334 336 337 334 333 330 326 326 325 324 323 323 323 325 334 337 338 338 337 336 334 335 335 335 333 333 338 339 339 337 338 338 336 336 337 337 336 335 332 327 324 323 326
335 336 337 336 335 331 329 328 327 325 324 324 323 322 323 324 326 331 338 339 337 334 334 335 334 332 331 335 336 337 338 337 336 335 333 330 329 327 327 327 327 328 328 328
325 333 337 337 332 331 329 326 325 323 323 322 321 320 321 322 323 332 336 336 337 335 333 332 332 333 332 334 336 336 336 336 336 332 327 326 327 327 326 325 323 328 329 329

GFSCGP_925_thetae_021.txt.gz
Theta_e
321 321 322 326 335 337 342 345 347 350 348 349 351 352 352 355 356 356 357 357 355 356 353 353 353 354 354 353 353 353 353 354 355 354 354 354 354 354 355 354 349 348 348 347
321 321 322 324 330 337 344 346 347 348 349 348 350 350 351 352 356 355 356 356 356 356 355 354 353 353 353 353 353 354 353 353 352 355 354 354 355 354 354 354 352 351 350 350
321 321 321 323 326 329 342 345 347 347 348 350 350 351 352 352 351 352 352 352 352 354 354 352 351 352 352 352 353 353 353 351 350 353 355 354 352 352 353 353 353 352 349 349
319 320 320 323 326 329 333 340 345 347 350 352 350 353 352 353 354 352 351 350 349 349 350 349 349 350 350 351 353 353 352 351 351 353 354 355 353 353 353 352 351 353 349 348
324 319 321 322 325 328 332 335 341 346 349 349 352 354 349 353 356 354 352 350 349 348 348 348 347 347 348 350 351 352 352 350 351 353 353 354 354 354 354 350 347 346 348 349
324 319 321 323 325 328 329 332 335 342 345 351 347 352 345 352 354 352 350 350 349 348 347 347 346 346 348 348 349 351 352 349 350 353 352 353 353 354 351 348 346 346 345 344
324 323 322 322 325 329 330 334 338 341 348 342 341 353 348 344 347 348 349 349 348 348 347 348 348 347 348 349 349 349 350 350 351 353 353 353 354 355 352 349 345 343 342 340
327 325 323 322 324 327 329 330 335 341 340 338 338 349 346 345 344 344 347 348 348 348 348 348 351 349 349 349 349 349 349 350 350 351 352 353 354 354 352 350 346 342 340 338
327 326 320 322 323 329 329 330 331 332 328 336 338 341 337 340 341 342 344 345 348 348 349 348 348 348 349 349 349 350 350 350 349 351 351 353 353 353 351 350 348 342 337 337
324 325 322 321 323 324 327 328 328 330 338 335 333 335 333 339 340 342 343 343 345 347 349 349 350 350 349 349 350 350 350 349 349 351 352 353 353 351 351 350 346 338 336 334
326 323 322 322 322 324 324 326 327 330 332 337 336 333 336 339 340 340 340 341 342 345 348 350 352 350 350 350 350 350 351 351 351 350 351 352 351 350 350 349 338 333 332 331
324 326 327 323 323 322 323 325 328 332 334 330 332 333 332 335 337 338 338 338 340 343 345 348 349 349 350 351 350 350 351 351 351 351 352 350 348 348 348 345 333 328 331 333
321 324 327 327 325 322 323 324 325 326 328 338 331 331 335 333 335 336 336 341 343 344 345 347 349 353 353 352 351 351 351 351 351 352 352 349 344 347 349 341 330 331 334 335
324 326 327 328 328 326 325 323 324 324 329 328 330 330 331 333 338 340 341 341 343 345 345 347 349 353 353 353 353 352 351 351 352 353 351 347 342 344 346 333 331 330 330 327
332 335 331 331 328 326 325 323 323 325 327 329 328 331 333 335 337 342 345 344 344 344 345 349 349 353 354 354 353 352 352 352 352 354 351 348 342 342 338 333 329 326 337 331
326 331 329 332 330 327 326 325 324 324 324 327 327 332 333 336 336 336 340 341 345 346 346 347 348 349 352 352 351 351 352 353 354 353 351 346 342 341 337 334 330 326 335 331
335 328 328 328 329 325 326 326 326 326 326 327 330 331 336 333 335 339 343 342 345 347 347 346 348 351 349 348 348 349 351 353 354 352 350 344 342 341 338 333 332 332 331 333
337 334 328 332 326 326 326 326 326 326 326 327 328 332 335 335 336 338 340 342 344 344 346 345 343 345 346 345 346 348 351 354 353 351 347 345 343 342 340 336 333 333 335 335
337 335 338 336 332 328 332 336 327 325 329 330 332 333 337 336 333 337 334 334 339 340 342 342 340 341 342 344 347 350 352 353 352 350 347 345 344 343 339 335 334 335 336 336
335 336 339 336 333 332 333 336 336 337 332 337 338 340 340 337 338 339 335 334 336 338 341 343 342 343 344 343 347 350 352 352 351 350 347 345 343 342 339 337 336 336 335 336
343 347 342 341 336 334 338 337 336 338 337 337 337 338 338 340 339 338 336 338 338 337 339 340 343 345 346 346 346 349 350 351 351 349 347 345 342 340 339 338 337 337 337 338
343 346 348 344 342 338 335 336 341 339 337 337 337 338 339 339 341 343 343 345 345 346 346 345 346 347 346 347 349 349 350 350 349 346 345 344 343 341 340 338 339 339 339 339
342 342 346 343 341 335 331 335 333 333 336 337 343 343 345 344 344 344 345 344 344 344 344 343 345 345 346 346 346 346 341 343 344 346 345 341 340 340 339 338 339 339 338 340
340 337 343 342 337 332 329 328 327 327 328 328 330 333 336 340 341 344 344 344 344 343 343 343 345 345 344 343 341 342 342 343 344 344 343 343 343 342 341 340 340 339 337 336
332 339 339 339 335 332 328 329 328 327 325 325 326 328 334 340 342 344 345 345 344 343 341 340 342 343 340 340 340 340 340 339 341 342 342 341 339 337 332 332 330 331 329 329
326 334 340 340 335 335 330 328 326 326 325 325 325 325 327 331 337 341 342 342 342 342 340 341 340 340 338 337 338 338 337 338 339 338 337 336 334 331 328 326 323 326 327 329

GFSCGP_925_thetae_024.txt.gz
Theta_e
323 325 326 328 332 337 339 341 341 343 349 351 350 351 351 353 353 353 354 353 352 352 351 351 352 352 353 354 354 354 354 354 356 356 355 354 354 353 355 355 355 354 353 351
323 324 327 329 330 334 336 340 341 345 349 350 349 351 350 350 355 353 352 353 353 352 353 352 352 352 353 354 355 355 355 356 358 356 355 354 354 353 353 354 355 355 355 354
324 323 326 327 330 334 338 340 341 345 350 349 348 350 350 347 350 354 353 351 352 353 352 353 352 353 353 354 356 356 357 357 358 357 357 357 356 356 355 354 354 353 355 355
324 324 324 325 327 332 338 338 340 344 350 352 350 350 346 348 351 353 355 351 351 353 353 352 352 352 353 353 355 357 358 359 358 359 356 356 355 352 349 350 348 349 352 353
324 323 323 324 325 330 334 336 339 342 347 347 350 353 347 347 351 352 354 352 349 349 349 349 350 348 350 352 353 356 358 359 359 358 358 357 357 352 352 352 353 351 351 353
325 325 323 324 325 326 331 334 337 340 343 348 346 349 348 348 352 349 350 352 349 346 346 346 345 346 348 349 351 353 357 360 360 359 360 359 356 355 352 354 353 347 345 348
326 325 323 323 324 325 329 334 343 345 345 347 345 346 346 342 341 345 344 349 350 348 346 346 346 345 345 347 349 352 356 361 360 359 358 359 359 358 357 357 354 345 343 343
328 326 325 323 324 326 328 334 340 344 343 344 343 344 343 343 342 341 340 343 348 350 349 347 348 347 347 348 350 352 356 360 360 358 358 358 359 358 357 357 352 347 341 341
328 328 325 325 324 326 328 334 335 338 339 341 339 341 340 339 341 340 340 341 345 349 350 349 349 349 349 350 353 355 357 360 360 357 359 359 359 358 355 356 356 349 345 341
328 329 326 325 325 325 328 331 335 337 343 342 339 339 340 340 339 338 337 339 342 345 349 349 350 349 350 350 352 354 357 359 358 356 357 357 358 358 357 357 356 350 346 342
328 328 328 326 326 325 326 330 333 335 336 340 340 338 336 336 337 336 335 336 337 340 346 349 350 349 350 351 352 354 356 357 357 357 357 357 356 357 358 356 354 350 345 341
328 329 329 326 325 325 326 329 333 337 341 337 338 338 335 336 336 335 335 335 335 337 342 346 350 350 349 352 352 353 355 356 357 356 358 357 356 357 357 355 351 346 342 335
329 331 332 329 324 324 325 327 329 333 334 342 339 338 336 334 335 336 337 338 338 347 346 346 349 352 352 352 354 353 354 355 355 356 357 357 357 357 354 351 347 341 329 333
327 331 332 332 328 325 324 324 327 329 336 335 336 338 336 335 335 335 336 336 338 342 349 350 350 352 353 353 357 356 354 354 354 355 356 358 358 355 352 351 345 337 334 333
324 330 331 330 329 328 328 325 324 325 327 331 331 334 335 335 334 334 334 334 336 346 350 352 352 353 356 355 357 356 355 354 354 355 356 357 358 354 351 352 345 335 335 329
329 334 335 334 330 329 329 328 327 325 325 326 328 330 332 333 334 334 334 334 337 344 350 351 353 354 356 356 357 357 356 355 355 356 357 358 357 351 352 350 345 340 337 328
328 330 336 336 334 333 333 331 330 329 327 325 327 328 329 330 332 335 339 337 338 339 348 351 353 354 356 355 356 357 356 356 357 357 359 358 356 353 351 350 347 342 337 335
334 337 334 337 335 337 333 332 331 330 329 328 326 327 328 330 332 333 341 339 340 340 342 349 351 352 353 353 355 354 356 357 358 359 359 357 356 352 351 350 347 343 338 336
330 338 337 339 338 334 332 331 332 332 332 330 328 328 328 330 333 338 339 340 343 343 344 347 348 349 351 351 352 353 354 357 358 358 358 356 353 352 351 350 348 344 341 338
331 335 341 341 339 340 343 341 339 340 337 331 330 329 330 330 334 337 339 341 340 340 344 348 346 347 350 350 351 354 356 357 357 356 356 354 352 352 351 348 347 344 342 340
340 341 341 339 340 338 341 338 338 339 337 343 332 331 330 333 335 343 341 342 342 344 347 346 347 348 350 350 353 355 355 356 355 355 354 353 352 351 349 348 345 343 342 340
340 340 338 339 342 343 337 339 341 345 345 342 342 341 341 341 344 345 347 347 347 349 349 350 352 352 349 353 354 355 355 355 355 355 354 352 351 349 347 345 343 341 340 339
339 336 336 342 342 338 335 339 337 338 342 347 343 342 343 344 345 347 348 349 349 348 349 349 351 352 353 353 354 355 355 355 354 353 352 350 347 347 345 343 343 341 340 340
343 340 341 342 338 337 334 331 332 334 335 338 343 344 344 344 343 344 344 345 346 346 347 346 349 352 353 352 353 351 351 351 350 351 349 347 346 344 342 343 342 342 341 340
337 341 342 340 337 332 333 333 330 330 331 332 336 340 343 345 346 347 349 348 348 349 349 349 351 352 352 352 350 350 349 350 349 348 347 344 342 340 339 337 336 336 337 337
326 333 341 339 335 336 334 330 328 330 330 330 331 333 333 335 338 342 347 348 349 348 348 348 349 349 347 348 346 345 348 347 346 346 345 343 342 341 340 335 327 329 328 327

GFSCGP_925_thetae_027.txt.gz
Theta_e
325 325 327 331 333 337 341 343 343 344 341 347 348 348 349 352 352 349 348 348 347 347 349 348 349 347 349 350 351 353 353 353 354 354 354 353 353 353 354 352 354 354 355 355
326 325 327 331 332 335 338 342 342 340 343 345 347 349 347 352 352 351 349 348 347 346 348 349 350 349 350 351 353 354 355 356 357 355 354 352 350 350 353 352 350 357 354 355
325 325 326 330 332 335 336 341 342 340 348 347 347 349 348 347 350 352 350 348 348 347 347 350 351 350 351 352 354 356 358 358 358 356 355 354 356 354 352 347 347 348 351 349
325 326 326 329 331 334 336 337 338 339 349 351 345 351 349 347 348 350 352 351 348 348 347 348 351 351 350 351 354 357 360 360 360 358 357 355 354 351 347 347 347 347 348 347
326 325 326 327 330 333 335 336 338 340 344 349 345 347 346 345 347 346 350 352 350 348 348 347 348 350 350 351 353 356 360 362 361 361 357 357 355 349 349 348 352 351 350 348
327 327 326 327 329 331 333 336 339 339 341 348 347 350 347 348 348 346 348 350 351 348 349 349 347 348 349 350 351 354 360 364 364 362 362 361 358 353 351 349 353 349 345 348
327 327 326 326 327 329 331 335 340 341 342 344 347 349 353 345 345 345 344 346 349 350 348 349 349 348 349 350 351 352 359 365 366 365 363 362 361 360 357 356 352 349 344 343
329 329 327 326 326 328 330 333 338 343 341 341 341 348 345 344 343 343 341 342 345 350 349 348 348 346 347 349 352 353 356 365 367 366 364 363 363 359 357 355 352 349 344 342
330 330 328 327 326 326 329 334 333 337 338 341 341 341 341 343 342 342 342 341 340 347 349 349 347 346 344 347 351 353 355 363 366 365 366 364 363 361 355 353 355 353 346 342
329 331 330 328 327 325 327 330 334 337 345 346 340 341 344 344 341 341 341 339 338 340 345 348 348 348 346 345 348 352 355 363 365 364 366 364 363 363 360 359 358 354 349 343
328 330 330 329 328 327 325 329 331 333 337 341 342 342 340 342 341 340 339 338 338 338 341 346 349 348 349 348 348 352 357 361 365 365 364 362 362 361 361 359 359 357 353 347
328 329 332 331 329 328 327 327 329 340 340 337 340 339 338 338 339 338 338 338 337 337 338 341 346 349 349 352 349 350 353 357 362 362 364 363 363 361 361 361 360 359 355 350
328 330 332 333 330 329 328 327 327 329 334 344 343 339 338 337 337 337 337 337 338 337 340 342 342 348 354 355 354 352 353 353 356 361 362 364 364 363 361 361 360 359 355 350
330 329 331 333 333 330 329 327 327 328 334 336 338 339 338 338 338 337 337 336 337 337 339 346 346 342 353 354 357 356 354 352 354 357 359 363 365 364 362 362 360 358 353 348
327 332 331 330 331 331 328 327 326 327 329 333 335 336 338 338 338 338 337 337 337 336 337 347 351 350 359 357 360 358 358 356 354 358 360 363 365 364 364 361 359 357 352 346
327 332 333 334 331 331 331 327 326 326 327 329 330 333 336 337 337 338 337 336 336 336 336 344 352 352 358 360 361 362 359 359 358 360 361 363 365 365 363 360 359 356 351 345
328 329 331 333 332 332 332 331 330 328 327 327 329 330 332 332 334 337 344 338 337 338 337 336 351 355 360 357 360 362 362 360 360 363 362 364 366 365 362 359 358 356 350 345
328 332 332 334 335 337 333 331 330 330 330 330 330 329 329 330 333 335 337 336 338 339 338 340 344 353 353 355 357 359 360 362 363 363 364 365 364 364 360 357 358 356 352 347
327 330 332 334 335 336 333 333 333 332 333 332 332 332 331 330 329 333 334 336 340 341 341 342 335 347 352 355 358 361 362 362 364 364 365 364 363 362 359 356 356 355 353 348
329 333 335 335 335 336 334 340 340 338 337 334 334 336 332 331 330 334 334 332 334 336 337 338 339 343 352 356 356 361 362 364 365 363 364 363 361 359 357 355 355 354 352 349
329 333 334 339 338 335 344 340 338 339 339 346 344 343 341 338 333 332 335 336 339 340 342 341 345 349 357 356 358 362 361 362 362 361 361 360 358 357 357 354 354 350 347 344
331 334 333 335 338 345 341 340 340 345 348 348 346 343 343 344 334 333 344 345 345 345 346 346 351 352 355 357 361 363 365 362 360 358 358 358 357 356 355 352 350 347 344 345
332 332 332 334 337 344 341 345 342 341 344 347 347 344 343 343 342 344 348 348 348 350 351 349 352 357 355 359 362 364 363 360 359 358 358 358 356 353 351 348 346 345 344 344
331 331 339 345 344 342 339 338 338 339 342 344 344 344 344 344 346 348 350 351 352 353 356 356 355 359 362 360 361 361 360 359 358 358 355 353 351 350 348 346 344 345 344 343
333 332 344 346 341 340 337 336 336 337 341 344 345 346 348 348 347 347 349 349 349 350 351 353 355 357 357 356 356 357 357 356 355 353 351 349 349 348 344 337 340 344 340 341
329 333 345 346 340 342 338 336 334 335 336 337 338 339 340 345 349 350 350 350 351 351 351 353 354 355 355 355 354 355 354 353 351 350 348 346 345 343 342 338 331 331 330 334

GFSCGP_925_thetae_030.txt.gz
Theta_e
327 327 327 327 329 332 334 339 341 345 345 343 351 353 353 345 347 344 343 345 345 347 347 347 347 348 349 350 353 353 354 352 358 358 357 354 355 352 353 347 354 354 351 354
327 326 326 328 330 332 334 338 343 345 347 348 345 356 354 349 348 346 345 345 345 346 348 349 349 349 349 351 353 356 355 357 354 356 352 352 353 355 354 353 352 353 353 351
326 326 326 327 329 333 334 337 341 344 346 344 344 345 348 350 349 347 347 347 345 346 346 351 351 350 349 353 355 356 356 358 355 356 352 354 356 355 356 356 353 356 355 350
327 326 326 325 328 332 334 335 338 342 345 348 344 348 351 348 353 350 347 346 347 346 346 347 350 352 350 353 356 357 358 358 359 353 359 356 354 357 350 346 346 348 353 348
327 326 326 325 326 331 334 335 337 338 343 348 350 350 350 351 351 352 348 348 347 348 346 346 349 351 351 352 356 359 360 360 361 354 359 359 356 349 352 348 350 348 349 347
328 328 326 326 326 329 332 334 336 337 339 347 350 346 351 352 351 348 348 345 351 347 348 347 347 350 352 352 355 358 362 363 362 362 356 358 357 353 352 350 354 352 351 348
328 328 328 327 326 328 330 333 339 341 343 342 344 352 352 348 348 346 345 347 351 351 349 350 349 350 353 353 353 358 364 365 364 364 364 355 358 358 350 355 356 352 347 349
329 329 327 328 326 327 328 331 338 344 344 343 341 345 351 349 346 344 345 344 348 350 351 351 351 350 353 353 354 356 363 366 366 365 366 364 356 363 360 355 356 351 350 347
331 330 329 328 328 327 328 330 331 335 337 341 341 341 343 346 345 347 347 344 343 346 350 351 353 352 351 354 354 355 364 366 367 368 367 366 366 361 362 359 354 356 349 348
330 331 330 329 328 327 327 329 330 332 341 345 342 344 346 352 348 346 345 344 345 343 350 350 349 352 350 352 354 355 358 367 368 368 369 367 367 366 362 359 357 352 354 349
328 331 330 331 330 328 326 326 328 330 335 341 344 344 343 346 350 348 346 344 344 340 347 350 350 349 350 350 353 355 357 364 368 369 369 368 367 368 364 361 358 360 352 352
328 329 333 330 331 330 328 329 328 331 341 336 338 341 338 347 347 347 344 344 343 342 341 343 350 351 350 349 351 353 356 357 365 368 368 368 368 367 367 361 363 361 357 357
331 330 333 332 330 331 330 328 326 326 328 339 339 339 339 341 342 343 343 342 344 346 346 345 347 352 353 351 349 351 353 355 360 366 367 368 368 367 366 365 360 362 360 359
332 330 333 332 333 331 333 330 329 327 329 331 336 338 339 342 344 344 343 343 343 348 352 350 349 351 353 352 352 351 352 355 357 364 365 366 368 367 366 365 364 362 363 361
329 332 331 330 328 331 331 331 329 330 331 332 332 339 338 339 344 343 344 344 345 346 347 354 351 355 361 357 355 353 353 354 356 360 364 366 368 367 366 365 365 363 363 362
329 334 330 331 329 329 331 331 331 331 330 330 331 332 335 338 340 346 340 341 345 346 345 352 359 360 362 364 360 356 355 355 355 357 362 363 366 368 368 366 365 364 363 361
332 330 336 335 331 331 332 333 332 330 331 330 331 333 335 336 338 343 346 340 347 345 344 348 358 360 362 363 362 359 357 358 355 359 360 362 365 368 368 367 365 365 363 359
335 335 333 335 336 338 332 331 331 333 330 328 329 331 332 335 336 336 340 344 345 346 344 347 342 355 358 356 358 363 360 361 360 361 363 364 367 369 369 367 366 364 362 357
329 334 332 336 334 332 333 332 332 333 336 333 332 333 332 331 332 334 334 336 340 342 346 348 340 338 353 354 356 360 365 362 363 363 368 368 369 370 369 367 365 362 361 355
326 335 335 335 334 335 335 331 332 332 338 337 335 336 334 337 336 334 336 334 335 335 336 344 340 337 341 355 357 363 364 366 364 367 366 369 370 369 367 365 362 361 360 355
328 332 331 332 334 332 332 333 337 341 345 347 343 342 340 341 345 349 345 340 334 336 338 336 339 346 353 356 358 365 366 368 366 367 368 369 368 368 366 361 358 357 356 354
331 332 330 334 338 336 336 339 340 350 350 348 347 345 344 345 344 344 346 343 344 351 348 343 352 354 362 359 365 368 369 368 367 366 368 367 366 363 361 358 353 355 354 350
331 328 333 335 337 347 341 348 345 343 345 346 346 343 342 342 342 341 350 351 347 348 352 350 352 370 364 368 368 369 371 367 367 366 365 363 360 358 356 354 353 349 348 346
335 334 337 334 335 343 342 340 341 342 344 344 345 344 343 343 342 345 350 351 351 354 359 358 363 369 372 368 368 369 367 364 363 363 362 361 357 353 351 350 348 346 345 345
334 332 337 340 348 343 341 340 340 342 344 345 348 349 352 354 355 355 358 359 356 360 363 360 367 368 369 368 366 365 364 363 362 361 356 353 351 349 344 342 345 345 345 345
330 332 336 348 335 336 343 339 340 341 342 343 345 347 348 350 351 351 353 356 357 360 359 361 360 359 361 360 359 358 360 360 357 352 351 349 346 341 339 339 337 338 340 339

GFSCGP_925_thetae_033.txt.gz
Theta_e
322 323 324 323 322 324 327 329 330 339 343 348 350 347 342 339 339 340 345 345 345 344 343 346 346 349 350 350 351 350 352 356 355 354 354 354 356 352 351 351 354 353 352 353
323 324 324 325 325 325 326 328 330 345 343 342 349 348 344 343 342 341 343 344 344 344 343 345 346 347 349 351 352 350 351 352 356 354 353 354 354 352 349 348 351 354 352 348
324 324 325 325 325 326 326 327 330 347 345 344 344 350 347 341 343 343 342 343 343 343 344 345 345 347 349 350 352 353 351 352 356 355 355 353 350 350 352 353 353 353 353 350
324 324 326 325 324 325 326 328 332 344 345 350 345 359 352 347 347 346 344 341 342 342 343 344 346 347 349 352 352 352 352 352 355 356 355 353 353 357 356 356 354 355 353 353
324 325 325 324 324 324 326 329 332 332 343 346 346 350 353 351 353 348 345 342 341 341 342 345 346 347 349 351 353 355 353 353 355 354 354 352 351 354 354 353 351 353 354 349
325 326 325 324 324 324 325 327 329 330 334 347 344 350 346 344 352 349 345 344 342 341 341 342 346 348 348 352 355 356 355 355 356 355 352 358 357 353 349 347 351 354 352 348
324 325 325 326 323 323 323 322 328 331 334 336 343 346 346 341 344 350 347 344 343 343 342 341 345 347 349 350 357 358 357 357 357 356 353 353 359 356 350 354 350 349 348 347
327 325 325 325 323 322 322 321 326 332 335 335 335 349 345 344 343 344 345 344 342 343 344 342 342 346 349 350 355 359 359 359 359 358 355 350 355 360 354 352 356 352 348 346
327 327 327 326 326 323 323 322 323 325 329 333 335 335 341 343 344 343 341 341 341 342 345 344 343 345 349 350 355 357 361 360 361 361 358 354 351 353 359 359 352 355 350 347
324 328 327 327 326 325 322 324 323 324 326 333 333 335 341 345 345 344 343 343 343 341 342 346 345 344 350 351 352 357 363 362 362 361 362 361 356 355 356 359 360 352 355 350
323 324 327 328 326 324 322 322 321 323 326 328 333 334 334 342 344 346 344 343 344 343 342 344 346 345 349 351 352 354 362 363 363 363 362 363 364 360 358 358 361 354 353 354
324 324 326 326 328 326 325 322 320 323 327 328 327 329 332 339 344 344 343 342 342 342 343 342 346 347 347 351 352 354 363 363 365 364 364 364 364 365 365 361 359 357 355 354
325 325 325 326 325 326 325 325 322 321 320 324 328 330 329 331 342 343 343 341 342 340 336 340 345 348 348 351 353 354 360 364 364 365 366 366 366 365 367 365 362 358 356 354
335 326 325 326 326 328 330 326 325 322 322 321 323 323 328 337 340 340 339 338 339 341 339 339 346 345 347 348 352 353 355 361 364 366 366 367 366 366 366 366 363 362 359 358
321 326 327 325 327 328 327 329 327 325 324 323 322 323 325 327 339 340 337 335 336 340 343 340 345 346 346 346 349 352 354 355 362 364 366 366 366 366 367 366 365 361 362 360
319 329 330 330 328 326 327 328 327 327 326 325 325 326 328 328 340 340 340 337 340 342 345 345 342 347 348 347 347 349 352 354 354 362 364 365 365 367 367 366 365 365 360 362
320 323 331 329 329 330 330 326 327 329 328 327 326 325 327 328 332 335 339 336 335 335 340 344 346 345 348 351 349 349 350 351 354 354 361 363 364 366 366 366 365 365 362 363
322 322 327 330 331 333 331 328 327 329 331 329 327 327 328 328 332 336 339 337 340 339 337 338 349 348 350 359 352 351 351 351 354 356 357 361 362 365 367 366 365 365 364 364
322 323 328 331 330 329 332 330 332 329 329 331 332 328 328 327 328 327 329 332 328 332 334 339 340 350 353 360 358 353 353 354 353 356 357 361 363 365 367 367 366 365 364 362
321 322 328 329 329 330 330 332 330 330 334 342 337 333 329 328 328 327 341 339 333 332 330 333 338 337 353 353 361 357 355 357 355 354 358 359 363 365 367 367 366 365 364 361
324 326 329 331 328 329 332 329 328 333 336 348 344 344 344 344 345 342 342 341 340 332 331 331 332 336 343 352 359 362 359 357 361 359 364 364 366 368 368 366 365 364 361 360
332 332 331 329 334 335 342 334 345 350 347 347 345 344 342 341 340 340 347 346 345 348 348 346 338 342 345 344 358 359 362 361 360 366 367 370 369 368 365 363 362 361 358 354
331 333 338 336 335 343 342 344 342 343 348 345 346 342 341 342 341 348 350 349 345 345 346 350 362 368 370 360 359 362 366 366 366 369 369 368 366 363 362 359 357 356 355 351
332 330 337 338 336 337 335 337 337 341 343 349 351 352 352 356 356 356 356 355 358 358 360 364 365 365 366 370 369 370 368 368 367 365 362 359 359 356 355 353 353 352 348 347
332 331 331 335 334 337 340 331 336 341 349 350 350 351 353 353 354 354 355 357 359 359 362 364 363 365 366 367 366 366 366 365 362 360 355 352 350 349 348 348 348 348 347 346
329 330 332 336 332 336 335 329 329 345 345 343 346 348 349 350 352 350 350 352 354 355 356 358 362 362 364 364 363 362 361 359 355 351 350 344 341 342 343 342 339 342 344 345

GFSCGP_925_thetae_036.txt.gz
Theta_e
318 321 324 321 319 320 322 323 324 328 337 343 343 343 346 348 349 350 349 349 348 347 344 344 350 350 348 348 350 351 352 350 348 348 347 348 348 347 352 354 351 351 350 351
319 319 321 322 321 321 321 322 323 341 344 345 345 344 341 341 348 348 348 347 347 346 344 343 347 349 348 348 351 352 352 350 350 351 349 349 348 349 351 352 352 353 353 350
318 320 322 323 323 324 321 322 323 328 343 343 346 347 344 341 338 339 346 345 344 345 343 343 344 347 349 348 351 350 351 351 352 352 352 351 350 351 354 353 349 350 351 347
318 320 323 323 323 323 322 323 324 328 337 343 341 347 347 343 341 340 341 344 344 343 343 342 344 347 348 349 350 350 351 352 353 354 353 352 353 354 352 350 350 351 353 353
322 323 323 323 323 323 323 323 324 327 340 342 343 345 343 347 347 340 341 341 343 342 342 342 343 344 347 348 351 350 350 352 353 354 354 352 352 350 349 353 354 354 353 353
322 323 323 323 323 323 323 321 323 324 332 341 341 346 348 348 347 344 342 342 341 341 342 342 343 344 345 348 350 351 351 353 353 353 354 353 353 351 350 354 355 354 354 354
324 323 322 323 321 321 321 318 320 323 324 329 337 347 345 343 346 345 344 344 341 341 341 341 342 344 345 347 350 352 353 354 354 354 355 355 352 350 349 351 353 350 353 353
324 325 322 322 323 322 318 319 319 321 326 327 329 346 344 340 341 345 345 345 343 340 340 341 342 344 345 347 351 353 353 354 354 354 355 354 352 349 350 353 350 350 350 352
323 324 324 323 323 323 320 318 317 318 324 327 328 335 335 338 339 343 346 346 343 340 339 340 341 343 345 347 351 354 354 353 355 354 353 353 353 354 355 355 353 352 351 349
321 323 323 325 322 322 322 317 319 314 319 322 324 330 333 337 340 341 346 346 343 341 340 340 340 343 346 346 351 353 354 353 354 355 355 354 352 353 356 356 355 352 348 348
321 319 322 324 324 324 321 319 317 317 318 322 323 325 326 329 338 341 345 346 343 341 342 341 341 340 344 347 349 354 355 354 354 356 356 355 354 352 354 357 358 357 354 353
317 319 321 322 322 323 324 322 318 321 319 320 323 325 328 327 335 340 340 342 342 340 343 342 342 341 342 347 348 353 356 356 355 356 357 357 356 354 352 355 356 357 359 354
320 319 320 319 319 321 322 322 321 313 315 321 324 324 323 323 339 339 339 339 340 341 338 342 343 341 341 346 348 352 356 357 357 357 358 358 359 358 356 354 353 352 355 357
319 320 320 324 322 322 322 324 321 320 320 320 321 321 322 324 334 339 340 340 339 338 337 334 337 341 342 346 348 349 353 358 358 359 359 359 359 360 359 358 356 355 354 357
315 318 318 318 322 323 325 325 325 321 321 321 319 318 319 319 325 334 338 339 340 339 336 338 338 339 343 345 348 350 351 357 359 361 360 360 360 361 361 361 360 358 356 356
314 318 319 326 324 323 324 325 325 324 323 321 319 320 318 319 320 326 335 339 338 333 335 334 336 338 344 345 349 350 351 357 359 361 362 362 362 362 362 362 363 361 360 358
316 316 319 324 324 323 324 325 325 325 324 322 321 320 320 322 328 329 333 334 332 336 337 338 338 339 344 346 349 350 351 353 359 360 361 362 363 363 363 362 363 363 360 360
317 319 318 322 324 325 324 324 325 323 324 325 322 321 323 323 322 326 326 330 331 333 334 336 339 342 344 345 346 350 351 353 355 360 361 362 363 363 363 364 363 363 361 359
317 321 321 324 326 325 329 328 325 324 326 325 327 324 323 323 324 329 328 330 331 330 330 331 338 343 345 346 345 346 348 351 353 355 359 361 362 362 364 364 363 363 363 360
318 321 322 323 326 329 326 328 326 326 328 334 327 326 326 322 326 322 335 331 327 324 327 334 337 344 343 348 347 346 346 348 350 352 352 358 361 362 363 364 363 363 363 361
329 327 325 324 329 324 325 326 325 328 327 343 339 331 327 332 324 333 336 338 335 328 326 329 333 334 346 348 354 348 348 347 348 351 352 353 359 361 363 364 364 363 362 360
331 333 334 328 329 330 333 336 326 328 344 342 340 339 336 336 336 341 341 342 343 343 344 339 326 327 333 345 356 352 349 350 350 349 351 354 358 360 362 364 364 362 361 356
330 331 334 334 338 332 333 332 331 339 341 344 341 337 336 335 342 345 343 342 350 347 344 356 343 344 344 339 355 356 353 352 354 353 355 356 359 361 364 364 362 360 357 352
330 329 334 332 334 332 334 329 330 332 350 349 349 350 351 353 354 354 353 354 357 357 357 360 359 359 360 361 349 354 357 356 358 358 363 364 364 364 363 362 360 356 352 348
329 330 330 332 331 332 332 328 328 342 348 349 349 350 351 351 351 354 355 355 356 356 357 360 358 359 360 365 363 360 362 363 365 364 363 361 356 357 350 348 349 350 348 348
328 328 331 334 328 333 331 328 328 330 333 337 345 346 344 345 347 349 348 347 350 352 353 354 356 358 359 360 361 363 363 361 358 356 350 345 341 336 335 329 331 344 349 351

GFSCGP_925_thetae_039.txt.gz
Theta_e
320 322 322 320 319 320 321 322 323 324 324 341 339 345 354 351 349 352 352 351 350 347 345 347 348 349 349 348 349 349 349 349 348 348 350 353 351 350 348 351 352 349 350 350
318 323 322 321 320 320 320 320 320 325 337 338 340 344 352 351 349 348 349 349 348 345 344 346 347 349 349 348 349 349 350 350 349 348 349 352 351 350 349 347 352 350 350 351
320 319 320 321 321 321 320 320 321 322 337 342 343 344 349 351 348 348 347 346 346 345 343 342 345 349 349 348 348 349 350 350 350 349 351 351 348 348 348 350 352 352 352 351
316 318 320 320 322 322 320 320 322 323 329 336 341 348 344 346 347 347 348 348 347 345 344 342 345 348 349 348 348 349 349 350 350 349 349 349 349 349 348 349 350 349 351 352
318 317 318 320 321 321 323 322 322 323 324 329 335 341 341 341 344 342 342 347 346 345 344 343 342 346 348 348 348 349 349 350 350 350 350 350 350 349 347 347 349 350 350 350
319 319 318 319 321 321 322 322 320 321 322 331 328 341 342 347 343 341 338 341 345 344 343 343 342 344 346 348 347 349 349 350 351 350 350 351 352 351 349 350 350 349 350 351
320 318 320 320 320 319 319 317 319 319 321 324 322 337 337 337 342 341 340 338 341 343 343 342 341 342 344 347 347 348 349 350 351 351 352 352 352 351 350 348 349 354 354 354
322 324 321 320 321 321 318 319 317 319 322 321 323 331 330 335 337 340 341 339 338 341 342 342 341 340 342 345 347 349 349 350 353 353 353 352 353 352 351 350 347 350 353 350
322 323 322 322 321 321 318 319 318 316 321 320 323 329 333 335 337 337 340 340 339 339 340 341 340 340 342 343 346 348 350 350 352 353 353 353 353 352 352 351 348 347 351 351
320 323 321 321 320 320 321 314 318 310 319 320 318 325 329 336 337 336 340 342 341 341 339 339 340 340 341 343 345 347 349 350 351 352 353 353 352 352 352 351 349 348 350 350
316 318 322 322 321 321 318 320 315 316 313 320 318 320 323 329 333 335 336 341 342 342 341 339 339 339 340 342 344 347 350 350 350 352 352 352 353 353 353 352 349 348 353 351
316 312 321 322 320 322 321 320 318 317 316 315 320 320 324 324 324 332 335 337 341 343 342 339 338 338 340 342 344 348 350 351 350 352 352 352 352 352 353 353 350 351 353 352
322 318 316 317 317 317 320 320 319 318 314 320 320 319 318 323 328 330 334 335 337 341 340 340 338 337 337 342 344 347 350 351 351 351 353 353 352 352 351 352 352 353 354 354
315 315 317 319 318 318 319 321 321 318 318 320 321 321 321 323 322 327 336 335 336 338 338 340 339 338 338 340 345 346 350 351 352 351 353 353 353 353 352 351 351 352 355 356
313 318 317 317 319 320 319 321 322 318 321 321 322 318 318 319 323 325 329 335 337 338 338 339 339 339 337 338 344 345 349 352 352 352 353 353 354 354 353 353 351 350 353 355
310 319 316 320 320 322 322 321 322 322 322 319 317 318 316 318 317 320 323 332 336 337 338 336 337 340 340 340 343 345 347 351 354 354 354 354 354 355 356 355 354 353 351 352
310 315 318 321 319 320 322 321 322 323 322 322 319 318 317 317 317 318 319 323 334 337 337 333 332 335 337 341 343 345 346 349 355 355 355 356 356 356 357 357 357 357 355 354
310 315 317 320 320 325 322 321 322 322 322 320 319 318 319 319 319 320 320 323 328 331 333 331 332 331 333 337 341 344 346 348 354 356 357 357 357 357 357 358 358 359 358 357
310 312 319 321 322 323 325 324 322 321 322 322 321 320 319 319 322 321 322 322 328 328 329 332 334 335 336 336 341 345 347 348 353 355 357 359 359 359 359 359 359 359 360 359
310 311 320 319 323 325 327 336 335 328 324 322 322 322 322 320 321 323 322 324 325 325 326 328 334 339 340 342 344 346 348 349 350 355 356 357 359 360 360 360 360 360 360 359
313 314 320 323 324 323 335 335 335 327 328 328 329 323 321 322 322 321 321 327 323 323 324 329 332 338 341 343 343 344 347 348 350 351 355 357 358 360 360 361 361 361 361 360
324 324 325 323 327 328 333 335 337 331 330 333 335 328 321 322 323 330 333 337 336 333 325 324 325 333 341 343 343 342 342 346 348 350 351 354 357 359 360 360 361 361 361 360
324 326 327 325 328 330 331 333 329 330 331 332 339 332 331 336 339 339 340 341 341 340 347 339 324 323 327 339 347 343 343 344 345 347 349 350 352 357 359 360 361 362 362 360
320 321 325 326 332 333 332 330 329 330 335 347 348 345 341 348 349 349 351 352 352 353 353 354 351 351 351 360 348 350 350 349 347 346 346 348 350 354 358 360 361 362 361 358
314 323 324 323 331 333 332 329 329 330 331 342 344 344 348 351 351 352 353 353 354 355 355 355 354 352 353 358 360 362 356 353 352 351 349 350 352 355 352 338 342 352 353 356
321 327 328 328 328 332 331 329 329 330 330 331 334 336 335 339 344 347 347 346 347 349 350 351 353 354 353 352 351 355 361 359 360 361 359 356 346 338 335 336 335 340 344 345

GFSCGP_925_thetae_042.txt.gz
Theta_e
320 322 321 320 318 321 323 322 324 323 324 337 336 340 352 351 352 352 351 349 349 348 346 347 347 348 348 348 349 348 348 347 346 346 346 347 347 349 351 349 349 347 347 349
317 323 322 320 319 320 320 321 321 320 322 333 335 338 352 351 352 352 352 351 349 348 346 345 346 348 347 347 348 348 348 348 348 347 346 348 348 348 351 349 348 350 349 348
322 320 321 321 320 321 319 320 320 322 328 339 340 341 353 351 349 349 350 350 349 348 348 344 346 347 348 347 347 348 347 347 348 347 347 348 349 350 351 349 348 350 350 349
318 319 323 320 321 320 318 319 320 321 322 323 340 347 345 352 352 349 347 350 349 348 346 344 345 346 347 348 347 347 347 348 348 348 348 348 349 350 351 350 349 348 350 350
318 317 319 323 323 320 321 320 320 321 322 323 328 341 338 348 354 351 348 346 346 346 346 343 343 345 346 347 347 347 347 348 348 348 348 348 349 350 350 347 346 348 350 351
317 316 318 317 319 320 320 319 316 317 319 324 322 329 330 345 351 351 348 348 347 345 344 343 341 343 345 347 347 346 347 348 348 348 349 349 348 349 348 348 347 348 349 348
318 318 318 317 318 318 319 318 318 319 320 324 319 331 327 337 341 345 347 346 345 346 345 344 343 341 344 346 347 346 347 348 348 349 348 349 349 349 348 349 348 347 348 349
318 319 318 317 317 317 318 317 317 320 318 323 320 325 326 329 337 339 340 341 341 342 345 345 344 342 341 345 347 346 347 347 348 348 348 349 349 349 349 350 350 348 346 347
317 319 320 318 319 318 316 318 315 314 317 316 319 321 326 328 329 336 338 338 338 338 341 343 343 342 341 343 346 346 347 347 347 349 349 349 350 350 349 350 350 350 346 348
319 321 319 319 319 318 316 316 319 312 320 320 317 321 324 330 331 331 333 338 338 337 337 341 342 341 341 341 344 346 346 347 347 349 350 350 350 350 350 350 350 350 349 346
314 317 320 318 320 321 316 315 315 317 313 318 317 319 319 327 328 327 329 335 338 337 337 338 340 341 341 340 342 345 346 347 347 349 350 351 350 350 350 350 350 350 350 349
321 311 318 319 319 321 321 320 312 319 316 313 314 318 318 320 325 329 330 331 335 338 337 337 338 339 340 340 341 343 345 347 348 348 350 351 351 351 350 350 350 350 350 350
319 316 315 317 318 318 319 318 315 313 312 321 317 319 318 317 320 321 327 328 332 335 338 338 337 338 338 339 340 342 344 346 348 348 349 351 351 351 351 350 350 350 350 350
314 314 315 320 320 317 316 320 318 318 319 321 321 318 321 320 318 321 325 329 329 333 336 338 338 337 337 338 340 342 344 346 347 348 349 350 351 351 351 351 351 351 351 351
311 316 317 317 318 319 319 320 320 320 319 320 321 319 318 319 320 321 321 329 334 335 336 336 338 337 336 337 339 342 344 346 348 349 349 350 350 350 350 350 351 352 352 351
306 314 316 318 319 319 320 320 320 320 319 320 319 319 317 318 317 320 322 326 332 335 336 336 337 337 336 336 339 342 344 347 348 349 349 350 351 351 350 350 350 350 351 352
308 312 317 319 318 319 321 320 320 319 318 320 320 320 318 317 317 318 320 320 326 332 335 335 335 336 337 336 338 342 343 347 348 350 350 350 351 351 351 351 350 349 350 351
308 312 314 318 318 323 318 319 321 320 320 318 318 320 320 320 320 319 318 321 319 324 332 334 333 334 335 337 337 340 343 346 349 350 350 350 351 351 352 352 352 351 350 349
308 309 313 320 319 318 319 332 336 333 323 320 319 319 319 320 319 319 317 317 319 320 326 332 333 333 334 335 339 340 342 344 349 351 351 351 352 352 353 354 354 353 353 352
309 309 311 316 322 323 324 333 333 334 332 330 331 323 321 318 319 322 319 320 320 322 324 327 330 331 331 332 334 339 343 344 347 351 352 353 353 354 354 354 355 355 355 355
309 311 312 314 321 321 325 333 332 331 330 332 333 332 331 319 322 322 320 319 321 322 323 324 326 333 334 334 334 340 343 345 346 348 352 354 355 355 355 355 355 356 356 357
313 314 313 313 321 323 329 332 336 330 331 333 335 335 333 333 320 320 323 323 324 323 323 324 328 329 335 337 340 342 344 343 346 347 351 353 355 356 357 357 357 358 358 358
318 318 320 315 317 320 329 330 329 328 332 332 333 334 341 343 323 324 332 337 339 346 346 328 321 338 343 341 340 339 341 343 346 347 349 353 355 356 357 358 358 359 359 359
313 314 321 321 322 329 331 329 328 329 331 331 332 341 345 335 341 348 350 352 355 354 354 353 353 352 351 357 350 346 346 348 345 343 347 348 350 354 357 358 358 359 360 360
311 311 314 319 317 326 331 329 329 330 331 331 333 339 349 351 353 353 352 352 351 351 350 351 352 352 351 353 356 360 358 352 349 345 343 345 348 349 348 352 357 358 354 360
310 311 313 314 317 319 328 327 328 330 330 331 333 342 341 345 347 348 348 346 346 346 348 348 349 350 350 350 353 357 360 356 354 352 350 344 339 338 341 340 333 340 340 336

GFSCGP_925_thetae_045.txt.gz
Theta_e
324 325 326 326 326 326 326 329 334 333 330 337 338 339 341 352 354 355 353 352 351 350 348 348 349 349 349 350 350 351 351 350 349 348 347 345 344 346 349 350 350 348 349 348
324 325 323 323 323 324 324 326 331 329 325 328 332 336 341 350 354 354 354 353 351 349 349 349 349 350 350 350 350 352 352 350 348 348 346 343 344 348 350 352 350 349 349 348
323 322 322 324 324 324 323 324 327 330 326 335 336 337 347 350 353 353 353 352 350 350 350 349 349 349 350 350 351 351 350 350 347 347 348 348 349 350 351 351 353 351 349 350
320 322 322 323 324 324 323 322 323 327 329 333 339 340 347 350 355 355 354 353 351 350 350 348 348 349 349 350 350 351 351 350 349 347 349 349 348 350 351 352 352 353 349 349
322 322 324 324 323 324 323 322 323 324 329 329 331 336 337 349 355 354 354 354 352 350 350 349 348 348 348 349 350 350 350 350 349 349 349 349 350 350 351 352 353 352 352 349
322 320 323 325 324 324 324 324 324 324 326 331 331 332 336 345 352 353 351 352 352 351 350 350 348 347 348 348 350 350 350 350 350 349 349 349 350 350 351 352 352 352 352 352
322 321 322 323 325 324 324 325 326 327 328 330 330 329 332 333 341 346 350 351 350 350 351 351 351 349 349 349 350 350 350 350 350 350 350 350 350 350 351 351 352 351 351 351
323 323 321 321 324 323 325 323 323 326 326 326 327 330 331 330 330 339 341 346 349 349 350 350 352 350 348 349 349 350 350 350 350 350 350 350 350 351 351 351 351 351 351 351
323 323 321 321 322 323 324 326 323 322 322 324 326 328 328 330 332 332 342 344 346 348 349 349 348 349 348 347 348 350 350 350 350 351 350 351 351 351 351 351 351 351 351 352
323 324 323 321 321 322 322 323 322 324 324 324 324 326 328 333 333 335 338 343 344 345 346 348 350 349 348 347 348 350 350 351 350 350 351 351 351 351 351 351 351 351 351 350
322 323 324 322 322 323 321 324 323 323 323 323 322 323 328 333 336 334 335 340 341 342 343 344 347 349 348 347 346 349 350 350 351 351 351 351 351 351 351 352 351 350 349 349
321 320 327 325 324 323 322 323 324 325 327 323 323 323 325 329 333 334 335 336 337 339 341 342 342 344 346 348 347 347 349 350 350 350 351 352 352 352 352 352 352 350 350 349
319 323 327 326 325 322 324 324 324 324 324 329 323 322 326 327 327 328 332 334 336 340 342 343 342 345 348 347 346 346 348 348 349 350 351 352 352 353 353 352 352 352 350 350
317 321 325 328 327 323 325 324 324 324 326 326 327 324 325 326 327 329 330 331 332 339 342 345 345 345 347 346 346 345 347 347 348 350 351 352 353 353 353 352 352 352 351 351
316 319 318 319 319 320 322 322 322 324 326 329 327 329 327 326 329 331 331 332 333 336 341 344 346 348 348 347 346 345 346 347 348 350 351 352 352 353 353 353 353 353 353 352
313 315 319 317 318 319 321 322 322 322 323 323 324 326 326 327 329 330 331 332 334 335 338 343 347 348 349 347 346 345 346 347 348 350 351 351 352 353 353 354 354 353 354 353
313 314 316 317 317 319 322 322 323 323 323 323 325 325 326 326 327 331 333 334 334 335 339 342 346 349 351 345 345 345 346 347 349 350 351 351 353 353 354 354 354 354 355 355
312 315 319 315 318 322 322 322 327 324 323 323 323 324 324 326 329 330 333 333 334 334 335 337 338 342 344 343 342 344 345 348 350 351 352 352 353 354 354 354 354 354 354 355
310 313 314 314 318 319 319 321 334 334 329 331 327 325 325 325 327 331 329 330 333 335 337 334 332 335 341 343 343 344 347 348 351 352 353 353 353 354 354 355 354 354 354 354
310 311 313 315 314 318 321 322 324 334 331 335 337 335 332 332 328 328 333 330 330 330 331 332 331 333 337 342 341 344 348 350 352 352 352 353 353 354 355 355 355 355 354 354
313 312 313 313 316 317 318 326 335 341 332 337 339 340 341 341 332 336 334 330 331 333 333 330 331 336 339 339 340 347 347 350 349 351 352 353 354 354 355 355 356 356 356 356
317 317 316 313 313 314 316 329 332 335 335 336 339 340 341 340 342 342 341 338 329 333 332 329 334 335 337 341 339 346 351 347 349 350 353 355 356 355 355 356 356 357 357 356
316 314 318 314 313 314 317 322 330 332 334 335 338 340 341 341 343 346 346 339 336 348 345 330 336 343 346 347 345 349 349 349 351 351 352 355 357 357 357 358 358 358 357 357
312 314 317 317 316 318 318 320 323 330 332 334 337 339 339 342 346 350 345 343 356 357 352 347 356 357 357 353 351 350 349 348 349 353 355 356 357 358 359 359 359 359 360 360
311 312 314 314 313 313 318 319 324 330 332 335 338 337 337 346 351 343 350 357 355 353 353 355 357 357 358 359 361 360 353 352 352 352 353 354 355 356 356 355 359 361 361 361
310 312 314 313 313 317 318 318 323 327 332 336 337 335 338 349 351 353 354 353 353 352 352 352 352 352 353 356 358 356 358 356 354 353 351 345 342 342 342 343 344 353 358 359

GFSCGP_925_thetae_048.txt.gz
Theta_e
330 332 331 329 330 331 334 335 337 340 341 340 343 344 342 343 352 353 355 354 352 349 347 346 346 346 346 347 347 349 349 350 351 350 348 346 344 344 345 349 352 356 357 357
326 329 327 327 325 327 330 332 335 338 337 335 340 341 340 340 350 352 354 355 354 351 348 347 346 346 346 347 349 351 351 352 353 350 347 344 344 343 346 350 353 356 356 358
326 325 325 326 328 329 330 332 332 336 336 334 335 338 339 341 345 349 352 353 353 353 350 349 348 347 346 347 349 350 353 355 355 350 349 348 345 347 348 351 353 355 357 356
326 324 325 325 326 327 329 328 329 330 333 338 337 343 342 341 346 349 351 353 353 353 351 348 347 348 346 346 348 351 354 356 357 353 348 348 344 345 346 350 350 351 354 355
326 325 324 325 325 325 326 327 327 328 330 332 335 338 338 341 343 349 350 352 352 353 352 350 347 346 346 348 349 351 354 356 357 356 350 350 348 343 347 351 352 354 353 356
323 323 324 325 324 324 324 325 326 327 329 332 333 336 337 339 343 344 347 350 352 351 351 352 346 345 347 348 350 351 355 357 357 357 355 353 351 348 350 353 354 354 354 353
323 324 324 324 325 325 324 326 327 327 329 332 332 335 336 336 337 341 343 346 351 352 351 352 352 348 346 348 349 351 354 358 358 357 356 355 354 353 354 355 355 354 351 351
326 326 324 325 326 327 325 326 325 330 330 330 331 333 334 335 335 335 340 342 350 351 352 352 353 351 349 348 351 352 355 358 358 357 357 357 356 354 353 353 353 353 352 350
328 328 325 325 325 326 327 329 325 325 327 328 329 331 331 332 334 334 336 338 341 347 351 353 352 351 351 350 351 354 356 358 358 357 358 358 357 356 353 354 356 354 354 352
328 330 327 325 325 325 327 326 325 325 328 328 327 328 330 332 332 334 335 336 339 341 347 351 352 351 351 351 352 354 356 359 358 357 358 357 357 357 356 356 356 356 355 355
327 328 330 326 325 326 326 327 326 325 325 328 329 328 329 330 332 333 334 335 337 340 345 350 351 350 351 351 351 353 356 357 357 357 357 357 357 357 357 357 357 357 357 357
326 328 331 328 326 325 326 326 327 328 329 327 327 327 327 328 329 332 332 334 336 339 341 346 348 350 350 350 351 351 353 355 356 356 358 358 358 357 357 358 358 357 358 358
325 327 332 331 328 326 326 326 326 326 327 331 329 326 329 330 330 331 333 334 336 337 339 341 342 345 347 349 352 350 351 352 354 356 356 357 358 358 358 359 358 358 358 358
319 328 330 333 331 328 328 327 326 326 331 329 330 329 328 327 328 330 331 332 333 336 339 340 342 343 343 346 352 354 351 351 352 354 355 357 359 358 358 359 359 359 359 359
318 327 327 329 326 325 329 327 327 328 328 330 330 330 330 329 329 330 331 331 333 335 337 339 344 345 348 347 352 355 353 351 351 354 355 356 358 359 359 359 359 359 359 359
316 323 323 326 324 323 325 327 327 327 328 329 329 330 330 330 330 331 331 330 330 331 331 334 341 344 349 349 351 352 353 352 352 355 356 357 358 360 360 360 360 360 360 360
315 317 321 326 325 324 327 327 327 327 328 328 330 330 329 330 330 330 331 331 332 332 333 334 339 344 347 349 349 351 353 352 353 355 357 358 359 360 360 360 360 360 361 360
314 316 318 323 324 328 327 327 327 327 327 328 328 328 329 329 330 330 331 331 332 332 332 335 335 337 342 344 344 349 350 353 354 356 356 358 359 360 360 360 361 361 361 360
311 315 317 321 323 325 325 324 325 327 329 328 328 328 328 328 328 329 329 330 332 333 333 334 333 332 333 337 340 346 350 351 353 357 357 358 359 360 361 361 361 362 360 361
311 312 316 317 321 324 324 324 323 326 330 329 334 334 334 331 330 329 330 330 332 332 332 332 331 331 332 334 339 345 350 353 357 357 357 358 359 360 361 361 361 360 360 359
313 313 314 315 317 319 320 324 331 332 342 339 339 342 344 344 340 339 340 340 339 338 336 333 333 335 335 336 341 348 350 353 355 354 355 357 359 361 361 361 360 360 359 359
316 314 313 313 315 316 316 318 329 334 333 336 336 337 340 341 342 344 344 344 343 341 340 335 337 336 336 341 345 354 357 353 355 355 354 357 360 359 358 360 360 360 360 361
314 314 317 314 313 314 316 319 319 321 324 328 332 333 334 336 339 341 347 349 347 346 344 337 341 338 340 343 346 351 356 354 353 355 357 359 359 359 357 360 361 360 360 359
311 312 314 316 316 317 317 317 319 321 323 324 328 331 331 334 336 342 349 352 350 349 344 344 342 344 350 352 353 352 352 354 355 356 357 358 360 361 360 360 360 360 359 360
312 313 314 315 315 315 316 317 317 318 324 325 328 330 333 335 338 344 351 354 351 348 357 352 353 358 359 359 358 355 355 355 354 356 358 359 360 360 361 358 358 361 360 360
311 313 314 315 314 315 315 316 317 319 319 319 322 328 332 337 342 343 353 355 356 355 355 357 358 362 365 363 359 362 356 356 357 359 359 359 359 361 362 356 348 354 358 361

GFSCGP_925_thetae_051.txt.gz
Theta_e
332 335 336 334 340 340 337 336 339 343 344 345 347 348 349 350 351 353 355 355 352 350 347 346 346 346 345 346 347 349 350 350 351 351 351 348 346 345 344 343 347 351 355 357
334 336 334 333 334 340 339 338 338 341 344 345 345 346 346 345 348 349 352 355 354 351 349 347 346 345 345 346 347 350 351 353 352 351 350 346 345 344 344 345 349 354 356 357
333 334 331 332 331 337 340 336 337 339 341 343 341 343 344 342 342 347 349 353 354 353 351 347 347 345 345 346 348 350 353 353 354 351 350 348 346 345 345 345 349 353 356 357
329 328 328 330 329 329 331 332 333 334 340 344 340 344 342 342 342 345 349 352 354 354 352 349 346 346 345 345 348 351 355 356 355 355 351 349 347 345 344 345 348 351 354 356
330 327 327 328 329 328 329 330 333 334 335 338 340 342 341 342 344 344 347 349 351 353 353 351 347 345 345 345 346 350 356 357 356 357 353 350 349 344 345 346 348 351 354 355
331 329 328 327 327 327 328 328 330 333 334 336 337 342 341 341 344 344 345 346 349 351 352 352 347 344 345 345 345 347 355 359 360 360 357 355 351 348 343 347 349 352 353 354
328 330 328 327 327 327 327 327 329 332 334 335 335 338 339 338 338 341 344 346 348 350 351 352 351 347 345 345 345 347 354 360 362 362 360 356 356 354 350 351 352 353 351 350
328 329 329 327 327 328 327 326 328 332 332 332 333 336 336 335 336 337 341 343 345 349 350 352 352 349 346 347 348 349 355 361 363 362 362 361 358 355 352 350 354 353 352 350
329 329 328 327 327 328 328 329 327 328 330 331 331 333 334 335 335 337 337 341 343 347 349 351 352 351 348 349 351 353 355 360 364 363 363 363 362 358 355 352 354 354 355 351
329 332 329 328 328 327 329 329 327 328 334 332 331 333 334 335 336 336 337 338 341 346 349 350 351 352 351 349 351 353 355 361 363 363 363 364 363 362 358 357 357 356 355 355
329 331 333 331 328 329 328 330 328 328 328 330 333 332 332 334 335 334 335 337 339 342 348 349 349 350 353 351 350 354 357 359 363 364 363 364 364 363 363 360 360 359 360 359
328 330 334 333 329 329 329 329 331 333 333 328 329 331 331 331 331 333 334 336 337 340 341 344 348 351 351 353 352 352 354 357 362 362 363 364 363 363 363 363 360 361 361 362
328 331 335 335 331 329 330 329 329 330 329 332 329 332 333 331 332 332 334 335 337 339 341 342 344 350 352 351 355 354 355 355 357 361 362 363 364 364 363 363 363 362 363 363
322 330 334 336 335 331 330 329 329 329 333 330 332 331 331 331 332 333 334 335 336 338 340 341 344 348 352 352 355 356 355 354 356 358 360 362 364 364 364 363 363 363 363 364
323 330 332 333 333 332 331 329 329 330 330 331 331 333 332 332 331 333 333 335 335 336 337 339 342 343 345 350 353 357 355 355 353 358 360 362 363 365 364 364 363 364 364 365
322 327 330 334 332 331 331 331 329 329 329 330 330 331 333 332 331 331 332 332 332 334 336 336 339 343 345 344 348 353 359 355 356 357 359 361 363 365 366 365 365 365 365 364
319 324 329 333 332 331 332 331 331 331 330 330 331 332 332 332 333 333 333 333 333 333 333 334 335 338 344 342 347 352 356 359 358 356 361 361 363 365 367 367 366 366 366 365
317 321 324 328 330 336 332 331 329 330 331 330 331 332 332 332 332 333 333 333 334 334 334 334 334 336 338 340 344 349 351 358 359 360 358 362 363 365 366 367 367 367 367 366
314 317 322 326 330 330 330 329 330 330 331 330 330 331 330 331 331 332 331 332 332 333 333 334 333 333 333 334 339 343 352 353 359 360 361 361 364 365 367 368 368 367 367 367
313 315 318 324 327 332 330 330 326 331 334 331 331 331 331 331 332 333 335 338 341 339 339 339 334 333 333 334 334 336 347 355 361 360 361 361 364 365 366 367 368 367 367 367
314 315 316 318 324 325 326 327 329 330 345 342 339 340 341 340 344 345 343 343 343 343 342 340 340 339 337 338 338 343 343 355 356 359 360 363 363 365 366 367 367 367 367 364
319 316 317 317 320 323 322 321 327 334 332 330 334 336 338 338 337 337 339 341 343 347 346 343 341 341 340 339 343 350 354 351 357 358 360 362 364 364 363 367 369 368 367 367
315 318 318 317 318 319 319 320 321 322 323 326 328 328 330 334 334 335 337 339 344 350 351 347 345 345 345 343 346 353 354 358 358 362 363 363 365 366 363 367 369 367 367 364
313 314 315 316 317 318 318 318 319 320 320 322 322 328 330 333 334 335 337 340 345 352 354 350 347 348 352 346 348 353 357 363 363 364 364 365 367 367 366 365 365 365 363 364
313 313 314 314 314 314 316 317 318 318 319 320 321 324 324 325 327 333 336 341 348 355 353 350 354 354 349 351 357 355 356 357 362 362 361 364 363 364 366 361 356 362 361 359
312 313 313 314 315 316 316 316 317 318 318 319 321 321 321 322 325 329 335 340 351 355 356 356 356 357 360 362 364 362 359 360 361 361 361 359 358 363 362 359 347 348 350 355

GFSCGP_925_thetae_054.txt.gz
Theta_e
334 334 338 337 337 339 341 338 341 342 341 348 345 355 351 350 348 352 353 351 349 349 349 348 347 347 348 348 350 348 351 348 352 354 354 353 350 348 347 345 344 353 353 355
335 335 333 333 335 338 340 340 337 337 343 346 346 356 352 348 353 354 353 353 351 349 349 350 348 348 348 349 350 351 351 349 355 353 354 351 350 348 346 345 344 349 352 355
335 334 332 331 333 334 340 342 340 337 346 345 346 349 356 354 357 355 352 354 352 352 350 350 350 349 347 349 351 352 352 355 354 353 352 351 349 347 347 345 345 350 352 357
334 333 332 333 333 333 335 338 340 338 346 349 346 354 353 346 347 349 351 353 353 353 352 348 349 349 348 349 350 353 353 354 355 353 353 352 350 349 347 347 347 351 353 354
336 334 334 333 333 332 333 334 339 338 337 340 346 348 341 345 345 344 348 352 351 353 352 350 348 348 347 348 351 352 355 355 357 352 355 351 351 348 347 346 346 348 356 353
335 335 333 331 331 331 330 330 332 335 334 340 338 345 347 343 347 345 344 348 352 351 353 352 348 347 347 348 350 353 356 357 357 358 351 356 352 350 347 348 348 352 352 355
334 336 332 329 328 329 329 328 331 332 337 338 336 338 343 342 344 343 345 347 349 353 354 354 352 349 348 348 349 351 357 360 359 360 359 351 358 350 351 347 348 351 355 356
332 335 334 330 329 329 329 328 331 336 336 336 334 339 339 340 340 342 345 346 346 349 354 354 354 350 348 347 349 351 356 360 361 359 362 360 355 360 349 350 353 350 355 353
333 332 331 332 329 329 328 329 328 328 330 333 333 335 335 337 338 339 337 345 347 347 351 354 355 351 348 348 349 349 355 359 361 362 362 364 359 356 360 352 350 356 352 352
329 332 330 330 331 328 329 329 328 329 332 335 332 337 338 338 340 339 337 338 344 347 350 353 354 353 349 348 349 349 353 358 361 363 363 363 365 359 355 358 352 350 356 357
326 330 330 331 332 329 328 330 328 327 329 331 333 334 336 341 339 339 338 339 340 346 349 351 353 353 351 349 349 350 351 359 362 364 365 364 364 365 360 357 358 353 353 352
328 327 331 329 331 330 329 329 330 334 335 331 332 332 334 336 339 338 338 340 339 342 347 350 353 354 353 352 350 351 353 355 362 364 365 365 365 365 365 361 359 359 359 361
324 330 332 331 333 332 331 330 329 331 330 336 333 332 335 333 334 337 337 338 343 345 350 351 351 353 355 354 353 352 354 355 358 363 366 366 365 366 366 365 361 361 361 360
322 327 332 334 335 334 333 330 330 329 335 331 333 332 333 333 333 333 338 339 340 346 346 351 351 350 354 355 355 354 354 355 357 360 365 366 366 366 367 366 365 363 361 364
323 330 332 332 332 334 331 330 330 332 333 334 333 336 336 337 334 335 342 342 344 346 345 350 348 351 355 358 357 356 356 356 356 359 362 365 365 365 366 366 366 366 365 363
320 328 330 334 333 333 335 331 330 331 330 331 332 334 334 336 338 337 340 339 341 340 341 341 342 345 351 357 359 358 357 359 357 359 360 363 365 366 366 366 366 366 366 366
319 323 329 333 333 334 336 335 333 331 331 331 333 336 338 337 338 338 340 338 335 334 341 337 338 347 354 350 357 360 359 358 359 359 361 362 365 366 367 368 367 367 366 367
317 321 325 330 332 340 335 334 333 333 332 331 332 332 333 335 337 339 339 337 334 335 340 342 338 340 342 341 344 350 356 362 359 359 361 364 365 366 367 368 369 368 367 367
315 317 323 329 332 334 334 333 333 332 333 332 333 333 333 333 334 337 334 334 335 338 340 341 335 335 337 341 342 351 351 356 364 362 362 361 365 367 368 369 369 370 369 369
314 316 320 325 329 332 333 331 331 332 334 343 333 332 332 332 333 346 348 344 345 345 347 347 343 342 344 343 342 357 355 359 363 363 363 363 362 366 368 368 369 370 370 369
314 317 319 321 325 328 329 327 330 334 349 337 339 340 345 343 344 342 340 341 341 343 346 347 345 345 343 343 344 348 352 360 362 363 363 362 363 364 367 368 369 370 370 370
321 316 318 319 323 328 325 324 335 337 331 329 332 332 333 335 337 336 336 339 340 345 346 349 350 350 346 343 343 353 354 343 358 360 363 364 365 363 366 368 369 371 371 370
318 320 320 320 321 324 320 322 322 323 324 325 326 325 329 333 335 335 337 340 341 344 346 352 355 355 349 348 347 354 345 351 361 360 364 364 365 367 364 368 370 371 371 371
314 315 316 317 318 318 318 318 319 320 321 321 322 323 324 329 328 328 330 333 338 341 344 352 360 357 357 350 345 352 353 358 357 368 366 367 368 368 368 366 369 371 370 370
312 313 314 314 315 316 316 316 316 317 318 319 319 321 321 324 324 324 327 330 334 340 340 353 359 360 363 358 352 352 355 357 357 369 369 369 368 369 371 364 361 368 369 365
313 314 316 318 317 318 319 318 317 318 318 318 319 319 320 322 322 322 325 328 330 340 340 351 354 358 363 366 363 366 367 363 361 366 368 367 366 368 368 350 344 351 354 354

GFSCGP_925_thetae_057.txt.gz
Theta_e
330 331 331 330 332 335 339 341 342 342 345 347 349 352 352 352 351 352 350 349 349 351 349 349 351 350 349 348 348 346 348 350 349 349 349 351 349 350 346 345 346 349 350 352
331 334 332 331 333 334 336 338 340 338 339 345 353 354 352 349 350 348 349 352 351 349 347 348 347 348 348 350 346 348 347 351 350 350 349 352 353 348 347 344 344 351 353 355
332 333 333 333 334 335 335 336 338 339 337 343 352 355 353 348 349 349 350 351 350 348 347 348 346 347 347 350 348 346 349 350 351 351 351 349 352 350 348 346 343 348 352 351
331 331 333 333 333 332 334 334 337 340 341 347 341 356 354 353 353 348 351 352 347 347 346 347 346 347 348 350 350 347 348 348 352 352 353 352 350 351 350 347 344 343 349 352
329 333 332 333 332 330 330 332 333 336 339 341 344 346 356 351 351 351 351 352 346 347 346 347 347 347 347 349 351 350 347 350 353 353 353 353 351 350 347 349 345 345 348 349
329 331 332 332 331 331 331 331 331 332 335 340 335 345 344 351 351 350 352 353 351 349 347 346 347 347 347 349 351 352 350 352 352 354 353 350 352 351 349 346 345 346 348 352
329 331 331 333 332 331 331 330 330 331 335 340 331 337 341 340 341 349 353 353 351 349 348 346 347 346 347 349 351 353 353 352 355 353 351 355 351 350 347 347 348 347 351 356
327 331 333 333 333 332 330 330 328 330 330 333 328 332 333 334 337 340 348 352 351 350 349 347 345 346 346 347 350 353 354 354 354 357 354 350 355 355 349 348 345 347 353 353
324 329 332 333 334 330 327 328 325 324 327 329 329 330 330 331 331 334 339 348 350 350 350 349 346 346 346 347 349 352 355 354 355 354 356 355 350 355 358 348 349 349 349 353
324 323 326 331 333 332 326 325 326 324 326 329 329 331 333 330 331 331 332 341 344 349 351 349 347 345 346 346 348 350 355 356 356 356 357 357 355 350 355 358 349 347 352 351
321 323 324 325 332 333 328 326 325 322 323 325 330 330 328 331 331 331 332 333 342 345 351 350 348 346 346 345 347 349 352 357 358 359 357 359 360 358 353 357 359 349 345 352
320 321 327 324 325 329 329 326 325 326 324 324 324 327 332 330 332 331 333 332 335 342 350 350 349 346 346 345 346 348 351 355 357 358 360 358 360 363 361 355 355 358 351 344
317 322 327 328 325 325 329 326 326 324 325 325 325 326 331 330 332 332 333 334 333 340 348 350 350 347 346 346 346 348 349 354 356 358 359 362 360 362 364 362 356 354 356 352
322 322 326 327 328 326 329 329 326 325 326 326 328 327 332 333 332 334 333 336 339 337 345 349 350 349 347 347 346 348 348 350 356 358 361 361 363 363 362 364 363 358 356 357
315 319 322 324 329 329 331 330 328 326 325 329 327 330 332 333 335 338 339 339 340 341 346 347 349 350 349 348 347 348 349 349 351 359 361 362 363 364 363 363 364 363 358 359
312 318 322 329 330 331 333 333 329 328 327 327 327 326 333 334 333 336 336 337 336 340 340 340 343 348 350 351 350 349 349 350 352 353 361 362 364 364 364 364 364 365 364 360
312 315 320 329 331 332 335 334 334 328 328 327 328 328 335 334 338 337 336 335 336 338 336 334 339 340 348 351 352 352 352 351 353 355 355 361 363 365 365 365 365 365 365 365
312 313 319 326 331 337 333 333 334 332 329 330 328 334 334 334 337 336 333 331 332 333 332 334 331 332 341 354 355 355 355 356 355 355 357 357 362 364 365 365 365 365 365 365
311 313 318 326 332 332 335 330 329 334 344 338 342 341 336 342 344 345 344 343 344 344 344 342 342 343 342 342 345 359 356 357 359 359 359 359 362 364 365 365 365 366 365 366
312 313 317 323 330 337 327 325 326 330 343 335 334 340 339 343 348 345 340 341 342 344 345 348 349 347 343 345 342 353 360 360 358 358 362 361 362 364 365 366 366 367 366 366
313 316 317 320 325 331 322 323 331 343 338 329 327 331 337 339 338 336 337 339 342 341 343 348 351 352 352 347 343 346 346 356 362 362 358 358 363 364 366 365 366 367 368 368
320 321 321 319 324 328 321 322 325 327 327 325 326 325 331 331 329 329 329 332 338 339 339 341 346 352 357 355 347 346 352 346 341 349 361 363 361 363 366 367 367 368 368 369
317 317 318 318 316 317 316 318 318 317 318 323 323 321 323 327 326 326 326 326 328 335 337 338 342 353 356 359 357 352 348 345 344 352 362 362 362 363 362 367 368 368 369 369
312 313 314 315 315 315 314 316 314 315 316 318 318 318 320 322 324 323 323 323 324 325 334 338 336 345 352 355 360 363 354 349 357 356 364 366 364 364 364 362 368 369 369 369
312 311 311 311 311 311 314 312 313 314 315 316 317 318 318 318 323 323 321 321 321 323 332 336 336 338 347 352 362 364 364 357 353 354 362 368 367 365 368 364 367 369 369 369
309 310 312 312 309 309 310 310 311 311 312 313 316 317 318 319 321 321 320 321 322 319 321 337 338 343 348 351 358 360 363 365 368 361 356 370 369 368 368 360 351 357 363 365

GFSCGP_925_thetae_060.txt.gz
Theta_e
320 320 320 318 318 322 332 335 338 338 347 355 355 351 350 348 350 355 355 354 352 350 348 347 347 347 346 347 348 346 346 345 344 344 346 345 347 348 348 347 347 347 347 347
327 327 324 324 325 326 330 333 337 338 337 344 353 355 353 347 346 352 354 354 353 351 349 348 347 347 347 346 348 348 347 346 345 345 344 344 345 346 347 347 345 347 348 349
328 330 329 331 330 330 331 332 334 336 336 347 352 356 352 347 349 350 349 349 350 351 350 349 348 348 347 347 347 346 348 347 347 347 345 343 344 343 348 348 345 346 350 352
322 326 330 332 332 330 331 331 333 335 337 345 349 361 354 352 351 349 347 347 347 347 349 348 348 349 349 348 347 346 348 348 348 348 347 346 349 352 349 347 344 344 350 353
322 326 330 332 332 331 332 331 332 333 333 336 343 353 353 351 351 349 346 347 347 347 347 348 347 349 349 348 347 348 348 348 349 348 348 348 349 351 351 347 346 345 345 352
321 322 327 329 331 331 330 329 328 328 327 333 333 341 344 353 350 346 344 345 347 348 346 346 346 348 348 348 347 346 349 350 349 349 349 349 349 348 349 349 349 346 344 347
320 322 324 326 330 329 330 326 329 329 331 332 328 334 338 349 347 346 345 344 345 348 345 345 346 345 346 348 348 346 348 351 351 350 351 350 349 349 347 348 347 348 345 346
321 323 323 326 329 330 328 328 330 333 329 331 328 334 334 338 346 345 345 343 344 348 345 344 345 345 345 347 349 348 347 349 352 351 351 351 351 351 350 348 348 346 344 346
323 324 326 326 327 330 330 329 327 324 322 324 326 328 327 326 333 335 344 345 345 348 347 345 344 346 346 347 349 349 348 348 351 351 352 352 351 351 349 349 348 346 347 345
319 323 322 323 325 329 331 325 328 320 332 328 324 327 330 327 327 326 343 346 347 349 348 347 344 346 346 347 348 350 350 349 349 352 351 350 351 352 352 350 348 347 345 346
317 318 322 321 321 326 332 331 324 324 319 326 325 326 324 326 326 326 334 347 349 350 349 348 345 345 345 346 348 350 350 350 350 350 353 352 351 349 350 355 355 349 347 348
316 319 321 322 321 322 328 327 324 326 323 319 321 326 325 325 326 326 327 343 349 349 349 348 346 345 345 345 346 349 350 351 350 351 351 353 353 353 350 349 354 356 353 347
317 323 325 324 322 322 322 323 320 317 319 320 324 325 322 322 326 326 328 328 345 349 349 348 346 345 345 345 345 347 349 352 352 352 352 353 355 355 355 353 350 350 353 352
317 319 322 324 321 320 323 323 323 320 322 321 323 324 322 323 324 330 327 328 339 347 348 349 347 345 344 344 344 346 348 351 353 354 355 354 354 357 358 357 355 352 349 354
316 317 314 313 315 319 323 324 328 323 323 324 323 323 323 322 324 331 328 330 336 346 348 349 348 345 344 344 344 345 346 349 352 355 355 356 356 355 357 360 359 357 354 352
311 316 312 312 317 322 327 329 330 329 323 323 323 324 324 323 329 332 334 337 337 347 349 349 348 346 345 344 344 344 346 348 351 354 355 355 356 358 357 358 360 360 359 357
311 312 313 317 322 327 332 327 332 329 324 322 325 323 330 332 334 337 334 334 334 337 344 349 349 347 345 345 345 344 345 346 351 353 354 355 357 358 360 360 360 360 361 360
311 312 311 315 322 335 328 323 325 335 332 330 334 338 335 343 343 342 343 343 342 340 340 339 337 339 347 346 346 345 345 347 347 350 355 356 358 359 360 361 361 361 361 362
310 313 314 317 328 329 328 324 324 325 332 326 332 341 343 340 341 341 342 343 345 347 345 340 339 341 344 348 349 348 347 347 348 349 349 357 359 361 361 362 362 362 362 362
310 313 314 314 325 338 322 321 323 329 333 325 325 331 334 336 343 336 336 338 338 339 344 349 352 353 347 342 350 351 351 350 349 350 351 352 356 360 361 362 362 363 363 363
312 315 318 317 322 330 318 320 321 332 330 323 325 325 326 328 329 326 326 326 334 335 337 345 351 354 354 353 344 346 355 355 354 354 353 355 355 356 360 362 362 362 363 363
317 321 320 319 323 330 315 318 323 318 316 317 319 318 323 323 322 322 322 322 323 328 334 333 339 348 350 354 360 357 352 350 351 360 358 358 359 358 360 361 362 363 363 364
317 315 316 315 317 313 310 316 318 316 314 315 315 316 316 320 321 320 320 319 320 321 334 333 330 335 345 350 359 359 364 359 346 347 352 360 360 361 362 362 362 363 364 364
310 310 311 311 312 309 309 310 315 311 311 312 311 312 315 316 319 319 318 318 319 319 322 333 333 333 339 346 350 358 359 364 358 353 351 356 361 362 362 364 364 364 365 365
310 309 311 309 309 309 310 309 309 309 310 311 311 311 313 315 317 318 317 318 317 317 319 326 333 331 332 341 347 351 358 357 360 363 360 356 361 364 363 362 365 365 366 366
308 309 312 312 309 310 310 309 309 310 310 310 311 311 310 313 315 316 316 318 317 318 319 320 333 334 333 335 342 343 349 357 355 355 358 361 362 362 363 362 356 361 364 366

GFSCGP_925_thetae_063.txt.gz
Theta_e
315 315 316 315 315 320 326 331 332 334 337 351 353 352 354 357 354 353 351 351 350 349 347 347 346 345 343 343 343 343 344 344 345 346 347 348 347 349 349 347 350 349 349 349
318 318 317 316 316 318 319 322 327 331 346 350 352 352 350 357 357 354 353 352 351 349 347 347 346 346 345 344 343 343 344 344 345 348 348 347 345 346 348 348 346 348 347 347
325 324 321 321 320 320 321 322 326 332 346 349 352 358 351 351 350 353 353 351 350 349 349 348 346 346 346 345 346 344 344 344 344 348 347 346 344 345 347 348 347 345 348 347
321 324 326 324 326 325 325 326 329 331 334 344 350 354 352 350 351 346 349 353 352 350 348 346 347 346 346 345 346 347 346 344 345 346 346 344 344 345 345 346 347 345 346 348
322 322 323 328 328 329 328 328 329 330 332 333 347 352 352 349 352 348 348 351 352 351 349 348 346 346 346 346 345 346 346 345 345 345 344 344 345 343 344 343 346 346 344 349
319 321 321 324 327 329 330 329 329 327 330 335 332 346 338 352 350 348 347 348 348 349 350 348 347 347 346 346 345 345 346 347 346 346 346 346 345 343 344 344 345 346 345 345
321 319 320 322 326 327 329 325 331 330 330 334 326 331 334 343 346 346 345 346 346 346 346 347 348 347 347 347 346 346 345 347 347 347 347 347 346 345 345 345 347 346 346 345
322 322 319 321 323 326 328 329 329 332 330 332 325 329 331 334 343 344 344 344 344 344 345 346 346 347 347 348 348 346 346 347 348 347 348 348 347 347 346 346 346 348 347 347
322 323 319 320 320 324 326 329 326 325 321 322 326 326 327 329 332 342 344 342 342 343 344 345 345 345 347 348 348 346 347 347 348 348 348 349 348 348 348 347 347 345 346 346
318 320 319 319 319 322 325 323 328 321 333 331 325 325 331 328 326 342 344 343 342 341 343 345 344 345 345 346 347 347 346 347 349 349 349 349 348 348 348 348 347 346 347 347
315 317 320 319 321 321 324 327 324 325 323 332 329 329 320 326 326 327 336 341 342 342 342 345 343 344 345 345 346 347 346 346 347 349 349 349 349 349 349 349 348 348 346 346
316 317 322 321 320 319 321 320 327 328 326 318 322 330 323 322 323 323 323 330 336 342 341 344 343 343 344 344 346 347 347 346 346 348 349 349 349 350 349 350 349 348 347 346
314 320 320 321 319 317 318 318 318 319 318 322 325 329 320 319 321 322 323 325 341 341 343 344 344 344 344 345 345 346 348 347 347 346 348 350 349 348 348 349 351 351 350 348
316 315 317 321 320 316 316 316 315 319 320 330 324 325 322 320 319 320 320 323 326 343 343 346 346 345 343 345 344 346 347 348 348 347 348 349 350 350 350 349 348 348 349 350
313 316 316 315 314 314 314 315 316 318 322 320 327 320 320 318 319 320 324 327 325 330 345 346 347 346 343 344 344 345 346 348 349 348 349 349 349 350 351 351 350 349 349 348
309 313 313 315 314 314 315 316 319 322 324 325 320 320 319 329 339 341 334 328 327 337 346 346 346 345 344 344 344 344 346 347 349 350 349 350 350 350 352 353 353 352 351 350
308 314 314 314 313 314 323 323 328 329 328 327 323 328 330 344 346 346 345 343 334 340 345 346 346 345 343 343 344 343 344 346 349 350 351 351 352 352 352 353 356 356 355 354
308 313 315 313 314 326 325 320 324 327 325 325 330 338 342 344 341 337 338 341 347 341 341 344 346 345 344 344 344 343 343 345 347 350 351 352 353 354 354 353 354 356 357 357
310 313 315 316 318 322 326 321 320 326 323 318 323 326 332 341 340 335 327 335 339 346 349 345 339 341 343 343 344 343 342 344 347 348 351 352 353 353 354 357 356 356 357 358
311 312 315 318 320 342 323 318 315 321 327 317 318 317 324 332 336 328 323 324 333 333 341 351 351 342 343 343 344 343 343 344 344 347 350 351 352 354 355 355 357 357 358 358
313 315 316 316 322 327 318 314 318 332 323 316 315 314 316 323 324 322 320 320 325 333 330 336 347 350 353 345 345 344 343 344 345 346 346 349 353 354 356 357 358 359 359 360
316 317 319 318 324 331 312 314 323 318 315 314 313 312 312 315 320 319 318 318 318 323 332 330 335 342 348 358 358 355 351 348 347 348 348 348 349 352 356 357 359 360 360 361
315 312 316 313 314 312 310 311 311 314 311 311 311 312 312 313 316 317 317 317 317 317 322 331 328 331 340 349 358 358 359 349 348 356 356 354 351 352 352 356 358 359 360 360
310 309 311 311 311 310 310 311 311 311 311 311 311 312 312 311 314 315 315 315 315 316 317 329 330 328 331 338 346 355 357 357 359 358 356 357 358 358 356 356 357 358 360 360
310 309 310 310 309 309 311 310 310 311 312 312 313 313 313 312 312 313 313 315 314 316 317 318 327 331 332 333 334 337 347 352 353 350 352 356 359 359 359 360 361 360 360 361
307 310 312 312 310 310 310 309 310 311 313 313 313 314 313 313 312 313 312 314 315 314 315 316 318 327 333 334 332 334 338 341 343 348 349 348 350 354 360 360 358 360 362 363

GFSCGP_925_thetae_066.txt.gz
Theta_e
313 313 316 315 315 319 320 329 332 332 330 350 351 351 358 354 352 353 351 350 348 347 346 346 347 345 344 345 344 342 339 337 342 343 344 345 345 348 346 347 347 349 348 348
315 316 314 314 314 317 318 320 321 326 331 343 345 351 356 355 353 352 352 351 349 347 346 347 346 344 344 343 344 344 341 337 342 345 345 345 345 347 347 345 345 348 349 347
315 316 316 315 315 315 315 318 320 329 335 347 351 354 353 356 354 352 350 350 349 349 348 346 346 345 343 342 343 343 343 341 342 344 345 346 346 347 347 348 347 348 348 347
321 320 317 317 317 316 314 317 320 326 330 345 348 354 351 350 358 356 353 350 349 349 347 346 346 346 345 343 343 343 343 343 343 343 344 347 347 346 346 347 347 346 344 346
321 321 323 321 318 318 317 321 321 325 330 331 339 343 339 348 354 356 355 353 350 349 348 347 346 346 346 345 344 343 343 343 343 343 344 345 347 346 344 344 346 346 345 344
317 318 320 322 323 323 325 326 325 326 328 335 332 347 344 348 350 350 349 351 352 350 348 347 346 346 346 346 345 345 344 343 343 343 344 345 346 346 344 343 343 345 346 344
319 320 318 320 321 324 327 326 330 330 331 335 328 332 338 335 345 345 347 345 347 350 349 348 346 346 346 345 345 345 345 345 344 344 344 345 345 345 343 343 342 341 344 345
322 320 319 318 320 322 325 326 329 334 329 332 324 332 332 330 330 341 342 343 343 348 350 349 348 346 345 345 345 345 345 345 345 345 345 345 344 344 344 344 342 338 338 342
320 321 317 319 318 320 324 328 325 326 321 323 325 324 325 327 328 338 341 343 345 346 348 349 348 347 346 346 345 345 345 345 345 345 346 346 345 345 345 345 344 343 340 341
317 310 317 318 318 319 320 321 327 321 335 334 326 324 331 327 329 328 341 343 343 344 345 346 346 347 347 347 346 345 345 345 345 346 346 346 346 346 345 345 345 345 344 343
314 314 312 317 320 320 320 320 322 324 325 334 331 331 320 326 327 326 333 340 342 342 342 343 344 345 346 347 347 346 345 345 345 346 346 346 347 346 346 346 346 346 345 344
314 311 317 317 317 317 318 321 318 323 326 319 326 330 324 322 322 323 325 341 341 340 339 341 342 344 344 346 347 347 346 345 346 346 347 347 347 347 347 347 346 346 346 346
311 314 315 314 317 314 316 315 312 312 313 324 328 329 323 325 321 320 322 323 332 339 340 339 341 343 344 344 346 347 347 345 346 347 348 347 347 347 347 347 347 347 347 346
313 309 312 315 317 315 316 315 314 314 318 320 325 325 322 321 321 320 320 320 322 336 338 340 341 343 343 344 345 346 347 346 345 346 347 348 348 348 348 347 347 347 347 347
309 309 311 312 313 315 315 315 314 315 315 319 322 323 323 321 321 322 331 334 326 323 339 340 341 343 343 343 344 345 346 346 345 345 346 348 348 348 348 348 348 348 349 348
307 306 312 311 312 314 315 314 316 316 317 316 319 322 324 339 342 342 341 343 345 332 326 341 342 343 343 343 344 345 346 347 346 346 345 346 347 348 348 348 347 347 347 347
308 309 312 312 311 313 317 317 320 323 320 324 327 326 330 343 336 331 331 336 341 345 344 326 341 344 343 342 344 344 346 347 347 347 346 346 347 347 348 349 349 349 348 348
307 308 310 313 312 321 320 320 322 320 318 318 319 319 340 338 332 328 326 329 335 340 348 341 341 344 344 343 343 344 345 347 348 347 347 347 347 348 348 349 350 351 350 350
305 309 312 314 316 318 321 321 319 320 321 317 316 316 318 327 333 332 323 323 331 334 336 348 340 342 344 342 343 343 344 346 347 348 348 348 349 349 349 350 350 352 353 353
306 307 311 319 316 328 325 316 313 317 323 316 314 313 314 324 327 324 321 320 325 331 332 347 345 340 341 341 342 341 343 344 345 348 348 349 350 351 351 351 351 351 353 354
310 312 312 314 318 319 313 312 312 330 322 315 312 312 312 315 318 321 319 319 319 327 331 334 346 349 351 340 342 341 341 343 344 346 347 349 350 351 351 352 353 353 354 354
314 314 315 316 316 322 310 311 317 313 312 313 312 311 312 312 314 317 317 317 317 318 328 330 332 340 348 347 342 341 342 342 343 345 347 348 349 350 351 352 353 354 355 356
312 311 315 312 314 311 310 310 311 312 312 312 312 312 313 313 312 313 315 317 316 317 318 328 330 331 334 343 355 354 349 346 344 344 344 346 348 351 352 353 354 355 356 357
309 309 311 311 311 310 310 311 311 312 312 312 313 314 314 314 313 312 313 314 315 315 315 319 328 331 332 332 339 347 353 349 352 352 351 347 347 348 351 354 355 356 357 358
309 309 310 310 310 310 310 310 311 312 312 314 314 315 315 314 315 313 312 312 316 313 314 315 319 325 329 329 332 337 340 346 349 351 354 356 357 356 354 352 353 355 356 357
308 308 310 312 309 310 310 311 312 313 314 316 316 316 315 314 314 314 313 310 313 313 313 315 317 320 321 320 322 329 333 337 341 344 346 348 350 354 358 357 357 357 357 357

GFSCGP_925_thetae_069.txt.gz
Theta_e
318 320 321 318 319 320 324 326 327 334 338 340 345 353 359 357 352 353 353 351 350 349 346 346 347 347 347 346 346 345 344 345 345 343 344 346 347 348 350 346 346 346 347 348
318 318 318 318 317 319 321 325 329 331 331 339 342 344 353 358 357 354 351 351 350 349 349 348 348 347 347 347 346 345 344 342 345 344 345 347 348 348 351 346 347 345 348 348
320 320 318 317 317 319 320 322 326 329 331 336 345 347 354 357 357 355 353 350 349 350 350 349 348 348 347 347 347 346 343 341 339 344 346 346 346 346 349 349 346 344 346 348
321 320 318 318 318 318 320 320 322 325 327 340 346 352 356 357 360 357 356 354 352 350 349 348 348 348 347 347 347 347 345 343 340 341 346 348 347 347 348 350 349 345 345 346
325 323 321 320 318 318 318 318 318 321 326 330 333 353 348 354 360 359 356 355 353 351 350 349 348 347 347 347 347 347 346 344 343 343 344 348 349 349 349 349 348 347 345 344
325 320 324 322 321 319 319 323 320 320 322 329 332 337 345 348 352 353 355 355 353 351 350 349 347 348 347 347 346 346 346 344 344 344 344 345 347 349 348 348 348 349 349 348
320 321 319 322 324 323 322 323 330 327 326 328 332 334 338 339 345 344 350 355 354 352 351 351 350 348 348 348 347 346 346 346 344 344 346 345 345 347 348 348 348 347 347 348
323 322 321 321 322 325 326 328 326 330 327 325 331 337 338 336 336 342 345 348 351 353 352 352 351 349 349 349 349 348 348 347 345 345 345 344 344 347 347 347 347 347 346 346
322 321 317 320 321 323 326 330 327 328 327 328 329 333 333 332 334 335 337 343 347 349 353 353 351 350 349 349 349 348 349 348 347 346 345 345 344 345 347 346 345 347 346 345
317 311 314 319 319 321 324 326 331 330 329 333 330 332 334 337 335 334 337 340 342 346 348 351 351 350 350 349 349 348 348 349 348 347 347 347 347 346 346 347 346 346 345 344
312 311 309 314 321 324 324 325 326 329 330 331 333 331 330 333 336 336 335 339 343 346 347 348 352 351 350 349 349 349 348 348 349 348 348 348 348 348 348 348 347 346 344 344
314 314 312 310 316 317 317 322 325 329 334 332 331 331 330 331 331 331 332 334 339 344 346 347 350 351 350 350 349 349 348 348 348 348 348 348 348 348 349 348 348 347 346 344
315 315 310 307 316 318 320 319 319 320 322 331 334 332 331 331 332 332 330 331 334 343 345 347 347 351 352 352 351 350 349 348 348 348 349 349 349 349 349 349 348 348 347 345
314 314 314 312 316 314 318 318 317 319 326 327 330 331 331 331 332 332 330 328 329 331 342 345 346 349 350 350 352 351 350 349 348 348 349 350 350 349 349 349 349 349 347 346
314 312 311 309 309 310 311 312 315 319 321 326 327 329 330 331 331 342 341 343 345 344 338 340 345 348 350 350 350 351 351 350 349 349 350 350 350 350 350 350 350 350 349 347
313 310 312 310 308 313 313 312 313 316 317 320 322 326 326 331 342 340 338 339 342 346 347 343 343 347 351 349 349 350 351 350 349 350 350 351 351 351 351 350 350 351 350 349
312 310 310 307 311 314 315 316 315 316 323 325 328 327 328 337 341 338 337 337 340 342 343 345 349 346 351 348 348 350 350 351 350 350 350 351 352 352 351 351 351 351 352 353
311 311 312 309 309 315 322 322 321 321 322 322 324 324 324 337 336 330 328 330 334 338 342 342 344 348 346 346 346 348 349 350 350 350 350 350 352 352 352 351 351 351 351 351
309 311 310 310 311 314 318 318 319 323 322 318 320 320 318 322 329 332 323 322 325 332 337 340 346 349 340 346 347 348 350 351 351 351 351 350 350 351 352 352 352 352 352 352
309 310 313 310 313 317 320 315 314 316 328 318 317 317 317 326 344 327 321 320 320 328 335 340 351 346 342 347 346 349 351 351 352 351 351 351 351 351 351 352 352 352 353 353
310 311 312 312 311 313 313 311 312 328 325 314 315 316 317 321 320 319 318 320 319 322 334 340 349 351 348 347 348 350 351 352 351 351 351 352 351 351 352 352 353 354 354 355
310 311 311 311 312 314 310 311 316 312 313 314 315 315 317 318 316 315 316 319 319 320 327 335 340 345 351 348 348 350 351 350 350 351 352 353 353 352 353 354 354 354 355 356
314 311 315 313 315 311 310 311 309 311 313 314 315 315 317 318 317 316 315 318 320 319 319 326 332 337 341 348 351 349 351 348 350 351 352 353 354 354 354 355 356 357 357 356
308 307 311 311 312 311 310 310 311 311 312 313 314 315 316 317 316 317 317 318 322 320 319 321 322 326 330 337 342 347 352 352 350 350 351 352 353 354 354 355 355 355 356 357
306 306 308 310 309 309 311 310 311 312 313 314 316 317 316 316 316 316 316 318 318 321 320 321 322 322 323 325 331 336 343 352 356 355 353 350 351 352 355 354 355 356 356 357
307 308 309 312 309 310 311 310 310 311 311 313 314 316 317 317 316 316 316 316 316 317 320 321 321 321 321 321 322 327 332 339 346 349 352 353 359 358 355 354 353 354 355 357

GFSCGP_925_thetae_072.txt.gz
Theta_e
320 322 322 322 323 323 323 323 324 331 343 348 350 355 360 357 357 357 357 355 352 352 349 348 347 346 343 344 345 345 344 344 345 344 344 346 348 348 350 352 353 355 355 355
321 321 322 321 322 322 322 325 326 330 339 345 348 351 353 359 357 357 357 356 352 352 351 349 348 347 344 344 345 345 344 345 346 343 343 345 347 349 350 351 353 354 355 356
324 323 321 321 321 321 322 323 325 328 334 341 346 350 348 351 356 354 355 355 353 352 352 351 349 348 347 345 346 346 345 345 346 342 344 349 350 351 352 352 351 352 354 355
324 325 323 321 321 321 322 322 322 326 332 342 343 351 350 348 357 356 356 356 354 352 351 351 349 349 348 346 346 347 347 346 345 346 345 349 348 347 346 348 349 350 353 354
324 325 325 324 324 322 322 321 322 322 327 334 344 350 346 349 355 357 356 355 354 353 351 350 351 349 349 348 347 347 348 347 343 346 345 349 349 344 346 347 350 353 354 354
327 325 325 325 324 323 321 321 321 322 322 329 335 342 346 352 354 356 355 355 354 353 352 351 349 349 350 349 347 347 348 349 347 345 346 346 347 346 348 349 348 349 349 351
325 326 326 325 325 324 323 322 327 324 322 322 327 334 340 342 349 350 353 355 354 354 354 353 352 350 350 350 349 348 349 352 350 349 346 346 348 351 352 352 350 347 347 347
323 324 326 325 326 327 325 326 325 330 324 322 323 329 334 337 339 343 344 347 351 353 353 354 353 351 350 350 349 349 351 353 351 351 350 349 349 349 351 351 349 349 347 346
322 322 323 323 325 325 328 328 327 326 329 330 325 324 331 334 337 340 340 343 347 351 352 353 353 352 351 350 351 351 352 354 353 350 352 352 351 350 348 349 351 350 350 348
316 316 320 323 323 325 327 328 330 330 332 334 330 328 327 333 338 339 339 339 342 344 349 351 352 352 351 351 351 351 352 354 353 351 352 352 352 352 350 350 352 352 350 351
313 313 316 317 323 325 326 328 329 330 331 334 333 330 329 331 334 336 337 338 338 339 342 348 351 351 352 352 352 352 352 353 353 352 352 352 351 352 352 351 352 354 354 353
313 313 315 313 322 321 322 327 328 332 335 333 333 330 331 330 332 336 336 336 337 338 342 345 350 352 352 352 352 352 352 352 353 353 354 353 353 352 352 353 352 353 354 355
314 313 315 315 313 316 322 325 326 328 330 334 336 334 332 333 334 333 333 334 335 336 339 345 347 352 353 352 353 352 352 352 351 352 353 353 353 353 353 353 353 353 354 355
312 312 313 314 315 316 320 323 323 326 331 331 332 334 332 331 332 335 339 340 339 337 337 343 347 349 353 353 355 354 352 352 350 350 351 353 355 354 353 354 354 354 354 355
313 315 314 313 312 311 312 313 316 322 326 330 329 331 333 333 334 338 341 341 341 343 343 341 347 348 351 353 355 355 353 353 351 351 351 354 355 355 355 355 355 355 355 355
312 314 312 313 312 310 311 312 313 314 320 325 326 329 329 330 333 335 341 342 342 344 345 346 346 343 347 350 354 356 356 354 354 354 354 354 357 357 357 357 356 356 356 356
313 313 313 312 310 311 312 312 314 316 318 321 326 326 328 332 334 341 340 341 342 343 344 347 347 349 345 346 350 355 357 355 355 357 356 356 357 358 358 357 357 357 357 357
312 313 313 312 311 312 313 324 323 322 317 319 324 327 330 330 339 336 334 335 336 338 341 345 347 346 347 346 346 351 353 356 357 358 358 357 358 359 358 358 358 359 358 358
310 311 313 312 311 310 311 320 320 322 322 324 326 327 327 326 331 337 330 329 332 332 334 341 344 346 348 349 345 348 351 354 356 358 358 358 358 359 359 359 359 358 358 358
311 310 314 313 311 312 320 315 314 315 327 321 322 324 324 327 339 338 326 325 326 327 329 340 345 349 353 352 348 347 352 355 358 358 358 358 358 359 359 359 359 358 358 357
315 315 315 314 314 311 316 314 314 323 323 317 318 319 322 324 327 324 322 322 321 321 322 335 346 351 356 349 347 352 353 356 357 356 355 356 357 359 359 359 359 359 358 357
313 313 314 312 314 313 314 315 319 315 312 315 316 317 319 319 320 322 322 321 321 322 321 325 342 349 355 350 348 357 357 354 356 355 355 357 357 356 357 358 359 359 359 359
314 314 314 313 313 314 312 313 313 312 312 312 314 315 317 318 319 321 321 320 320 322 321 322 330 344 350 356 351 354 355 355 355 356 357 357 357 357 356 358 359 359 359 359
309 304 312 312 314 314 310 313 312 311 312 313 314 316 317 319 318 319 319 319 320 320 323 323 323 328 335 344 352 355 356 355 356 357 357 358 359 358 357 358 359 359 359 359
308 307 310 312 312 309 310 311 310 311 312 312 313 314 316 318 318 318 318 318 319 320 322 323 324 323 324 327 335 344 355 354 354 356 357 357 358 358 359 358 358 358 358 358
306 307 309 311 308 309 309 309 309 310 311 312 313 314 315 315 318 318 317 317 317 319 321 323 325 324 324 325 327 330 337 352 358 357 355 355 354 356 356 357 357 355 354 357

GFSCGP_925_thetae_075.txt.gz
Theta_e
328 326 326 327 327 325 325 325 325 330 340 345 348 352 365 357 356 358 358 357 354 354 351 348 347 346 344 343 344 345 346 345 347 349 347 348 347 348 349 348 352 353 354 354
326 326 325 325 325 325 325 325 326 327 330 344 348 350 357 356 357 357 357 358 354 354 352 350 348 347 345 343 345 345 346 347 347 346 345 346 347 347 348 348 352 353 353 356
328 325 324 324 324 324 325 325 326 327 329 336 345 349 357 363 360 356 356 356 354 353 353 352 350 348 346 344 346 347 347 348 347 344 345 346 347 349 349 351 351 353 353 354
326 325 325 324 325 325 325 324 325 326 328 338 341 349 349 364 365 356 355 357 355 350 353 352 352 350 348 345 346 347 347 348 348 346 343 347 348 347 347 349 347 352 352 353
324 326 326 327 326 324 325 325 324 324 326 330 337 342 342 349 355 356 355 355 355 352 351 353 352 350 349 346 345 347 348 349 347 347 344 347 348 346 346 346 351 351 352 353
327 324 324 326 327 326 326 325 325 325 324 326 332 338 342 346 349 354 354 354 354 354 352 352 350 350 350 349 346 347 350 351 349 349 346 349 347 347 344 346 350 350 351 353
323 327 326 325 327 327 327 327 328 326 326 325 325 331 344 341 347 349 353 354 354 353 353 352 352 351 351 350 349 347 351 354 351 350 348 351 352 349 349 350 347 347 346 347
323 324 325 327 327 328 328 327 328 330 327 325 324 327 334 338 344 346 350 352 353 354 353 353 353 352 351 351 352 351 352 355 354 351 349 348 350 347 346 352 348 347 346 346
319 322 325 326 327 327 328 328 327 328 329 328 326 325 327 331 336 345 346 351 353 354 354 354 353 352 351 352 354 354 353 355 356 352 351 351 350 347 347 350 351 352 348 346
318 321 323 325 326 326 327 329 329 329 333 332 331 329 326 329 333 337 341 346 348 352 352 352 354 353 352 351 352 354 354 357 357 353 354 353 352 351 351 352 355 352 350 350
316 317 318 320 325 326 327 328 330 330 330 333 333 333 331 329 332 336 337 341 344 345 349 350 351 352 353 352 351 353 355 357 358 356 354 353 354 352 351 353 354 353 354 353
316 316 318 317 318 320 323 326 327 333 335 332 333 333 332 330 330 334 337 339 340 341 344 346 349 351 352 353 353 353 353 353 356 356 355 355 355 354 355 353 352 354 355 356
317 317 318 316 316 317 321 325 328 327 331 335 334 334 334 333 333 334 336 337 338 339 340 341 345 351 352 353 354 354 353 353 354 356 356 357 357 357 356 356 354 353 355 357
314 316 318 318 318 318 320 319 325 328 331 331 334 333 335 334 335 338 342 343 343 342 339 342 345 349 352 354 357 357 354 353 353 354 354 357 359 358 357 356 356 355 356 358
313 315 316 316 316 316 316 319 322 328 329 332 331 333 335 335 334 341 343 342 342 342 344 341 344 347 351 354 359 358 355 355 354 355 354 357 359 359 358 357 357 358 358 358
313 316 316 316 316 316 316 315 316 318 321 324 329 331 332 331 334 336 336 342 343 343 345 346 347 347 349 352 355 359 358 357 356 357 355 355 359 360 360 359 358 359 359 359
315 317 317 318 315 315 316 316 315 316 317 320 325 329 330 331 332 340 343 342 341 342 343 346 348 349 348 347 351 356 359 357 357 359 357 356 359 361 361 360 360 361 361 360
312 315 316 320 316 318 315 316 318 320 318 318 320 322 326 329 333 333 339 337 337 339 339 340 343 347 347 346 346 350 355 359 359 359 361 358 360 362 362 362 363 363 363 362
311 311 317 318 316 315 314 322 323 324 321 327 320 320 324 329 330 332 333 333 332 334 335 336 338 343 347 349 349 348 353 358 361 362 362 361 361 363 364 364 364 364 364 364
312 312 313 314 317 316 321 319 318 321 323 325 325 325 326 327 332 334 330 329 329 330 331 333 336 345 348 350 353 351 350 357 362 361 362 363 362 363 365 365 364 364 364 364
317 317 316 315 315 313 317 317 316 323 323 320 319 321 322 323 325 326 326 328 326 327 327 331 334 344 351 354 358 357 353 356 359 360 362 364 363 364 365 365 365 365 364 361
315 318 320 318 316 315 315 316 317 320 319 317 317 316 318 319 320 321 324 326 325 326 325 329 330 339 343 356 362 361 358 356 358 360 362 363 364 363 363 365 366 365 365 365
316 313 316 316 315 313 315 315 315 315 316 315 316 316 317 319 320 321 322 325 324 322 322 325 327 332 331 339 356 355 359 358 359 361 362 363 363 363 362 365 366 365 365 362
312 309 312 313 312 314 314 314 314 313 313 313 314 315 315 318 320 320 320 323 323 320 320 323 325 329 329 331 333 341 346 357 359 362 363 363 363 363 362 363 364 362 361 362
310 308 311 312 312 311 312 310 310 310 311 312 312 314 314 315 317 320 320 321 320 319 320 323 325 325 327 327 327 328 331 344 359 360 360 361 361 361 363 361 360 361 359 359
306 306 309 310 306 306 307 308 308 309 310 311 312 314 314 315 316 317 320 318 318 318 321 322 326 325 325 325 323 325 327 329 346 358 360 360 360 362 361 360 358 358 358 358

GFSCGP_925_thetae_078.txt.gz
Theta_e
332 332 331 330 328 329 327 326 325 327 331 335 338 355 353 347 345 352 356 354 354 353 351 349 348 347 344 343 346 349 346 349 349 350 351 351 349 350 350 350 354 354 353 355
332 331 330 326 327 328 328 326 326 327 328 332 343 358 350 348 344 348 353 355 353 354 351 351 349 348 346 344 347 347 347 348 347 352 350 350 351 348 349 351 352 350 354 355
327 328 328 327 326 327 327 326 326 327 328 329 338 362 352 348 350 353 356 355 353 355 353 353 350 349 347 346 349 347 350 351 348 350 347 348 347 349 347 353 352 354 352 355
329 328 327 326 326 326 326 326 325 326 327 328 330 335 365 360 362 358 357 354 353 352 354 352 350 350 348 347 349 349 350 352 346 347 347 348 350 351 348 348 354 352 354 354
325 327 327 327 326 326 326 326 326 325 326 327 328 337 339 364 361 350 352 354 352 349 354 353 352 350 349 348 349 351 349 353 348 346 348 347 350 348 352 349 349 354 352 353
326 326 325 326 327 327 326 326 327 326 325 326 327 330 338 363 352 343 348 355 353 350 350 353 352 350 350 349 348 351 351 352 350 343 349 348 348 350 349 348 353 355 351 353
320 323 326 325 325 326 328 327 328 328 326 325 325 327 335 344 357 350 348 355 355 352 351 353 353 353 352 350 348 350 352 352 351 350 347 353 346 347 351 347 354 350 355 353
320 323 322 326 326 326 328 328 330 331 328 326 326 328 328 332 335 355 357 353 355 356 351 353 355 353 353 352 349 349 354 353 352 353 346 348 352 346 349 353 347 350 349 350
320 318 320 324 326 327 328 330 328 329 329 328 327 327 327 329 334 345 350 352 354 349 355 354 355 354 354 354 353 350 354 355 354 352 352 347 354 354 349 351 351 347 347 349
318 318 319 323 325 326 327 328 330 330 333 335 330 333 330 330 332 344 348 349 351 349 351 355 354 354 354 354 355 353 354 356 356 353 353 351 348 352 349 344 351 352 353 347
317 317 318 319 323 327 328 329 328 329 329 332 332 331 333 333 332 333 349 350 351 352 353 354 355 354 354 355 354 356 354 357 358 357 353 352 351 350 346 351 347 352 350 350
317 317 318 318 320 321 326 327 328 332 335 332 333 333 336 334 330 331 334 347 347 347 351 349 353 355 355 355 355 357 356 358 359 358 356 353 353 351 350 345 356 355 357 355
316 319 320 318 318 318 319 320 324 326 330 337 333 333 333 334 332 331 333 336 345 349 349 349 351 355 355 355 355 356 356 357 359 360 358 356 355 354 352 349 352 357 353 354
313 315 318 321 320 319 320 318 321 324 329 330 333 335 335 337 342 344 346 347 345 349 347 348 348 353 353 356 356 356 356 356 357 360 359 358 357 356 355 355 350 354 357 356
313 314 314 316 316 318 318 319 319 320 325 330 331 334 335 336 340 339 344 344 344 346 350 352 352 351 350 358 358 357 357 355 356 357 359 360 358 357 358 358 358 355 354 357
315 317 316 317 315 317 318 319 318 319 322 328 330 331 334 334 333 339 345 345 346 347 347 350 352 354 353 353 360 358 358 357 356 357 358 358 360 359 359 359 359 359 357 358
313 320 317 318 315 316 317 318 318 318 319 322 324 325 327 332 334 336 340 342 341 341 342 343 344 346 350 349 351 361 360 358 358 359 358 359 360 361 361 361 360 360 360 359
312 312 318 316 315 323 318 317 318 317 318 318 318 320 322 327 332 333 335 338 336 336 336 338 338 339 342 345 350 352 361 359 361 360 362 360 359 361 362 362 362 360 361 362
312 312 318 318 314 317 318 322 324 325 321 326 328 329 327 328 329 331 329 331 332 331 333 334 335 337 339 346 348 351 353 359 360 361 362 362 360 361 363 363 362 362 362 362
316 316 316 313 317 317 321 318 318 317 324 324 323 323 324 326 326 329 325 327 329 328 330 330 334 337 342 348 352 356 358 355 364 361 362 363 361 361 363 364 363 363 363 363
318 318 320 318 315 313 318 318 317 318 323 321 320 320 321 323 324 322 322 325 326 326 326 327 332 334 335 336 342 350 364 365 356 364 361 363 364 361 363 365 365 365 365 365
315 318 319 319 318 317 316 316 316 320 317 317 317 318 318 319 319 321 322 324 325 326 324 325 328 331 333 333 335 339 349 348 366 360 364 363 364 365 364 365 366 366 366 366
316 313 312 314 318 315 314 315 315 316 316 317 317 316 316 317 317 320 322 323 323 324 322 323 325 329 331 330 328 332 335 338 346 360 366 364 365 366 364 366 367 368 367 367
312 310 311 311 310 310 310 312 313 311 312 313 313 314 314 316 315 318 320 321 322 322 322 322 325 327 327 328 324 326 329 333 343 367 366 365 367 367 366 365 366 368 368 368
311 310 310 310 310 308 309 307 309 309 309 310 311 312 314 314 316 316 319 320 321 321 321 323 324 326 325 326 325 322 326 330 336 360 366 366 366 366 367 364 367 367 367 366
309 310 310 311 307 306 305 306 306 308 308 308 309 310 311 313 315 316 318 319 320 319 320 322 324 326 324 325 324 321 323 326 330 343 350 362 364 364 364 365 363 366 366 364

GFSCGP_925_thetae_081.txt.gz
Theta_e
329 330 330 328 327 327 328 328 324 323 324 330 336 366 364 358 351 356 357 355 350 349 347 347 345 344 345 347 346 347 348 348 347 350 344 349 351 350 350 352 354 353 353 350
331 331 330 329 328 328 326 326 326 324 325 326 353 362 356 353 347 352 349 347 350 349 348 349 346 344 345 346 347 346 348 348 349 350 346 349 350 349 349 349 354 354 353 352
325 329 330 329 328 326 324 324 324 325 324 324 350 357 349 347 347 345 351 349 347 350 349 349 347 344 345 345 348 347 350 348 350 349 345 349 351 346 353 352 353 352 354 353
327 326 326 327 328 326 322 325 325 325 323 323 324 350 354 349 353 351 353 352 351 349 349 348 347 345 343 346 346 349 350 347 351 349 346 348 350 350 351 354 351 353 350 355
323 324 326 328 327 324 324 325 324 325 322 321 322 322 354 351 355 354 352 344 348 349 350 348 347 347 344 347 346 347 350 348 347 351 347 347 348 348 351 351 350 353 353 354
321 323 324 324 326 325 325 324 323 323 322 320 320 323 349 358 352 347 355 351 352 352 350 348 347 348 346 347 347 346 351 349 346 346 349 346 347 348 352 348 350 353 352 353
319 320 321 323 323 323 325 325 324 323 323 324 319 320 321 357 354 349 354 355 349 349 351 350 348 347 347 346 349 347 352 352 347 345 348 347 345 347 350 352 354 353 351 352
315 316 319 321 323 323 323 322 324 327 327 325 321 322 322 329 353 348 348 348 343 350 351 350 349 348 348 347 350 350 349 353 350 346 344 349 346 346 349 355 353 353 351 349
317 318 317 317 318 323 323 323 323 324 324 327 326 324 323 324 330 348 343 345 349 352 347 351 350 349 348 348 348 351 350 350 352 349 343 346 349 344 346 348 353 352 352 352
315 315 316 316 317 320 323 324 325 323 328 330 328 327 328 323 323 348 351 351 355 353 351 351 348 350 349 349 348 350 351 350 352 350 346 344 350 346 343 344 351 350 348 349
314 315 316 316 317 317 319 323 323 324 325 327 327 327 326 336 327 341 349 350 353 353 353 352 351 348 346 350 349 348 353 351 352 350 351 345 345 350 348 351 347 351 349 354
313 314 316 317 317 316 316 317 325 327 328 328 331 330 333 336 340 333 346 347 348 349 349 347 346 345 342 341 352 349 353 353 352 351 351 351 344 347 350 351 346 346 349 351
311 314 315 316 315 316 317 317 317 322 321 325 331 332 334 334 334 339 346 347 348 347 345 342 344 345 343 342 351 352 352 354 354 354 351 352 351 344 350 349 348 345 345 349
311 310 312 314 315 314 316 317 318 318 320 324 326 328 335 335 335 341 342 345 348 346 343 342 343 341 341 345 349 353 353 355 356 355 354 353 352 351 346 346 344 350 350 355
311 311 311 312 313 314 314 315 317 318 318 319 320 325 332 336 340 338 338 341 344 345 346 346 348 345 345 349 350 353 355 354 357 357 357 355 353 352 352 349 348 341 355 354
313 314 316 315 314 314 315 315 316 317 318 317 318 327 331 334 335 335 335 337 336 337 338 337 340 346 348 350 350 354 355 355 357 358 358 357 356 354 354 354 352 350 344 358
312 317 315 315 313 313 316 315 316 316 317 318 318 328 327 334 336 335 333 331 333 333 334 332 335 337 339 347 344 343 341 349 356 358 359 358 357 357 356 356 355 355 353 348
310 312 317 315 314 316 313 313 318 321 324 325 327 327 331 333 332 331 329 328 329 331 331 330 331 334 340 344 347 349 344 337 348 356 358 359 359 358 357 356 357 357 358 356
313 315 315 314 315 313 313 318 320 318 322 322 323 323 322 322 327 324 324 324 325 327 327 327 329 333 335 335 340 346 341 336 353 359 357 359 359 359 359 357 357 358 358 359
312 314 316 316 316 317 318 318 317 316 321 319 319 319 320 321 326 322 320 322 322 324 325 324 326 330 334 333 333 338 341 348 343 349 362 359 359 359 360 361 359 360 359 359
314 317 317 317 317 315 315 317 316 315 322 316 316 317 317 317 319 318 319 321 320 323 325 323 325 327 331 330 328 330 333 334 334 340 349 363 360 359 360 361 361 360 361 360
314 315 314 316 318 318 311 315 319 317 314 314 315 315 315 314 314 316 317 319 321 322 323 322 323 325 328 328 326 325 327 328 332 336 344 359 364 360 361 361 362 362 361 361
316 312 311 312 315 310 308 308 309 310 312 312 311 311 312 312 313 314 315 316 319 321 321 322 322 325 327 326 327 323 324 327 332 335 339 356 363 363 361 363 363 363 363 363
313 310 310 309 310 308 307 306 305 307 307 307 308 309 310 311 312 312 313 315 317 319 321 321 322 324 327 325 326 322 323 326 330 332 337 360 363 366 363 364 364 365 364 364
311 309 309 309 308 306 307 305 305 305 305 306 307 307 308 308 309 311 313 313 316 318 320 320 322 323 326 325 324 319 321 324 328 329 332 346 364 365 366 365 365 365 365 365
309 307 307 308 306 306 306 305 305 304 305 304 304 305 306 307 307 308 310 314 316 318 319 319 322 325 324 322 320 318 319 322 325 327 330 330 342 355 365 364 364 365 365 365

GFSCGP_925_thetae_084.txt.gz
Theta_e
325 327 329 330 326 325 326 326 325 326 324 323 353 364 360 352 358 354 355 353 352 350 344 342 342 344 347 347 348 346 345 346 347 347 347 351 350 351 351 350 349 352 351 352
329 329 328 327 327 326 326 326 324 323 324 322 360 365 361 356 359 349 348 354 352 349 347 343 342 344 347 346 346 347 345 343 346 345 345 350 349 351 349 351 352 353 351 351
329 329 329 330 328 328 325 323 323 323 323 347 358 363 364 359 356 355 351 353 351 349 348 344 343 343 347 346 346 346 346 345 343 345 344 349 352 350 349 351 353 353 354 350
325 325 324 329 328 327 324 323 323 324 321 321 337 339 353 355 351 351 356 353 351 349 347 346 343 342 346 346 346 347 347 346 345 344 343 349 351 348 350 349 353 354 354 351
320 324 324 325 325 325 326 324 323 323 322 318 320 324 342 348 351 349 349 351 350 349 349 347 344 343 344 346 346 347 347 347 346 344 343 348 349 349 348 351 352 351 354 351
318 320 321 321 323 324 323 322 320 318 317 320 318 319 334 352 350 348 345 350 350 350 349 347 346 343 344 344 347 348 348 348 347 345 343 344 347 349 350 352 353 353 352 352
315 316 316 318 320 320 322 319 322 323 320 321 317 318 318 347 347 347 346 347 347 348 349 348 347 343 343 344 346 350 348 348 348 347 345 342 346 347 350 352 352 351 353 353
315 315 314 315 315 320 321 319 322 326 324 322 319 322 321 324 344 344 346 347 340 344 347 348 348 345 342 345 344 350 350 348 347 349 348 344 345 346 348 351 350 349 351 352
313 315 315 316 315 316 319 321 318 320 321 322 322 323 324 337 335 343 344 348 347 350 349 348 348 346 345 345 345 345 350 348 347 346 346 346 344 345 345 351 352 349 350 350
313 314 313 315 314 314 313 314 322 318 325 327 325 324 325 338 341 343 346 348 351 347 350 350 348 347 346 345 346 345 347 349 348 347 345 344 344 344 345 346 352 354 350 350
311 311 313 314 313 315 314 315 314 319 319 323 325 325 335 337 342 342 343 344 348 347 351 350 349 348 347 347 347 347 346 348 349 348 346 344 344 345 345 345 346 352 353 351
309 309 313 315 313 314 314 313 313 318 323 322 321 327 331 338 339 340 345 345 345 349 350 351 351 349 346 346 347 348 349 347 349 349 348 346 344 344 346 346 344 344 352 351
309 308 310 311 311 310 312 313 312 312 312 320 326 326 335 337 339 338 341 347 347 346 344 343 345 348 346 345 345 347 350 349 348 349 349 348 345 342 345 347 347 344 346 352
309 304 308 310 310 309 313 314 314 313 313 315 316 317 337 338 339 338 337 337 338 339 340 339 341 344 341 343 344 344 347 351 350 349 349 349 348 344 341 345 345 347 347 346
307 309 311 313 312 313 313 313 314 314 314 315 315 316 337 336 335 335 336 335 336 335 335 336 337 345 343 346 347 347 346 346 351 350 350 349 350 348 344 341 346 344 346 345
309 311 312 311 312 311 311 311 314 314 317 322 320 325 329 333 331 332 333 335 335 333 332 333 334 335 338 341 347 348 351 348 352 352 351 350 350 350 349 344 342 344 343 346
309 310 309 313 311 309 308 312 317 318 324 326 331 327 321 333 329 328 328 330 333 332 330 330 331 332 334 336 342 346 342 346 352 354 353 353 350 351 350 350 347 344 344 341
306 309 310 310 309 311 306 311 318 322 321 320 320 320 320 323 323 320 321 324 326 330 328 327 327 330 333 333 332 340 346 343 343 345 350 354 355 352 351 351 351 349 348 346
308 308 310 311 310 310 312 317 319 316 320 318 317 318 317 317 321 319 319 321 321 324 325 324 325 327 330 330 328 331 339 342 341 344 343 350 354 355 354 353 352 352 352 351
307 309 312 309 312 315 315 314 315 315 318 316 317 317 316 316 319 317 316 318 320 321 323 322 323 324 327 329 325 325 329 332 333 339 337 346 348 356 355 355 354 354 354 355
307 308 309 310 312 315 311 312 313 317 317 313 314 313 312 313 314 311 314 314 316 319 322 322 321 322 324 327 326 322 323 325 328 332 337 342 340 348 357 356 355 355 356 355
309 307 304 307 314 315 308 311 314 312 311 311 311 310 310 310 311 311 311 313 315 316 320 320 321 321 322 325 326 323 321 322 326 328 332 341 339 347 358 357 357 356 356 357
311 308 305 307 307 307 306 307 305 304 305 306 306 307 307 308 309 309 310 311 312 314 318 319 320 320 322 324 325 322 319 320 324 327 331 335 344 350 358 358 358 358 357 358
311 307 304 306 306 306 305 304 304 304 303 304 304 305 306 307 307 307 308 309 311 313 316 319 319 320 321 324 324 321 317 319 322 325 329 332 337 357 360 358 359 360 359 359
306 305 305 304 304 304 305 303 303 305 303 303 303 304 304 304 304 305 306 307 308 310 314 318 319 318 321 323 321 319 316 318 320 323 327 328 332 343 359 359 360 360 361 360
304 303 302 303 303 302 301 302 303 304 303 303 302 303 302 302 302 304 305 305 306 308 312 317 318 319 321 321 318 317 315 317 319 322 324 327 328 334 341 357 361 361 362 361

GFSCGP_925_thetae_087.txt.gz
Theta_e
320 325 328 329 326 326 325 325 326 325 323 336 360 358 358 354 356 355 354 350 350 349 341 342 340 344 346 346 345 345 346 348 350 349 350 351 351 351 350 350 349 349 350 348
325 327 326 327 327 327 327 327 325 323 322 320 343 360 355 355 355 355 354 352 350 348 342 341 340 346 347 346 345 346 347 347 349 348 349 350 351 350 349 349 349 351 350 351
327 329 329 329 329 328 326 325 325 324 325 355 356 363 361 354 354 356 349 351 350 349 343 341 340 346 346 346 346 347 347 347 346 347 346 349 350 350 350 350 350 351 350 351
327 326 328 327 329 326 327 323 324 323 320 321 338 354 357 358 356 355 355 348 351 350 345 341 340 345 346 346 346 346 347 346 344 344 345 346 350 349 350 349 351 351 352 351
323 323 324 324 324 325 326 325 323 322 319 318 319 323 339 356 358 354 353 352 350 350 347 342 341 344 346 345 345 346 345 345 342 343 343 344 349 350 350 349 350 352 353 353
317 318 319 320 322 322 324 322 318 315 315 319 319 318 322 357 357 352 349 348 352 349 347 344 342 342 345 345 345 346 346 345 344 343 342 343 347 350 349 348 349 351 353 353
313 314 313 313 318 318 318 318 321 321 319 320 316 319 320 332 346 350 348 346 348 350 346 346 343 341 343 345 345 346 346 346 345 345 343 341 345 349 348 348 351 350 350 354
312 314 313 314 315 316 318 318 320 324 323 321 315 321 328 336 335 338 339 343 345 347 347 347 345 342 342 344 345 347 347 347 346 346 345 343 342 347 347 348 349 351 351 351
312 315 313 315 314 314 317 316 316 317 317 321 321 321 325 338 340 340 340 341 342 343 346 347 346 343 342 343 345 347 347 347 347 346 346 344 343 341 343 346 349 352 351 351
313 314 313 313 313 313 312 312 318 316 322 325 323 325 339 344 343 344 348 347 343 342 343 345 347 346 342 343 343 347 347 346 346 347 346 345 344 342 340 345 346 351 350 349
310 310 312 312 312 313 311 312 311 315 317 321 323 339 338 343 340 342 342 345 342 344 343 345 345 347 344 342 343 344 348 347 346 346 347 347 345 343 341 343 344 345 352 351
307 307 311 313 309 311 312 311 310 314 317 317 319 336 333 336 336 337 338 336 338 341 343 346 347 346 346 344 344 343 345 348 347 346 346 346 346 345 343 340 342 345 346 351
308 305 307 309 308 308 309 312 310 309 308 313 320 326 335 335 337 334 334 334 334 337 337 342 344 342 345 344 343 346 344 345 347 347 346 345 344 344 344 342 339 342 345 345
307 303 305 306 310 309 313 312 312 310 312 313 314 315 336 335 336 336 335 333 332 332 335 335 336 337 341 343 344 344 347 347 345 348 347 346 345 345 344 343 340 337 341 344
305 308 310 309 309 311 311 311 312 313 313 314 316 333 327 333 332 333 334 334 332 331 331 333 335 336 336 337 347 348 347 346 348 346 348 347 347 345 344 344 343 338 338 341
306 312 310 310 311 309 309 314 314 316 323 319 322 327 320 326 323 325 327 333 333 331 329 329 332 334 334 333 334 338 343 348 347 349 347 348 348 347 345 344 343 343 340 339
307 307 306 309 309 307 309 312 321 322 319 323 327 322 319 325 322 321 321 322 328 328 328 327 328 329 333 330 329 331 341 342 346 349 349 349 348 348 348 347 344 342 343 342
306 307 306 309 307 309 305 314 319 320 319 318 318 318 318 318 320 318 317 318 321 326 325 324 324 325 327 328 325 325 333 344 343 350 350 350 350 349 349 349 347 345 343 343
304 304 308 309 308 308 313 314 317 316 319 317 317 315 314 315 318 319 313 315 315 318 324 322 322 323 324 327 325 321 324 329 337 343 340 339 339 346 351 349 349 348 346 344
307 306 310 307 311 313 312 311 311 313 314 313 314 313 312 313 317 318 312 312 313 315 318 322 321 321 322 325 325 323 321 323 325 327 331 336 339 342 345 351 350 349 349 348
303 304 307 307 309 312 310 309 309 315 313 311 311 310 310 310 311 309 310 311 311 312 314 318 320 320 320 323 325 323 320 320 321 326 329 332 336 340 342 338 347 351 351 350
306 304 303 305 314 315 308 309 310 309 307 307 306 307 307 306 307 307 307 308 309 310 312 314 317 320 319 321 324 323 320 317 319 322 329 332 334 337 340 341 348 353 353 352
307 305 304 305 306 306 306 305 305 303 302 303 303 302 304 304 305 306 308 307 307 307 309 311 315 318 319 319 323 321 320 317 318 320 323 330 330 333 337 341 345 354 354 353
309 305 303 306 304 306 304 304 303 303 302 302 301 302 303 303 303 304 304 305 305 306 307 309 311 316 318 318 322 320 318 317 317 319 320 325 328 329 331 340 350 353 355 353
305 304 304 303 303 304 303 303 302 302 303 302 302 302 302 302 302 302 302 302 303 304 305 306 308 312 316 317 321 320 317 316 316 317 318 320 325 327 331 338 349 355 356 356
303 303 303 304 302 303 302 302 301 302 302 302 302 302 303 303 302 302 302 302 302 303 304 305 306 310 314 317 320 318 315 315 315 317 317 317 322 326 329 333 339 357 357 357

GFSCGP_925_thetae_090.txt.gz
Theta_e
318 321 324 326 326 325 325 325 326 324 341 356 357 355 356 356 356 356 354 352 351 349 344 344 343 343 345 344 344 345 346 346 348 348 349 350 349 350 349 349 349 347 347 345
323 325 325 326 326 325 326 326 326 323 325 327 330 347 355 354 356 355 353 351 350 348 345 343 342 341 344 345 344 345 345 346 347 349 349 349 349 349 349 349 350 349 348 348
326 328 326 328 328 327 325 325 325 325 326 352 353 351 358 353 353 354 352 350 347 348 347 341 341 341 344 345 345 345 345 346 348 349 349 348 350 350 350 350 349 350 349 349
327 326 328 327 329 326 329 323 325 324 320 320 335 326 351 355 354 353 354 349 349 347 345 340 340 342 344 345 345 345 345 345 347 349 348 348 349 349 349 349 349 350 351 350
326 324 326 326 324 325 327 322 323 322 319 318 321 319 322 351 356 353 351 351 348 348 344 341 340 342 345 345 345 345 345 346 347 348 347 347 348 348 348 349 348 350 351 350
317 316 318 321 321 323 322 318 315 313 313 319 319 317 317 349 345 350 349 349 349 347 348 341 340 340 345 345 345 345 346 346 346 347 347 346 345 348 348 348 349 349 350 351
311 313 311 313 317 316 317 316 318 320 319 319 313 317 334 333 337 339 338 342 348 349 348 345 341 340 344 345 345 345 346 346 346 346 345 344 342 347 348 348 348 348 349 351
310 314 312 313 314 315 317 316 318 322 319 319 316 319 333 339 338 341 343 341 339 346 348 347 342 341 342 344 344 345 345 345 345 344 342 344 342 344 348 348 346 346 349 349
312 314 312 313 312 313 316 313 313 315 315 320 319 327 326 339 339 339 338 340 341 341 347 347 346 341 341 344 344 345 345 345 345 344 343 343 343 342 347 348 347 346 347 350
312 313 312 312 312 311 311 312 317 314 321 325 322 338 343 341 340 340 338 339 340 341 343 347 346 344 341 343 344 344 345 345 345 345 344 344 344 341 340 346 346 346 347 350
309 309 313 310 310 310 310 311 310 313 314 320 327 340 337 340 339 337 337 337 339 342 345 342 345 345 342 341 343 344 345 345 345 345 345 345 344 344 341 341 343 344 346 350
308 305 309 310 309 309 310 311 308 319 318 314 324 334 334 336 336 335 333 334 336 337 339 339 342 344 343 341 342 344 345 345 345 345 345 345 344 345 344 343 340 339 345 345
307 304 305 312 309 308 310 310 309 306 308 313 329 332 333 333 334 334 334 331 331 334 336 337 336 338 342 343 343 342 345 346 345 345 345 346 346 345 345 343 342 340 342 344
306 302 302 308 310 308 312 311 310 308 312 312 314 325 330 329 331 329 333 332 329 329 331 334 335 334 334 335 343 345 344 344 347 346 345 345 345 345 345 345 343 342 339 340
304 307 308 308 310 310 310 309 309 312 311 314 314 332 326 329 324 323 324 329 329 329 328 329 331 332 330 330 331 337 343 345 344 346 347 346 345 344 344 344 344 344 343 340
303 312 308 308 310 308 313 316 316 320 322 318 324 323 325 322 319 318 318 321 325 327 326 327 326 328 330 327 326 328 334 342 344 347 345 347 346 345 345 344 344 343 343 343
305 306 304 308 308 307 308 311 321 320 318 321 324 320 319 321 318 317 316 315 317 319 325 324 324 324 327 327 324 323 327 336 343 345 347 346 347 347 346 346 345 344 343 344
305 305 303 307 305 308 303 314 318 319 318 317 318 316 316 315 316 314 313 313 313 315 317 323 322 322 322 326 325 321 322 326 331 336 345 348 347 347 347 347 346 346 344 343
301 304 306 309 307 306 309 313 316 316 318 315 315 314 313 313 315 316 311 311 311 312 313 314 320 321 321 321 325 322 320 322 322 324 328 334 339 347 348 347 347 347 345 343
305 304 308 305 311 312 309 310 310 312 316 312 313 312 311 311 315 316 308 308 310 310 309 311 312 317 320 320 323 323 320 318 320 320 323 327 332 337 342 348 349 348 347 347
301 303 307 307 308 310 310 308 308 315 311 310 309 309 308 308 309 307 306 306 307 308 308 308 309 311 317 319 320 324 321 318 317 322 321 325 328 333 338 341 341 345 349 349
305 304 304 307 313 314 308 308 313 308 307 306 304 305 304 303 304 304 304 305 305 307 307 307 307 308 311 315 319 322 321 319 317 317 322 321 325 329 334 339 340 339 345 350
305 304 305 305 307 305 305 304 303 301 302 302 302 301 302 302 302 302 302 302 302 303 304 304 305 306 307 310 317 319 320 319 317 317 317 319 321 326 329 333 337 340 343 349
306 302 302 304 303 305 305 304 303 301 302 301 301 301 301 301 301 301 302 302 302 302 301 302 304 305 305 307 311 317 319 320 316 317 316 317 318 321 327 329 333 338 343 348
304 303 302 303 303 303 303 303 303 302 302 302 301 301 301 301 301 301 303 303 302 301 302 302 303 303 304 305 307 312 318 318 316 316 317 316 316 318 322 327 330 334 338 348
302 303 304 305 303 302 302 302 301 301 302 302 302 302 301 301 301 303 303 303 302 302 302 302 302 302 303 304 306 309 315 315 313 314 316 315 314 316 320 325 328 332 338 345

GFSCGP_925_thetae_093.txt.gz
Theta_e
319 324 330 333 334 332 330 330 330 328 345 358 351 352 356 358 358 359 356 354 352 350 347 347 348 348 347 345 345 346 347 348 348 350 349 350 352 353 350 351 349 346 346 346
322 326 328 331 331 329 331 332 331 327 334 347 333 338 354 356 359 359 358 355 353 351 349 347 347 347 347 345 344 347 348 348 347 350 351 352 353 353 352 352 349 347 347 345
323 327 328 330 332 333 332 333 330 328 326 348 352 353 358 356 358 358 357 355 353 352 350 348 347 346 347 347 346 347 346 347 348 350 349 349 349 350 353 351 352 347 346 347
327 329 330 331 332 332 336 329 328 329 327 328 344 333 354 356 358 359 358 356 353 352 350 348 347 346 346 347 347 347 347 346 347 347 351 351 351 350 352 352 351 351 348 347
329 330 331 332 332 330 332 328 329 328 328 325 339 329 338 358 356 349 354 357 354 350 350 350 347 346 346 346 347 347 348 347 346 347 350 352 352 352 351 352 350 350 350 350
318 317 321 326 324 327 325 324 322 322 325 327 325 324 343 345 345 346 345 346 353 352 349 348 347 346 346 346 347 347 348 348 346 345 348 350 352 351 352 351 352 352 350 352
317 316 315 316 320 322 325 326 328 328 327 328 321 334 350 346 345 344 346 346 345 346 351 350 348 346 346 346 347 347 348 349 347 345 348 349 350 350 349 348 350 352 352 353
320 319 316 316 317 321 325 326 328 330 328 327 322 341 348 341 341 342 343 343 344 344 345 351 348 346 345 347 347 346 347 348 349 348 346 347 348 349 349 351 351 351 352 353
318 318 315 315 315 316 321 324 319 324 322 326 326 335 339 339 341 341 340 341 342 348 344 348 350 347 345 346 347 348 348 348 349 348 347 347 346 346 347 349 348 349 348 352
315 318 314 314 315 316 319 316 324 324 330 328 337 342 345 343 342 340 339 341 341 342 347 345 349 348 345 346 347 347 348 348 348 348 347 347 346 343 343 345 349 348 345 346
314 317 316 316 315 315 318 320 321 323 324 329 333 345 338 341 339 337 334 334 338 341 340 345 348 349 345 345 347 347 347 348 348 349 348 348 346 344 344 343 347 348 346 345
312 314 317 315 312 312 314 316 316 327 329 325 332 341 338 337 335 337 333 331 332 335 336 337 338 339 345 345 345 346 346 347 348 348 348 349 348 346 346 344 341 343 347 345
311 311 318 316 315 313 315 313 314 315 319 329 330 337 333 332 330 329 332 331 330 331 332 333 331 332 333 337 343 346 346 346 347 347 346 347 349 348 348 346 343 342 342 345
311 311 312 317 317 314 315 312 313 316 323 323 326 337 335 329 327 326 328 329 329 329 328 329 331 330 328 329 332 335 346 347 348 347 347 347 348 349 348 348 347 344 342 342
312 313 313 312 311 311 311 311 311 316 317 322 332 335 331 326 324 322 322 324 327 328 327 326 326 327 329 327 326 329 336 340 348 349 348 348 349 349 349 348 349 349 347 345
311 314 312 312 311 312 316 317 315 317 322 328 332 331 324 322 320 322 322 322 322 322 325 326 324 323 324 328 326 325 327 337 344 347 348 349 349 348 348 348 348 348 349 348
313 314 312 312 311 312 312 317 321 322 323 326 332 325 322 320 319 318 318 317 318 319 318 319 323 322 322 322 327 325 324 328 335 338 343 349 349 350 349 348 348 347 347 348
312 313 313 313 311 313 313 318 320 322 321 322 321 320 319 318 317 316 315 316 315 315 315 314 314 316 320 321 322 326 323 323 325 331 333 338 343 349 351 350 349 348 348 348
309 313 315 315 313 311 315 319 321 321 321 319 320 319 317 315 317 317 314 312 311 311 312 312 312 312 314 319 321 323 325 322 323 322 327 332 333 338 343 349 350 350 348 348
311 312 316 314 316 314 314 314 315 317 318 317 318 316 314 312 317 320 311 307 308 308 309 310 310 311 311 313 317 321 323 324 321 320 321 323 331 332 335 338 341 348 349 346
316 317 318 317 316 314 313 312 313 317 318 316 313 311 311 310 310 308 306 307 306 306 306 306 307 308 310 311 312 318 321 323 322 320 319 320 323 328 332 334 338 341 345 349
315 317 319 317 318 315 312 312 318 316 314 312 308 308 307 307 307 306 306 305 305 305 305 305 305 306 306 307 309 312 317 320 321 320 319 318 319 322 325 330 332 336 341 341
317 314 319 316 314 311 311 310 310 309 310 308 307 306 306 307 307 307 307 306 305 305 305 304 304 304 305 307 308 310 313 315 319 321 319 318 317 318 321 321 328 332 336 343
312 308 314 312 311 311 311 309 309 308 307 306 306 306 306 307 307 307 307 306 305 305 304 304 304 304 305 306 306 307 308 311 316 320 320 318 317 319 317 321 323 330 333 337
312 311 313 312 310 308 309 310 310 308 306 306 305 306 306 306 307 307 307 306 306 305 304 304 304 304 304 305 305 306 307 309 314 318 319 319 318 318 318 317 319 323 326 332
311 314 317 317 313 313 310 310 309 309 308 306 306 306 306 306 307 307 307 306 305 304 304 304 304 304 305 304 305 306 307 309 312 315 318 318 317 317 317 318 316 319 323 329

GFSCGP_925_thetae_096.txt.gz
Theta_e
321 324 327 331 334 338 341 340 339 342 352 355 353 350 359 359 358 358 357 356 354 351 345 345 349 348 344 341 344 346 348 351 351 350 350 351 352 352 352 351 352 354 350 349
321 325 327 332 335 337 339 337 336 333 345 349 335 337 344 357 356 358 358 355 354 352 347 346 349 349 347 343 345 347 349 353 353 352 353 352 352 352 352 353 354 352 351 351
322 324 329 335 337 336 339 338 335 335 333 337 343 351 357 353 355 356 357 355 354 352 350 346 348 350 348 345 345 348 349 352 353 353 354 356 354 353 353 352 352 352 352 351
323 328 331 336 337 335 336 337 334 331 332 342 344 346 351 356 359 360 359 356 355 353 350 348 348 349 349 348 346 346 350 352 354 355 354 353 350 350 351 353 352 351 351 352
327 331 333 335 336 335 336 334 335 331 332 331 338 341 352 353 354 353 359 358 356 355 352 351 348 348 348 348 348 347 350 352 352 354 354 353 352 347 348 352 355 353 352 352
329 330 333 334 334 333 331 332 332 332 331 333 338 337 350 351 352 352 351 351 355 353 353 351 349 348 348 348 349 348 350 353 353 353 355 355 352 351 352 352 353 353 352 352
326 328 322 323 332 332 330 330 333 335 332 331 331 332 354 347 348 348 350 349 348 350 352 351 352 349 348 349 349 350 350 353 354 353 353 354 354 354 354 351 348 352 351 351
324 326 324 320 325 331 330 329 331 334 331 330 329 340 351 344 344 346 343 344 347 349 348 350 349 350 349 349 350 351 351 353 354 354 354 354 355 354 352 352 347 351 350 351
325 322 318 319 321 322 330 330 328 329 330 330 333 347 343 342 344 344 342 342 345 350 348 348 352 351 350 349 350 351 352 354 355 353 354 355 355 354 351 349 351 350 351 351
322 323 319 318 319 321 325 326 328 328 332 332 332 345 350 345 344 343 341 339 342 343 350 349 349 351 351 350 350 351 352 353 354 354 353 354 355 355 354 351 352 350 351 353
320 323 320 320 322 324 324 327 327 327 329 331 335 344 342 343 341 340 336 335 337 340 342 345 340 347 352 350 349 351 352 353 354 353 353 354 353 354 354 351 351 352 354 354
318 321 322 321 317 317 320 325 327 330 331 330 332 351 339 337 337 336 334 333 331 333 334 336 337 338 342 348 350 351 351 351 352 353 353 353 353 352 352 352 351 351 352 355
317 320 322 320 319 318 321 320 323 325 328 331 330 349 335 333 334 334 334 333 331 330 330 330 331 330 331 333 341 348 350 350 350 351 352 352 353 352 351 352 352 351 350 352
315 319 321 322 322 321 320 317 319 323 328 329 331 344 336 334 333 332 333 332 332 331 329 328 327 328 329 328 328 334 342 349 350 350 351 351 351 352 352 352 352 353 352 351
317 320 318 317 316 316 316 316 315 321 325 328 337 341 336 332 331 330 330 331 329 330 331 330 329 326 326 329 328 327 329 334 344 351 351 351 351 351 351 352 352 352 353 352
316 320 318 317 314 314 316 317 317 318 322 329 337 334 329 327 326 327 327 328 328 327 326 325 325 326 326 326 328 328 327 327 335 342 349 352 351 352 352 353 354 353 353 354
316 317 318 317 314 314 314 316 318 320 324 329 337 333 328 327 327 326 324 323 323 322 322 321 320 320 322 325 326 328 328 326 327 330 336 341 346 351 352 352 352 353 353 353
315 316 315 316 315 314 319 318 319 321 323 327 330 329 328 327 325 323 322 321 320 319 319 318 317 317 316 318 323 326 327 327 326 326 328 330 336 340 346 351 352 352 353 353
315 315 315 316 315 315 316 319 320 321 323 323 326 326 325 323 322 323 319 317 317 316 315 315 316 315 316 316 315 319 326 327 327 326 325 325 328 331 335 339 344 349 353 353
314 316 318 316 316 316 318 317 319 319 321 322 323 323 322 320 323 326 317 313 313 312 311 311 311 312 314 315 315 315 318 324 327 327 325 323 324 327 330 333 336 339 345 349
318 318 318 318 317 316 317 318 318 318 323 321 321 320 318 318 317 313 311 311 310 310 310 309 310 311 311 312 312 314 316 318 323 325 326 326 324 324 325 327 330 333 339 343
321 321 323 320 320 319 316 316 318 321 320 318 316 314 313 312 311 311 311 311 310 310 309 309 309 310 310 310 311 313 315 316 318 318 323 326 326 324 323 327 327 326 333 337
321 318 322 318 319 317 315 316 317 316 316 314 313 311 311 310 311 311 311 311 310 309 309 309 309 309 309 310 310 311 313 313 313 315 318 323 325 325 324 323 323 328 332 334
315 315 315 316 314 314 315 314 313 312 312 311 311 310 310 311 311 311 311 310 309 309 309 308 308 308 309 309 309 310 310 311 312 313 316 319 322 325 324 323 321 321 325 329
317 316 316 315 314 313 315 314 314 312 311 310 309 310 310 310 310 310 310 309 309 309 308 307 307 308 308 309 309 309 309 310 311 312 314 317 320 322 324 324 322 320 320 322
316 318 319 317 313 315 314 314 313 313 312 310 310 309 309 309 309 309 309 309 308 308 307 307 306 306 307 306 307 308 310 309 310 312 313 316 318 320 321 322 322 322 320 320

GFSCGP_925_thetae_099.txt.gz
Theta_e
323 324 326 330 330 335 341 342 343 347 349 354 359 360 362 362 359 359 353 349 348 348 347 343 343 343 341 343 345 347 348 351 352 350 349 350 353 354 353 352 353 354 353 353
323 324 325 328 332 335 341 341 341 348 351 357 357 353 359 357 357 357 359 355 352 351 348 345 346 344 342 342 344 348 350 353 352 349 348 350 352 354 353 352 353 354 352 352
325 324 326 329 332 337 342 340 339 341 350 343 341 353 356 353 354 357 356 355 354 352 349 347 347 346 344 343 345 348 351 354 353 351 354 353 355 352 354 353 353 353 352 351
326 325 327 332 336 337 338 337 337 339 341 348 345 358 362 354 361 360 359 357 355 353 352 347 347 347 345 344 345 348 352 354 354 354 354 353 351 350 352 351 350 352 352 352
326 325 328 333 335 333 335 337 337 335 337 347 348 353 358 351 357 362 360 358 356 353 352 347 347 348 346 345 345 348 351 355 354 354 356 354 354 351 354 353 354 353 354 353
327 326 331 333 334 333 336 336 338 336 335 340 350 348 355 360 354 358 358 358 356 354 352 350 348 348 347 346 346 347 352 355 355 356 355 356 349 353 351 353 354 353 351 352
330 330 332 331 334 334 336 337 338 338 336 336 342 348 359 351 350 352 352 352 354 355 355 353 351 350 349 346 345 347 352 355 356 355 356 356 356 355 356 354 353 353 352 349
330 333 330 332 334 335 335 334 335 337 333 332 333 350 353 348 347 345 345 346 349 351 354 353 352 350 350 347 346 347 353 356 357 356 356 356 357 354 350 353 349 349 350 351
328 327 326 326 329 328 334 333 331 331 332 331 342 351 346 346 348 346 343 343 346 352 354 353 352 351 351 349 348 349 353 356 358 357 357 357 358 357 350 350 351 352 350 356
327 327 325 324 325 326 328 330 332 331 335 333 344 351 350 349 347 344 341 341 342 347 352 352 349 351 352 352 350 351 353 356 358 358 358 357 357 358 357 352 352 348 350 350
324 326 325 323 326 328 328 330 330 331 332 334 340 352 347 347 342 343 338 337 338 341 343 347 347 345 350 351 351 352 353 356 358 358 357 357 357 358 358 355 354 353 353 353
323 324 326 324 324 324 326 328 330 332 333 332 333 352 341 342 341 339 337 334 333 334 338 340 339 338 334 336 343 353 351 355 355 356 356 357 357 357 357 357 355 354 353 353
322 322 327 325 323 323 325 327 328 329 330 334 333 355 341 339 340 337 336 333 332 331 331 334 334 335 334 332 333 341 346 347 350 356 356 356 357 357 356 356 356 354 354 353
320 321 324 325 325 323 324 324 325 327 330 332 335 347 343 340 340 337 335 334 334 332 332 330 331 331 332 331 331 331 336 338 344 353 352 355 356 357 356 355 355 356 354 354
321 321 321 322 320 321 323 322 321 324 327 329 343 345 342 341 339 337 335 334 334 333 332 331 330 330 331 333 332 331 329 333 340 347 352 352 353 354 356 356 355 356 356 355
321 322 322 321 319 319 319 320 320 320 323 327 342 341 337 336 337 336 334 333 332 331 329 328 328 328 329 331 332 333 328 328 331 334 338 343 352 353 355 355 355 356 355 356
322 321 323 322 320 319 320 320 320 321 321 325 341 338 335 335 335 334 332 330 329 327 327 326 325 323 323 326 328 331 331 328 329 326 329 332 335 341 350 354 355 356 355 356
319 320 321 321 322 321 320 320 319 319 322 326 337 335 334 332 330 328 328 327 325 324 323 322 322 321 321 321 321 323 330 331 330 329 327 326 329 332 336 343 353 353 355 355
316 319 319 319 321 320 321 321 321 322 325 326 334 332 331 329 328 328 324 323 322 321 320 319 318 317 318 320 319 320 321 327 331 331 330 329 328 330 332 336 338 343 351 353
316 317 320 320 318 319 321 320 319 320 321 324 329 331 330 329 332 330 323 319 317 316 315 315 315 316 317 317 317 318 320 320 324 327 329 330 330 327 327 329 331 334 340 347
318 319 318 318 320 320 321 320 320 321 324 323 324 325 325 325 324 321 317 316 314 314 314 313 314 314 315 315 315 317 318 320 321 321 321 325 330 331 328 327 329 330 332 336
322 322 323 321 320 319 320 319 318 325 324 322 322 322 321 319 317 316 315 315 314 313 313 313 313 313 313 313 314 315 316 318 318 319 319 320 323 328 330 329 329 328 331 333
322 321 324 320 324 322 319 320 322 321 321 320 319 317 316 315 315 315 315 314 313 313 312 312 312 312 312 312 313 314 315 315 316 316 317 319 321 323 326 330 330 328 326 329
318 318 320 319 318 319 318 317 319 318 318 316 315 314 314 314 314 314 313 313 312 312 312 311 311 311 311 312 312 313 313 314 314 315 316 317 318 320 322 324 327 328 326 324
320 319 319 318 317 317 317 317 317 315 315 314 313 313 313 313 313 313 312 312 312 312 311 311 311 310 310 310 311 311 311 312 313 314 314 315 316 318 321 322 323 327 328 325
318 320 321 320 317 317 316 317 316 316 315 313 312 312 312 311 312 311 311 311 311 311 310 311 311 310 309 309 309 309 310 311 312 313 314 314 314 316 318 320 322 323 324 324

GFSCGP_925_thetae_102.txt.gz
Theta_e
325 324 324 326 330 336 339 343 347 347 357 358 358 360 356 354 360 352 348 347 346 347 345 342 341 342 345 347 348 348 352 349 353 352 350 351 353 353 351 354 353 353 353 352
325 323 325 326 330 331 334 342 346 356 355 357 358 357 356 356 357 357 350 348 349 348 345 344 341 342 344 347 348 348 353 349 354 348 352 353 350 353 352 353 353 353 353 352
326 324 324 326 328 330 333 339 342 364 351 348 354 358 352 353 350 354 353 349 349 351 349 345 345 343 343 347 348 349 354 350 353 350 353 348 349 354 353 352 353 353 352 352
325 326 324 326 328 331 335 341 342 354 351 359 354 367 356 358 360 358 358 357 352 350 349 346 347 345 343 346 347 350 356 352 352 353 352 354 352 351 353 353 353 353 351 352
324 326 325 327 330 332 337 338 339 339 343 352 352 355 359 357 359 361 359 358 356 351 349 348 347 346 345 345 347 351 355 354 354 354 351 351 351 338 352 350 352 353 352 351
326 326 326 328 332 334 335 336 339 338 336 348 350 351 363 360 361 359 359 357 356 353 350 349 347 346 346 345 346 351 354 356 353 355 355 353 352 350 351 350 351 354 351 353
326 327 327 329 332 334 333 338 342 341 339 338 348 350 361 357 353 355 357 354 354 356 352 351 350 349 347 347 346 352 354 358 357 355 356 356 354 352 350 351 354 353 353 353
327 331 328 331 333 335 335 338 340 341 338 335 347 361 360 353 350 350 349 350 352 356 355 354 351 349 348 348 347 352 356 359 358 358 358 356 355 355 353 352 354 350 348 350
328 330 331 331 332 334 335 337 335 335 334 334 354 358 353 349 349 347 345 346 349 352 355 354 353 350 348 350 350 352 356 358 359 358 358 359 358 355 351 348 346 350 352 349
328 332 330 328 329 329 331 332 334 335 338 338 357 357 360 353 350 345 343 343 343 346 349 353 351 348 353 351 352 354 358 360 360 360 359 360 360 358 352 355 352 352 355 352
326 329 327 327 326 328 330 330 332 332 333 336 357 359 349 351 347 344 341 338 339 341 343 344 346 345 348 347 346 345 352 361 358 360 361 360 360 360 359 357 353 350 352 354
325 326 329 326 325 325 327 329 331 334 337 335 352 357 346 345 343 341 338 335 335 337 340 341 341 340 339 345 345 344 344 344 353 358 357 358 360 360 360 359 357 354 353 352
324 325 328 327 325 325 327 328 329 330 332 337 344 355 343 342 341 339 339 335 333 336 337 338 339 339 338 337 338 343 340 337 350 354 356 358 358 357 358 360 358 357 355 354
323 322 325 328 328 325 325 327 327 328 331 331 349 350 344 342 340 338 338 336 334 333 334 335 336 337 336 335 334 335 336 341 344 348 351 355 356 357 356 356 357 357 355 355
320 322 322 324 325 322 324 324 326 326 328 335 348 348 344 341 340 338 337 335 334 334 332 333 334 333 335 335 332 331 331 334 338 340 340 345 351 353 353 355 354 355 356 356
322 323 322 324 322 321 322 323 323 322 323 341 344 346 341 339 338 337 336 334 333 332 330 329 329 332 332 333 334 331 329 329 329 333 336 338 341 347 351 352 353 354 355 357
322 323 323 323 322 321 321 321 321 321 322 328 344 342 339 338 338 336 335 332 331 330 328 327 326 325 325 325 328 333 332 330 330 329 327 331 335 337 340 344 350 352 353 353
322 323 324 324 323 322 321 322 321 320 322 327 337 339 338 337 335 333 332 330 328 327 326 325 323 322 323 322 323 324 328 333 333 332 331 330 327 327 334 338 342 342 349 353
317 321 320 322 321 321 321 323 321 319 320 333 338 337 335 334 331 330 328 327 326 324 322 321 320 320 321 320 320 322 323 324 330 330 331 333 332 331 329 328 333 337 339 343
317 318 321 321 320 320 324 321 320 320 322 325 334 334 332 330 333 330 326 323 321 319 318 317 317 318 318 318 318 320 321 323 324 324 324 324 329 333 332 329 328 330 333 336
318 319 318 319 322 322 322 321 319 320 325 325 331 332 331 331 327 325 321 319 317 316 315 315 315 316 316 316 317 318 319 321 321 322 322 322 323 324 329 332 331 331 328 330
323 321 321 319 319 320 322 321 321 327 324 324 325 327 324 323 321 319 319 318 316 315 315 314 315 315 314 315 316 317 317 317 317 318 319 319 321 322 324 326 331 332 332 330
322 322 324 324 325 323 321 323 323 323 324 324 324 322 321 320 319 318 317 316 315 314 314 314 313 313 314 314 314 315 316 316 316 317 317 318 318 320 321 324 327 331 331 332
320 318 321 322 323 322 321 320 321 321 321 319 319 318 318 317 316 316 316 315 314 314 313 313 313 313 313 313 313 314 313 313 313 315 316 317 317 317 318 319 322 324 327 330
319 320 320 320 320 319 318 318 318 317 318 317 316 316 315 315 315 315 315 314 313 313 313 313 312 313 312 312 311 311 311 312 313 313 314 315 316 316 317 318 319 322 323 325
320 320 326 322 319 319 319 318 317 317 316 315 315 314 314 314 314 313 313 313 313 313 312 312 312 312 311 310 310 310 310 310 311 313 313 314 315 315 316 316 318 319 322 323

GFSCGP_925_thetae_105.txt.gz
Theta_e
324 321 320 320 323 326 331 340 350 354 357 358 359 359 352 355 357 358 349 342 342 342 342 343 344 346 347 346 344 350 348 350 348 351 352 352 351 351 349 346 349 351 351 347
324 322 322 322 324 326 328 334 359 362 360 357 360 360 356 356 357 356 354 343 344 342 341 342 343 347 348 347 345 351 348 351 348 352 352 352 353 353 351 351 351 352 352 349
323 323 324 322 323 325 327 329 355 361 353 358 355 358 356 354 353 352 350 351 345 344 342 340 342 347 348 347 348 352 349 348 347 351 352 350 350 353 352 352 352 352 351 353
321 324 324 322 323 324 325 336 354 353 355 362 352 360 355 353 353 351 350 354 348 345 343 341 341 346 347 347 348 350 350 347 352 355 351 347 349 352 352 351 352 352 348 353
322 322 323 322 324 324 327 349 351 349 350 355 354 358 358 353 354 353 352 348 348 346 345 345 342 345 347 347 349 348 354 349 350 353 354 351 351 350 352 353 352 351 351 353
322 322 323 323 324 325 331 332 345 350 353 364 357 354 362 360 356 352 349 345 351 348 347 346 344 342 347 347 349 350 354 352 352 353 352 352 346 342 350 351 353 352 351 351
324 322 323 324 327 328 332 332 337 343 359 355 350 352 357 355 347 346 345 346 355 353 348 347 346 344 346 347 350 350 354 354 352 354 351 352 350 351 351 349 350 352 352 353
325 324 324 326 327 328 332 329 338 351 340 334 341 361 362 351 350 350 350 352 352 354 351 351 350 347 345 347 350 351 354 354 351 353 354 353 350 352 348 349 351 353 352 352
330 326 326 328 328 332 333 332 330 336 332 334 359 360 355 350 350 349 349 350 349 348 349 354 348 351 348 346 350 352 352 355 353 352 355 353 354 346 350 350 352 352 347 348
329 327 329 330 330 330 330 328 329 329 336 339 360 362 362 353 350 345 345 345 346 346 347 348 348 349 351 351 351 353 353 354 356 353 355 355 354 353 353 355 354 352 351 350
325 326 329 328 328 330 328 327 329 328 331 332 359 358 353 349 345 343 341 340 342 343 346 344 341 344 348 346 349 349 348 346 345 349 352 354 355 354 352 351 352 353 351 350
324 324 331 328 325 325 325 325 327 330 331 338 353 356 348 344 340 338 337 337 339 342 342 341 340 339 339 343 341 341 345 346 339 337 348 354 354 354 352 350 356 352 353 352
320 323 325 328 324 324 325 325 325 323 324 331 338 356 346 342 341 337 335 335 337 338 338 338 336 337 337 338 342 343 337 337 338 340 348 354 355 356 354 354 353 356 354 354
322 319 326 326 326 326 324 324 324 325 326 346 352 351 344 342 340 338 336 334 334 335 336 337 336 334 332 335 336 339 336 337 339 341 346 348 353 354 353 355 357 357 356 354
318 322 321 321 324 325 321 322 324 326 330 340 347 347 344 340 339 338 335 333 332 334 334 334 336 335 331 331 331 334 337 340 342 343 346 343 348 350 352 353 354 356 357 356
321 322 321 322 322 322 321 321 323 323 342 345 345 345 338 337 336 336 335 333 331 329 328 332 330 330 334 332 331 329 329 331 332 336 338 341 347 347 345 346 353 354 354 354
323 324 325 322 324 322 320 321 320 321 321 343 347 342 338 338 337 335 334 331 330 328 326 326 325 325 324 325 332 331 331 331 331 330 329 328 333 336 340 341 344 349 352 353
321 323 323 325 323 324 321 322 321 319 321 338 341 340 338 337 334 332 331 329 327 325 322 320 322 322 322 321 323 324 331 333 331 330 331 332 332 328 326 328 336 339 341 347
317 318 321 321 322 322 322 323 321 322 339 339 340 338 337 335 332 332 328 325 323 321 319 319 321 319 319 319 320 322 325 324 324 324 323 324 326 332 333 330 327 327 333 338
317 316 319 322 323 322 323 320 319 320 339 336 337 336 335 330 332 330 325 322 318 317 317 317 317 317 316 317 319 319 321 320 320 320 320 321 322 324 324 332 332 331 328 325
318 318 319 318 322 325 323 320 319 323 329 327 333 331 330 329 327 323 318 317 317 315 316 316 315 315 316 316 316 318 317 316 316 317 318 318 318 320 322 323 326 332 332 331
325 321 321 319 320 326 323 323 329 326 326 327 327 324 321 318 318 317 317 316 316 315 315 315 314 314 314 314 315 317 317 317 316 316 317 317 317 317 317 319 322 325 329 331
319 324 325 324 326 323 322 323 321 323 324 324 322 320 320 319 318 317 317 315 315 314 314 313 313 313 313 313 314 313 312 312 312 313 314 314 316 317 317 317 317 318 322 325
319 319 320 323 325 323 320 320 320 321 320 319 320 320 318 318 317 316 314 314 314 314 313 313 313 313 313 312 311 311 311 311 311 312 313 313 314 315 316 317 317 318 320 323
322 320 320 320 320 319 319 319 319 317 318 317 316 315 315 314 314 314 313 313 314 313 312 312 313 313 311 310 310 310 309 309 310 310 312 313 315 315 315 315 315 315 316 318
321 319 324 322 321 318 320 319 318 317 316 317 315 315 314 314 313 314 313 313 314 312 312 312 312 311 310 309 309 308 308 307 309 309 310 313 313 314 314 314 315 315 315 317

GFSCGP_925_thetae_108.txt.gz
Theta_e
322 319 320 320 319 321 323 334 358 359 356 358 357 356 357 356 354 350 352 352 344 346 343 343 347 347 347 348 347 350 348 350 349 349 346 345 342 348 348 349 348 350 347 348
320 320 319 320 321 321 322 328 353 359 353 356 357 357 355 356 354 352 352 350 342 345 343 343 347 346 345 345 348 348 348 350 349 351 349 349 349 349 349 348 349 348 348 346
321 322 322 322 321 321 320 325 354 360 357 355 356 360 356 354 352 352 352 350 349 344 343 343 346 347 345 345 348 348 348 349 348 352 350 350 349 351 350 349 351 350 349 348
319 322 323 322 322 320 318 322 348 354 355 355 353 360 355 355 356 355 354 351 351 342 341 342 345 347 345 346 349 348 348 347 347 350 352 349 350 350 350 349 349 351 350 351
320 321 320 321 322 320 321 348 351 349 352 352 354 357 348 353 358 355 353 351 350 346 341 341 345 346 346 347 349 349 348 347 348 354 351 348 350 350 351 351 351 351 350 350
321 322 319 319 321 321 343 347 347 349 349 356 354 355 359 355 353 354 353 351 351 346 348 341 345 346 346 348 350 350 349 348 351 352 353 345 349 350 351 351 351 351 351 351
324 326 320 320 321 322 330 339 340 351 351 349 347 356 353 351 350 351 352 350 348 345 346 348 344 345 346 349 350 350 351 350 348 352 352 351 348 347 351 350 352 352 351 351
323 325 321 322 321 323 328 328 336 346 346 347 343 357 362 347 346 344 346 350 349 351 350 351 349 345 346 348 349 352 351 351 350 352 352 351 348 350 349 350 351 351 350 352
324 327 324 325 324 324 326 333 328 336 331 346 359 359 353 350 349 351 349 351 350 349 351 350 350 350 346 347 349 350 351 352 351 352 351 351 349 350 350 348 349 351 352 352
325 324 323 326 326 328 328 327 329 328 335 340 357 361 361 355 354 350 347 347 347 348 349 349 349 349 349 348 350 350 354 354 353 353 355 354 350 346 346 344 350 352 351 350
322 321 323 326 325 327 326 326 325 324 325 330 354 358 352 351 347 344 342 344 345 346 344 344 344 347 347 347 348 351 352 353 349 349 351 353 355 353 347 353 353 353 350 350
320 319 324 325 323 322 324 325 323 326 328 337 346 359 344 343 341 340 340 340 343 343 342 340 341 342 344 343 344 343 343 343 341 341 345 346 348 353 353 354 353 351 351 350
316 316 325 324 320 322 320 323 321 319 321 341 346 356 343 339 338 337 339 340 340 340 338 338 337 338 342 341 342 338 340 345 342 339 339 346 348 345 353 351 351 353 352 351
320 315 323 325 323 321 323 320 321 319 330 345 348 352 346 341 337 336 337 338 339 338 336 334 333 335 336 340 340 336 338 342 340 338 341 346 347 350 353 354 350 350 354 352
317 321 321 322 320 320 322 319 319 323 329 331 347 347 345 340 337 336 335 336 337 337 337 334 331 331 332 334 337 337 339 340 341 342 343 343 344 347 349 351 352 351 351 353
315 321 322 322 321 321 320 318 323 341 343 344 343 345 338 337 335 335 333 335 334 335 334 334 334 331 330 330 331 334 334 336 340 341 340 342 344 345 345 347 348 348 351 353
318 319 320 323 320 319 318 319 318 326 341 342 345 340 338 338 336 334 332 329 329 331 328 325 324 324 326 331 330 330 331 331 330 330 329 330 334 338 339 342 345 345 345 349
316 318 319 323 321 321 319 317 318 328 341 338 338 338 337 337 334 331 329 327 325 321 322 320 319 320 321 328 330 333 329 325 324 324 326 331 332 330 328 330 337 342 337 340
311 313 316 318 324 319 321 320 319 337 341 338 339 337 335 333 331 329 324 320 318 315 317 317 318 318 319 322 324 323 322 322 321 320 321 322 323 324 329 330 331 329 327 328
310 309 314 317 321 321 321 319 320 325 335 335 337 336 334 331 332 327 320 317 315 316 316 316 316 317 318 319 319 319 317 317 317 317 318 318 318 320 322 322 329 331 332 331
312 311 313 315 318 322 321 323 322 323 324 332 335 334 331 330 325 320 315 314 314 315 315 315 315 315 316 316 316 316 316 315 316 316 317 316 316 316 317 318 320 322 324 328
320 312 313 312 316 323 321 322 326 323 323 326 326 321 322 319 317 315 313 312 313 314 314 314 314 314 315 316 315 312 312 312 312 312 313 314 314 315 315 315 315 316 319 321
315 317 319 319 320 317 317 321 321 321 322 322 320 319 318 318 317 315 313 311 312 313 313 314 313 313 312 312 312 311 310 310 310 311 311 312 314 315 315 315 316 316 317 317
316 314 318 319 319 321 317 316 317 319 320 318 318 318 318 318 317 315 314 312 312 312 313 313 312 312 310 310 310 310 309 309 308 308 310 312 313 313 315 315 315 315 315 315
319 317 315 315 316 317 316 316 315 315 315 316 317 316 315 315 314 314 311 310 311 312 312 312 311 310 309 309 309 308 308 307 308 308 308 310 310 311 313 313 313 314 315 313
315 316 316 318 316 314 317 314 315 313 314 313 312 311 313 313 312 312 309 311 311 311 312 311 310 310 309 308 308 307 307 306 306 306 306 307 308 309 308 309 310 312 312 313

GFSCGP_925_thetae_111.txt.gz
Theta_e
321 318 319 320 319 320 322 323 344 359 355 358 357 356 357 354 352 352 351 351 348 348 347 348 348 350 350 348 348 347 348 347 346 347 340 342 346 345 346 347 346 348 347 346
319 320 319 319 319 320 321 323 356 356 354 357 357 359 355 354 352 352 350 350 346 347 347 348 348 349 348 349 348 347 348 347 347 348 343 341 342 345 348 347 347 347 346 346
321 322 321 321 321 321 320 321 336 360 356 355 357 360 358 354 352 350 348 349 348 344 345 346 347 347 346 349 349 349 347 348 348 350 347 348 348 348 348 348 348 348 348 345
321 321 323 322 322 319 320 319 327 357 354 358 352 359 358 355 354 351 349 349 349 344 343 345 346 345 344 346 347 348 347 349 348 351 349 349 349 348 349 347 350 349 349 348
319 319 320 321 321 319 320 327 325 351 349 349 355 355 346 354 357 354 349 346 349 344 342 346 345 345 344 345 347 347 347 349 348 350 350 350 348 348 348 348 349 350 350 348
320 320 320 319 319 319 343 345 344 343 346 351 351 353 354 357 355 351 349 349 350 346 344 341 345 345 343 347 348 347 348 348 347 349 350 350 349 349 349 350 350 351 350 349
321 323 322 319 320 324 343 337 345 351 349 349 347 355 352 350 350 352 352 350 350 346 344 348 343 345 344 348 349 348 348 348 350 352 352 351 347 349 349 350 351 350 349 350
322 324 321 320 319 319 341 332 338 345 349 345 349 354 355 348 347 347 350 349 349 348 347 347 347 345 345 347 349 348 348 348 350 352 352 351 349 348 350 350 350 351 351 350
321 324 323 321 322 322 327 330 326 332 331 343 352 357 353 349 349 349 350 349 349 350 349 347 348 348 345 346 350 349 349 348 348 351 351 351 348 343 347 350 350 351 350 350
322 324 322 323 325 325 323 324 328 325 335 339 353 357 360 352 350 348 347 348 346 346 351 348 348 348 346 346 348 352 350 349 349 353 351 351 350 349 349 349 349 348 350 350
319 319 323 323 323 326 326 325 321 321 324 336 349 353 349 351 346 347 346 345 346 346 347 347 348 348 346 347 349 351 351 351 350 352 353 352 351 350 349 345 345 349 349 350
317 317 323 325 321 319 323 324 321 325 328 341 342 353 345 346 343 342 343 345 344 344 342 344 344 346 344 345 344 343 344 349 348 349 349 350 351 350 350 351 349 352 351 349
315 315 323 324 322 318 319 318 318 316 326 339 344 353 342 341 342 341 341 344 342 340 339 339 341 343 343 342 342 341 340 342 343 342 341 341 343 346 349 352 353 353 350 351
317 314 322 324 320 318 320 321 319 318 333 342 347 353 346 340 339 339 341 341 339 337 336 336 337 338 341 340 340 342 342 343 336 334 338 341 346 347 348 348 353 353 352 352
315 318 319 324 321 319 319 319 320 319 325 332 345 349 345 340 338 339 339 339 338 336 334 334 333 333 335 338 337 338 339 341 330 340 339 342 344 344 347 350 352 351 350 353
311 318 321 324 327 319 318 318 320 340 343 343 344 344 339 336 334 338 338 338 338 336 334 332 331 331 331 334 335 336 337 338 340 340 339 339 341 341 343 345 346 347 349 350
317 315 318 322 324 321 321 318 317 336 340 342 345 341 338 337 336 335 335 335 335 332 330 324 323 325 330 330 330 330 330 330 330 330 330 329 330 331 337 341 343 343 343 345
315 316 315 320 322 326 320 317 322 339 340 337 337 338 337 335 332 329 330 331 328 325 321 320 321 323 328 329 325 324 323 322 322 321 322 323 326 330 330 330 332 335 340 341
310 312 315 317 321 321 322 319 318 326 340 337 338 337 335 333 332 329 325 323 322 318 317 316 320 322 324 322 320 319 318 317 317 317 317 318 320 321 324 330 331 331 331 330
308 307 312 315 319 323 322 320 321 325 332 334 336 335 333 330 332 326 319 319 318 316 316 316 319 320 319 317 318 317 316 315 315 315 315 316 316 317 317 319 321 323 325 329
309 309 310 313 316 320 320 321 322 325 321 334 335 333 330 330 324 317 316 317 316 315 315 316 316 317 316 316 316 314 313 312 312 313 313 313 314 314 315 315 316 317 320 322
314 311 311 310 315 321 319 322 322 321 322 327 331 329 323 320 317 313 313 314 313 313 314 314 315 315 314 314 313 311 311 310 310 310 311 312 313 314 314 315 315 315 316 317
316 315 318 314 316 316 315 322 321 321 321 323 322 321 320 320 317 314 312 312 312 312 313 314 314 312 312 311 311 310 309 308 308 308 310 312 313 313 314 313 314 314 314 314
316 312 317 317 318 317 315 316 319 318 318 319 319 319 319 319 317 317 314 312 311 312 312 312 311 310 310 310 309 308 308 307 307 307 309 309 310 311 312 312 313 313 312 312
316 316 313 314 316 315 314 314 317 317 316 317 317 317 318 318 316 314 314 312 311 311 311 311 310 310 309 309 308 307 306 306 306 305 306 307 308 308 308 308 308 309 309 309
313 314 314 316 314 312 314 313 314 316 316 315 315 313 314 314 312 312 311 311 310 310 311 310 310 309 308 308 307 306 305 305 305 304 305 305 305 305 305 305 305 305 305 306

GFSCGP_925_thetae_114.txt.gz
Theta_e
319 318 321 319 319 320 321 322 328 359 354 357 356 356 354 352 350 350 350 347 347 346 346 347 348 348 349 349 349 348 347 344 338 343 342 342 345 346 345 345 346 345 347 346
318 319 317 318 319 320 320 322 351 357 355 355 357 359 355 353 351 349 351 350 346 346 345 347 347 349 348 348 347 346 342 341 344 344 340 337 345 344 346 345 346 345 345 346
321 322 318 320 320 320 320 319 349 357 356 355 358 360 357 354 351 349 350 349 348 347 347 347 347 349 349 349 347 346 347 346 346 347 340 342 344 343 347 347 346 347 347 347
321 321 321 321 322 319 320 318 331 356 350 355 350 358 356 357 355 352 349 349 349 348 345 345 346 347 348 349 347 347 347 347 346 348 346 345 346 347 347 347 348 347 348 348
320 318 321 321 321 318 320 330 329 353 346 346 349 348 346 354 357 354 350 349 349 344 343 344 345 347 346 347 348 346 347 347 348 349 348 348 348 348 347 348 348 349 348 348
319 319 319 319 319 318 341 342 341 339 342 346 344 344 349 357 355 353 350 347 347 347 343 343 345 345 344 344 347 348 347 347 348 349 349 349 347 347 348 347 348 350 349 348
321 321 321 319 320 326 338 339 344 347 349 349 340 351 346 348 349 351 350 347 346 348 344 342 342 344 344 343 346 346 347 348 347 349 349 350 348 349 348 348 348 349 349 349
321 323 321 318 320 322 337 334 339 345 346 344 347 352 350 349 346 347 347 343 346 348 346 344 345 344 344 344 347 347 347 347 348 348 350 350 349 347 348 348 349 349 348 348
320 323 321 320 318 325 334 337 328 332 329 345 348 354 351 348 350 349 348 347 347 348 348 345 344 347 345 345 347 348 348 347 348 350 351 351 347 348 348 348 350 349 349 350
319 323 321 322 323 323 326 325 329 325 335 338 351 354 352 354 353 352 351 349 348 348 348 348 346 347 346 345 345 348 348 347 348 350 350 349 350 345 343 346 348 349 350 349
316 319 322 322 323 324 323 324 320 321 325 335 346 348 349 349 348 347 346 345 345 348 347 346 346 346 346 346 345 347 349 348 347 348 350 350 350 349 348 347 348 349 348 349
316 316 322 324 320 317 320 322 319 325 329 335 337 343 343 347 345 344 345 345 343 343 343 344 345 347 345 346 347 350 349 348 348 349 352 351 350 349 349 348 346 345 347 348
315 315 321 323 321 317 318 318 316 315 328 339 335 339 343 344 342 343 344 343 343 340 341 343 343 345 345 343 343 341 343 343 342 342 342 341 342 345 348 349 347 347 349 351
316 315 320 323 320 316 319 318 318 317 328 336 336 347 347 343 341 342 344 342 341 340 339 339 341 343 342 341 341 341 342 338 337 337 337 339 340 342 342 346 348 350 350 351
312 319 320 321 319 319 319 317 318 318 322 329 336 343 345 341 338 342 342 339 338 336 337 337 336 339 339 339 340 342 342 340 336 337 340 340 342 343 345 348 349 349 351 350
310 318 319 323 323 321 318 317 321 340 341 341 341 344 338 334 336 340 341 339 337 335 333 333 333 335 337 338 338 338 333 331 336 338 339 339 341 340 341 342 345 348 349 349
315 316 318 321 319 321 323 318 318 326 340 341 342 338 337 336 339 340 340 338 337 333 327 327 331 331 331 332 332 331 331 335 336 334 332 331 332 336 338 337 340 342 343 344
315 315 315 319 322 327 320 317 334 339 339 336 336 337 336 335 333 334 335 334 330 326 326 327 327 326 325 324 323 322 322 323 324 323 324 328 329 330 331 331 331 332 336 339
309 312 314 317 321 319 320 318 320 326 334 336 337 336 334 332 332 330 331 327 322 320 320 322 323 321 320 320 320 319 318 317 317 316 317 318 319 321 323 324 325 329 331 331
307 307 313 314 319 319 317 319 321 326 324 335 336 335 334 334 336 330 323 321 318 317 319 319 319 318 318 317 317 316 314 314 314 314 314 315 315 315 316 317 318 321 324 325
308 309 310 314 315 317 317 320 320 321 320 333 334 333 332 333 326 318 321 318 316 316 317 318 317 316 315 314 314 312 311 311 311 312 313 314 314 314 315 315 316 317 318 321
311 310 310 309 314 320 316 320 321 317 322 330 331 330 327 321 318 320 317 314 313 313 314 315 314 313 312 312 311 310 309 309 310 311 312 313 313 313 314 314 314 314 315 316
316 312 316 311 312 312 314 318 320 320 323 326 325 321 321 318 318 318 315 312 312 312 313 314 313 311 311 310 309 308 307 307 308 309 310 311 312 312 312 313 313 313 313 313
315 311 316 317 317 317 314 317 318 318 320 320 320 320 319 319 317 316 315 312 312 312 312 311 311 309 309 308 307 307 307 306 306 307 308 309 309 309 309 310 310 310 310 310
313 314 313 314 315 314 314 314 316 317 318 319 319 320 319 317 316 315 314 314 312 311 311 310 310 309 308 307 306 306 305 305 304 305 306 306 306 305 305 306 306 304 306 307
311 313 315 317 313 312 313 312 314 317 317 317 317 316 317 316 316 318 318 314 311 311 311 310 309 309 308 306 306 305 304 304 304 304 304 304 303 303 303 303 302 302 303 305

GFSCGP_925_thetae_117.txt.gz
Theta_e
323 333 338 332 326 326 329 327 340 357 356 359 358 358 357 355 353 353 352 349 351 349 348 348 348 349 350 350 350 350 350 347 338 340 345 346 348 346 345 345 345 344 344 345
327 336 329 324 323 324 325 327 359 359 357 358 358 359 356 355 354 353 352 349 349 349 348 349 349 349 350 351 350 350 349 346 344 341 344 345 346 345 348 344 345 344 345 346
333 330 321 323 323 325 325 327 353 356 359 357 358 362 359 355 353 350 350 348 348 348 349 350 349 350 350 351 350 350 348 345 343 344 342 339 344 344 347 348 347 345 345 345
331 322 322 323 324 324 328 323 337 357 354 354 355 360 360 357 356 352 352 350 348 349 348 348 349 350 350 350 350 349 347 341 347 346 345 344 347 348 348 348 347 347 346 346
326 323 324 325 325 324 327 325 330 344 352 351 357 354 354 356 360 357 352 351 350 347 346 349 349 349 349 350 350 349 349 347 348 348 348 348 345 345 348 349 346 346 347 348
323 321 322 324 323 323 340 337 344 348 350 344 346 350 354 361 360 357 353 351 350 348 346 346 348 348 349 349 349 349 350 349 348 347 349 348 347 347 346 349 350 349 352 351
324 324 323 322 324 327 345 341 351 354 353 345 346 352 348 352 351 355 355 351 350 348 348 347 347 348 348 348 349 349 350 350 348 350 349 348 347 347 347 348 346 348 351 350
323 321 323 323 325 325 338 336 335 340 347 343 352 355 351 350 349 349 352 351 349 348 348 348 346 347 347 347 348 349 350 351 351 350 350 349 348 348 351 351 351 349 350 347
326 326 324 323 322 327 334 336 332 339 340 346 352 352 353 350 352 350 352 350 349 350 349 347 346 346 347 347 348 349 350 350 351 351 348 349 350 347 348 348 349 351 346 346
324 326 324 325 324 324 332 330 330 336 345 343 355 356 353 354 354 353 352 351 349 349 349 348 347 348 348 346 348 349 350 349 350 348 349 348 349 347 347 346 348 351 349 349
322 326 327 325 328 329 328 331 330 332 335 338 346 353 353 353 351 354 351 349 349 349 349 349 346 348 349 348 347 350 350 350 350 349 348 348 348 349 345 346 347 348 349 350
320 326 328 328 324 321 323 327 330 334 337 339 342 344 346 349 349 349 350 350 348 347 348 348 347 347 347 348 349 350 352 351 351 347 347 349 348 348 349 348 346 347 348 348
321 324 325 327 325 322 324 322 322 326 338 343 337 340 346 348 347 345 346 347 348 348 348 348 346 348 348 346 344 345 345 347 348 348 349 349 348 348 351 352 349 347 348 349
322 323 327 323 327 323 324 322 322 324 334 338 338 347 349 349 349 345 345 345 344 344 343 344 345 346 344 345 344 343 343 343 344 344 341 342 341 341 342 345 351 350 349 348
321 327 324 323 322 321 322 323 334 327 327 335 339 346 347 348 346 344 345 344 342 341 341 342 342 343 342 342 342 341 341 339 340 340 340 342 343 342 342 343 346 350 351 351
318 326 324 326 324 325 322 323 330 335 336 338 339 344 343 345 343 343 343 341 342 340 339 337 337 339 340 340 341 339 337 337 338 336 337 340 339 340 342 344 346 348 349 350
323 325 326 326 324 326 326 324 325 336 341 342 342 343 343 345 343 343 341 341 340 337 334 335 335 334 337 336 336 334 335 331 334 334 335 337 340 337 339 341 342 342 344 346
323 325 324 323 326 329 325 325 330 335 340 341 341 341 343 342 341 340 341 341 335 332 332 330 327 325 325 326 327 328 331 330 330 329 329 331 335 332 333 335 336 336 337 339
319 323 323 324 322 324 324 323 324 325 325 334 340 341 341 341 339 340 337 331 330 329 328 325 322 321 321 321 321 323 320 319 319 320 320 322 327 326 326 327 330 331 333 334
316 320 322 322 321 321 323 322 323 326 327 336 339 340 341 340 343 333 326 324 323 324 323 321 319 319 319 319 320 318 317 316 316 316 316 316 317 319 319 320 322 324 326 328
319 320 319 321 321 320 321 324 323 327 327 334 338 339 340 342 340 329 323 321 321 323 320 319 318 316 315 314 314 313 313 312 313 314 314 314 314 315 316 316 318 320 322 325
320 321 321 318 320 318 322 325 324 328 328 332 337 337 338 329 331 328 324 319 319 318 318 316 314 313 313 312 312 311 310 311 312 313 313 313 313 314 314 314 315 316 316 317
325 320 322 320 320 321 321 324 326 326 329 333 336 332 328 328 328 326 324 321 317 316 316 315 313 312 310 310 309 308 309 310 310 311 311 312 312 312 312 313 313 313 314 316
320 317 326 325 324 323 322 322 324 325 326 327 330 327 326 325 323 322 319 319 318 318 316 314 313 312 311 310 310 309 309 308 310 309 309 309 309 309 309 309 309 310 312 313
321 319 323 323 321 320 320 321 320 325 326 327 325 324 325 324 322 318 317 317 315 316 314 314 313 312 310 309 309 308 306 306 307 307 308 307 307 307 307 306 306 308 306 308
320 323 327 327 321 321 321 319 319 324 326 326 325 323 322 321 320 318 316 317 315 313 312 313 313 312 310 308 308 307 305 305 307 307 306 306 305 305 305 305 304 304 304 303

GFSCGP_925_thetae_120.txt.gz
Theta_e
323 331 338 339 336 335 346 345 349 356 357 359 359 358 356 354 353 351 351 352 350 350 349 349 349 349 350 350 350 350 350 350 348 349 347 347 347 348 348 348 351 351 351 353
327 332 334 338 331 332 339 340 350 355 358 359 357 358 359 358 352 347 351 348 350 350 350 350 350 349 351 351 351 351 352 352 347 348 349 348 348 348 348 349 351 350 351 352
323 328 334 330 331 333 334 336 350 351 357 355 358 363 362 358 356 349 349 348 348 351 350 351 351 350 351 352 352 352 352 352 351 348 349 350 351 347 348 350 350 350 350 351
326 329 331 333 333 334 338 330 344 354 353 358 356 367 363 360 360 353 352 350 347 348 350 349 351 351 351 352 352 351 353 352 350 350 349 348 347 348 349 350 350 350 350 350
330 330 329 330 331 330 334 328 332 339 340 343 352 350 356 359 362 359 356 350 349 347 348 350 349 350 351 352 351 349 352 352 349 352 351 349 349 347 348 349 351 350 352 352
327 328 327 329 329 328 330 330 335 339 338 341 340 346 359 359 359 357 355 353 351 347 347 348 349 350 351 351 351 350 351 353 352 353 350 350 351 349 350 350 350 350 350 351
326 326 326 325 326 326 332 334 341 341 343 340 341 345 345 352 353 354 357 354 351 348 346 347 349 350 351 351 352 350 351 353 353 353 352 350 351 352 352 351 350 350 350 349
327 327 325 325 326 327 333 336 338 343 342 340 346 346 347 349 350 352 354 354 352 352 348 346 348 350 351 351 352 351 352 352 353 353 354 352 350 349 350 351 349 349 348 351
324 324 324 324 324 326 328 332 333 335 337 340 348 344 354 352 352 352 353 354 353 353 349 346 345 349 350 350 351 351 352 353 353 352 354 354 351 349 349 352 353 351 351 348
326 327 325 324 326 325 328 330 330 333 342 341 344 345 345 357 354 354 354 356 354 352 349 348 347 348 350 350 350 351 352 354 353 352 352 352 352 352 351 348 353 354 352 350
327 328 328 328 327 326 327 329 330 329 331 337 339 343 351 353 352 355 354 354 354 353 351 349 349 350 350 350 350 350 352 353 353 353 351 352 351 353 354 352 353 354 354 353
327 327 329 327 328 327 329 327 329 331 335 336 337 347 351 352 351 354 354 353 352 351 351 351 349 350 352 351 350 352 353 352 352 352 353 351 351 351 351 352 352 355 355 355
327 327 329 329 327 327 328 328 328 329 331 334 334 333 350 351 351 352 354 352 351 351 350 350 350 350 350 351 352 352 353 353 353 353 352 351 351 351 351 352 351 353 354 353
323 326 327 327 329 328 328 327 327 327 329 330 333 336 352 352 352 352 352 350 351 351 351 350 350 350 350 350 349 350 351 352 352 352 352 352 352 352 352 354 352 352 352 352
324 327 328 325 324 324 326 327 329 330 328 331 330 333 334 350 352 351 349 348 348 350 348 349 349 349 347 348 348 347 349 349 349 349 350 351 350 350 351 351 354 355 353 351
322 326 326 326 326 326 325 325 329 331 332 333 333 336 345 348 350 348 349 347 349 348 346 346 346 345 345 345 345 345 343 344 344 345 345 345 345 346 346 348 350 353 355 354
324 324 326 327 327 326 327 326 327 332 337 337 338 346 346 350 348 348 347 347 346 345 345 345 345 344 344 341 337 335 336 337 338 339 343 342 344 345 346 345 345 346 349 354
325 325 324 325 328 330 328 328 328 330 335 340 339 341 343 346 345 343 343 343 342 341 339 334 331 328 331 335 334 330 331 333 334 333 334 336 336 338 340 343 344 345 346 346
325 326 325 324 324 324 326 327 328 329 329 329 330 339 344 343 342 343 342 342 341 338 332 327 324 323 325 327 332 329 328 330 326 326 328 330 331 331 332 335 339 341 343 344
323 325 326 326 325 325 328 325 325 327 329 331 336 340 342 343 347 344 339 339 337 330 326 323 321 319 320 321 322 323 320 322 321 322 321 324 324 326 325 328 330 333 336 336
322 324 324 325 326 323 325 325 324 328 332 332 338 340 342 342 343 338 334 332 332 329 325 322 319 316 317 318 319 317 317 316 316 316 317 318 321 320 322 323 326 327 331 334
321 321 321 321 322 322 326 326 326 333 331 331 337 340 342 338 337 333 328 329 324 322 320 318 316 315 314 314 315 314 313 313 314 313 314 314 314 316 317 320 323 325 327 328
325 321 323 320 325 328 327 329 329 331 334 334 337 338 337 338 335 327 325 323 322 323 322 316 314 312 313 312 312 313 313 312 313 314 314 313 313 313 313 316 317 318 321 324
324 323 323 325 325 326 326 327 327 332 333 331 335 335 334 336 333 331 329 324 318 317 317 317 314 313 312 312 310 309 312 312 314 315 314 314 314 314 312 312 313 315 317 317
324 325 325 325 327 326 325 325 326 330 332 332 332 332 333 333 331 329 326 322 319 317 316 314 313 313 312 311 311 311 312 313 313 313 312 312 311 311 310 309 310 309 308 312
323 324 325 323 327 326 328 325 325 326 329 330 330 331 330 330 328 323 320 317 315 315 316 316 316 314 313 312 311 311 311 312 312 312 311 310 310 309 309 308 306 304 304 304

GFSCGP_925_thetae_123.txt.gz
Theta_e
321 326 339 342 342 344 344 349 360 359 359 359 359 361 356 354 354 354 354 351 348 346 346 345 346 346 347 347 349 350 349 350 349 348 346 346 345 345 344 345 350 351 350 351
323 326 331 338 339 339 342 349 354 365 356 358 358 361 355 356 355 352 351 351 351 349 349 346 347 346 347 348 349 350 351 351 351 349 347 347 346 346 347 347 346 349 349 352
324 326 329 337 340 336 339 343 351 355 356 355 359 365 361 354 353 345 348 347 348 352 349 348 348 347 347 347 350 351 353 353 351 349 351 351 351 349 350 350 348 348 349 349
325 326 333 337 337 336 339 337 350 355 356 361 357 372 366 361 358 351 347 349 350 348 350 349 347 348 346 348 348 350 352 354 352 352 350 350 349 348 348 347 348 350 349 349
325 327 331 335 334 336 337 336 337 347 352 351 354 364 360 362 364 358 351 347 350 344 349 348 346 347 348 348 347 349 352 354 353 353 352 351 351 350 350 349 352 353 350 350
329 330 330 331 331 332 334 334 335 338 342 345 351 348 365 367 363 361 353 348 348 342 347 348 348 346 350 348 347 347 351 354 353 355 354 354 352 351 350 350 353 350 350 351
329 329 329 328 330 331 332 335 340 344 345 345 340 343 359 358 354 358 356 353 348 344 347 347 349 349 350 350 346 347 351 353 354 354 354 353 354 353 351 354 351 351 348 347
330 329 328 327 328 328 330 335 340 346 343 342 343 346 356 351 350 352 356 354 351 345 346 346 348 347 350 350 347 347 352 354 353 353 354 354 353 352 353 353 351 347 347 349
327 328 326 326 326 327 328 333 334 336 339 340 342 347 352 349 352 352 353 356 355 351 348 345 347 348 350 348 350 349 353 354 353 351 354 355 354 353 352 354 355 351 350 350
327 327 326 325 325 325 327 330 332 334 340 341 349 354 353 351 351 352 353 356 354 355 350 347 346 347 350 349 351 350 352 355 353 351 351 352 352 354 353 353 355 353 352 349
327 327 328 325 325 326 326 328 331 331 333 337 343 350 349 352 350 353 353 353 355 355 353 348 347 346 350 351 351 351 352 354 354 351 350 351 350 351 355 352 353 355 355 353
327 328 332 328 327 326 329 326 329 332 332 332 332 346 341 348 349 351 352 353 354 354 353 348 346 348 351 352 353 352 353 353 354 353 352 350 350 351 352 354 354 355 355 354
328 328 330 332 330 328 329 329 327 327 329 331 335 344 350 348 349 351 352 353 355 356 352 351 352 352 352 353 353 352 354 354 353 353 354 353 352 350 351 353 353 355 355 355
326 327 330 333 333 331 329 327 328 329 330 331 331 350 350 349 352 355 354 355 354 356 355 354 353 351 351 352 353 353 353 354 355 354 353 354 354 352 350 353 353 354 355 353
326 328 328 328 328 328 329 328 327 328 328 329 329 334 339 345 352 355 356 356 355 353 353 353 354 351 351 352 352 352 352 353 354 354 355 353 353 353 352 353 354 354 352 353
325 325 325 327 326 326 326 327 327 328 328 328 328 333 342 352 353 355 352 353 354 354 353 352 352 351 350 351 351 350 351 352 353 354 354 353 353 353 353 354 355 355 355 354
324 324 326 326 325 326 327 326 326 327 331 331 332 346 346 345 353 353 351 350 352 351 349 350 350 349 348 347 344 344 344 345 346 348 348 348 349 349 350 351 351 353 356 356
326 327 327 327 331 331 326 329 327 329 333 336 335 338 343 350 349 347 347 347 347 347 346 342 341 342 343 337 338 340 340 340 339 339 340 341 344 345 347 348 349 349 351 354
324 327 328 327 327 332 329 329 329 328 330 331 332 336 346 349 347 346 344 345 346 343 338 334 332 330 335 337 336 337 335 333 331 332 333 334 334 336 340 341 343 346 347 347
322 324 327 327 327 327 331 328 327 327 331 332 334 336 344 344 349 350 345 338 338 336 330 326 323 322 327 330 334 333 333 333 332 326 325 327 328 328 331 332 334 338 341 343
323 323 325 324 325 328 328 325 323 325 335 332 335 336 343 345 345 344 340 337 334 330 327 323 320 318 319 323 325 327 329 328 326 323 322 323 323 324 325 328 331 334 336 337
323 324 324 323 326 330 327 324 325 334 331 331 332 336 342 341 341 338 335 333 330 328 325 322 319 317 317 319 320 317 319 321 319 319 318 318 320 321 326 327 327 329 333 335
324 322 326 326 329 328 325 329 329 330 331 333 333 337 341 340 338 332 328 327 325 322 320 319 319 315 313 315 316 315 314 315 317 315 316 318 318 318 320 319 322 326 329 331
323 324 323 323 324 324 326 327 328 328 330 332 334 336 337 338 334 329 326 324 322 320 319 317 316 315 314 312 315 314 314 313 315 316 317 317 316 316 315 316 318 319 320 321
323 327 322 322 327 328 324 326 326 329 330 333 334 334 335 335 333 331 328 325 320 318 315 316 315 313 313 313 312 312 313 315 316 316 315 315 315 315 314 312 312 310 312 315
321 322 322 323 330 327 328 326 325 326 328 330 333 333 333 333 332 329 327 323 320 318 318 315 314 314 314 311 313 314 312 314 314 314 314 313 313 312 312 311 306 304 305 307